[[{"header":{"parameterUnit":"m.s-1","parameterCategory":1,"la1":31.0,"la2":29.5877,"lo1":-88.7671,"lo2":-86.6584,"dy":0.0162,"dx":0.0185,"nx":115,"ny":88,"refTime":"2023-05-06T12:00:00:Z","depth":0,"parameterNumber":2,"parameterNumberName":"U-component_of_WINDS"},"data":[0.0,0.0,0.0,0.0,0.0,0.0,0.0,0.0,0.0,0.0,0.0,0.0,0.0,0.0,0.0,0.0,0.0,0.0,0.0,0.0,0.0,0.0,0.0,0.0,0.0,0.0,0.0,0.0,0.0,0.0,0.0,0.0,0.0,0.0,0.0,0.0,0.0,0.0,0.0,0.0,0.0,0.0,0.0,0.0,0.0,0.0,0.0,0.0,0.0,0.0,0.0,0.0,0.0,0.0,0.0,0.0,0.0,0.0,0.0,0.0,0.0,0.0,0.0,0.0,0.0,0.0,0.0,0.0,0.0,0.0,0.0,0.0,0.0,0.0,0.0,0.0,0.0,0.0,0.0,0.0,0.0,0.0,0.0,0.0,0.0,0.0,0.0,0.0,0.0,0.0,0.0,0.0,0.0,0.0,0.0,0.0,0.0,0.0,0.0,0.0,0.0,0.0,0.0,0.0,0.0,0.0,0.0,0.0,0.0,0.0,0.0,0.0,0.0,0.0,0.0,0.0,0.0,0.0,0.0,0.0,0.0,0.0,0.0,0.0,0.0,0.0,0.0,0.0,0.0,0.0,0.0,0.0,0.0,0.0,0.0,0.0,0.0,0.0,0.0,0.0,0.0,0.0,0.0,0.0,0.0,0.0,0.0,0.0,0.0,0.0,0.0,0.0,0.0,0.0,0.0,0.0,0.0,0.0,0.0,0.0,0.0,0.0,0.0,0.0,0.0,0.0,0.0,0.0,0.0,0.0,0.0,0.0,0.0,0.0,0.0,0.0,0.0,0.0,0.0,0.0,0.0,0.0,0.0,0.0,0.0,0.0,0.0,0.0,0.0,0.0,0.0,0.0,0.0,0.0,0.0,0.0,0.0,0.0,0.0,0.0,0.0,0.0,0.0,0.0,0.0,0.0,0.0,0.0,0.0,0.0,0.0,0.0,0.0,0.0,0.0,0.0,0.0,0.0,0.0,0.0,0.0,0.0,0.0,0.0,0.0,0.0,0.0,0.0,0.0,0.0,0.0,0.0,0.0,0.0,0.0,0.0,0.0,0.0,0.0,0.0,0.0,0.0,0.0,0.0,0.0,0.0,0.0,0.0,0.0,0.0,0.0,0.0,0.0,0.0,0.0,0.0,0.0,0.0,0.0,0.0,0.0,0.0,0.0,0.0,0.0,0.0,0.0,0.0,0.0,0.0,0.0,0.0,0.0,0.0,0.0,0.0,0.0,0.0,0.0,0.0,0.0,0.0,0.0,0.0,0.0,0.0,0.0,0.0,0.0,0.0,0.0,0.0,0.0,0.0,0.0,0.0,0.0,0.0,0.0,0.0,0.0,0.0,0.0,0.0,0.0,0.0,0.0,0.0,0.0,0.0,0.0,0.0,0.0,0.0,0.0,0.0,0.0,0.0,0.0,0.0,0.0,0.0,0.0,0.0,0.0,0.0,0.0,0.0,0.0,0.0,0.0,0.0,0.0,0.0,0.0,0.0,0.0,0.0,0.0,0.0,0.0,0.0,0.0,0.0,0.0,0.0,0.0,0.0,0.0,0.0,0.0,0.0,0.0,0.0,0.0,0.0,0.0,0.0,0.0,0.0,0.0,0.0,0.0,0.0,0.0,0.0,0.0,0.0,0.0,0.0,0.0,0.0,0.0,0.0,0.0,0.0,0.0,0.0,0.0,0.0,0.0,0.0,0.0,0.0,0.0,0.0,0.0,0.0,0.0,0.0,0.0,0.0,0.0,0.0,0.0,0.0,0.0,0.0,0.0,0.0,0.0,0.0,0.0,0.0,0.0,0.0,0.0,0.0,0.0,0.0,0.0,0.0,0.0,0.0,0.0,0.0,0.0,0.0,0.0,0.0,0.0,0.0,0.0,0.0,0.0,0.0,0.0,0.0,0.0,0.0,0.0,0.0,0.0,0.0,0.0,0.0,0.0,0.0,0.0,0.0,0.0,0.0,0.0,0.0,0.0,0.0,0.0,0.0,0.0,0.0,0.0,0.0,0.0,0.0,0.0,0.0,0.0,0.0,0.0,0.0,0.0,0.0,0.0,0.0,0.0,0.0,0.0,0.0,0.0,0.0,0.0,0.0,0.0,0.0,0.0,0.0,0.0,0.0,0.0,0.0,0.0,0.0,0.0,0.0,0.0,0.0,0.0,0.0,0.0,0.0,0.0,0.0,0.0,0.0,0.0,0.0,0.0,0.0,0.0,0.0,0.0,0.0,0.0,0.0,0.0,0.0,0.0,0.0,0.0,0.0,0.0,0.0,0.0,0.0,0.0,0.0,0.0,0.0,0.0,0.0,0.0,0.0,0.0,0.0,0.0,0.0,0.0,0.0,0.0,0.0,0.0,0.0,0.0,0.0,0.0,0.0,0.0,0.0,0.0,0.0,0.0,0.0,0.0,0.0,0.0,0.0,0.0,0.0,0.0,0.0,0.0,0.0,0.0,0.0,0.0,0.0,0.0,0.0,0.0,0.0,0.0,0.0,0.0,0.0,0.0,0.0,0.0,0.0,0.0,0.0,0.0,0.0,0.0,0.0,0.0,0.0,0.0,0.0,0.0,0.0,0.0,0.0,0.0,0.0,0.0,0.0,0.0,0.0,0.0,0.0,0.0,0.0,0.0,0.0,0.0,0.0,0.0,0.0,0.0,0.0,0.0,0.0,0.0,0.0,0.0,0.0,0.0,0.0,0.0,0.0,0.0,0.0,0.0,0.0,0.0,0.0,0.0,0.0,0.0,0.0,0.0,0.0,0.0,0.0,0.0,0.0,0.0,0.0,0.0,0.0,0.0,0.0,0.0,0.0,0.0,0.0,0.0,0.0,0.0,0.0,0.0,0.0,0.0,0.0,0.0,0.0,0.0,0.0,0.0,0.0,0.0,0.0,0.0,0.0,0.0,0.0,0.0,0.0,0.0,0.0,0.0,0.0,0.0,0.0,0.0,0.0,0.0,0.0,0.0,0.0,0.0,0.0,0.0,0.0,0.0,0.0,0.0,0.0,0.0,0.0,0.0,0.0,0.0,0.0,0.0,0.0,0.0,0.0,0.0,0.0,0.0,0.0,0.0,0.0,0.0,0.0,0.0,0.0,0.0,0.0,0.0,0.0,0.0,0.0,0.0,0.0,0.0,0.0,0.0,0.0,0.0,0.0,0.0,0.0,0.0,0.0,0.0,0.0,0.0,0.0,0.0,0.0,0.0,0.0,0.0,0.0,0.0,0.0,0.0,0.0,0.0,0.0,0.0,0.0,0.0,0.0,0.0,0.0,0.0,0.0,0.0,0.0,0.0,0.0,0.0,0.0,0.0,0.0,0.0,0.0,0.0,0.0,0.0,0.0,0.0,0.0,0.0,0.0,0.0,0.0,0.0,0.0,0.0,0.0,0.0,0.0,0.0,0.0,0.0,0.0,0.0,0.0,0.0,0.0,0.0,0.0,0.0,0.0,0.0,0.0,0.0,0.0,0.0,0.0,0.0,0.0,0.0,0.0,0.0,0.0,0.0,0.0,0.0,0.0,0.0,0.0,0.0,0.0,0.0,0.0,0.0,0.0,0.0,0.0,0.0,0.0,0.0,0.0,0.0,0.0,0.0,0.0,0.0,0.0,0.0,0.0,0.0,0.0,0.0,0.0,0.0,0.0,0.0,0.0,0.0,0.0,0.0,0.0,0.0,0.0,0.0,0.0,0.0,0.0,0.0,0.0,0.0,0.0,0.0,0.0,0.0,0.0,0.0,0.0,0.0,0.0,0.0,0.0,0.0,0.0,0.0,0.0,0.0,0.0,0.0,0.0,0.0,0.0,0.0,0.0,0.0,0.0,0.0,0.0,0.0,0.0,0.0,0.0,0.0,0.0,0.0,0.0,0.0,0.0,0.0,0.0,0.0,0.0,0.0,0.0,0.0,0.0,0.0,0.0,0.0,0.0,0.0,0.0,0.0,0.0,0.0,0.0,0.0,0.0,0.0,0.0,0.0,0.0,0.0,0.0,0.0,0.0,0.0,0.0,0.0,0.0,0.0,0.0,0.0,0.0,0.0,0.0,0.0,0.0,0.0,0.0,0.0,0.0,0.0,0.0,0.0,0.0,0.0,0.0,0.0,0.0,0.0,0.0,0.0,0.0,0.0,0.0,0.0,0.0,0.0,0.0,0.0,0.0,0.0,0.0,0.0,0.0,0.0,0.0,0.0,0.0,0.0,0.0,0.0,0.0,0.0,0.0,0.0,0.0,0.0,0.0,0.0,0.0,0.0,0.0,0.0,0.0,0.0,0.0,0.0,0.0,-2.5919,0.0,0.0,0.0,0.0,0.0,0.0,0.0,0.0,0.0,0.0,0.0,0.0,0.0,0.0,0.0,0.0,0.0,0.0,0.0,0.0,0.0,0.0,0.0,0.0,0.0,0.0,0.0,0.0,0.0,0.0,0.0,0.0,0.0,0.0,0.0,0.0,0.0,0.0,0.0,0.0,0.0,0.0,0.0,0.0,0.0,0.0,0.0,0.0,0.0,0.0,0.0,0.0,0.0,0.0,0.0,0.0,0.0,0.0,0.0,0.0,0.0,0.0,0.0,0.0,0.0,0.0,0.0,0.0,0.0,0.0,0.0,0.0,0.0,0.0,0.0,0.0,0.0,0.0,0.0,0.0,0.0,0.0,0.0,0.0,0.0,0.0,0.0,0.0,0.0,0.0,0.0,0.0,0.0,0.0,0.0,0.0,0.0,0.0,0.0,0.0,0.0,0.0,0.0,0.0,0.0,0.0,0.0,0.0,0.0,0.0,-2.7659,-2.7674,-2.7572,-2.713,-2.6318,0.0,0.0,0.0,0.0,0.0,0.0,0.0,0.0,0.0,0.0,0.0,0.0,0.0,0.0,0.0,0.0,0.0,0.0,0.0,0.0,0.0,0.0,0.0,0.0,0.0,0.0,0.0,0.0,0.0,0.0,0.0,0.0,0.0,0.0,0.0,0.0,0.0,0.0,0.0,0.0,0.0,0.0,0.0,0.0,0.0,0.0,0.0,0.0,0.0,0.0,0.0,0.0,0.0,0.0,0.0,0.0,0.0,0.0,0.0,0.0,0.0,0.0,0.0,0.0,0.0,0.0,0.0,0.0,0.0,0.0,0.0,0.0,0.0,0.0,0.0,0.0,0.0,0.0,0.0,0.0,0.0,0.0,0.0,0.0,0.0,0.0,0.0,0.0,0.0,0.0,0.0,0.0,0.0,0.0,0.0,0.0,0.0,0.0,0.0,0.0,0.0,0.0,0.0,0.0,0.0,0.0,0.0,0.0,0.0,0.0,0.0,0.0,-2.8041,-2.7516,-2.6541,0.0,0.0,0.0,0.0,0.0,0.0,0.0,0.0,0.0,0.0,0.0,0.0,0.0,0.0,0.0,0.0,0.0,0.0,0.0,0.0,0.0,0.0,0.0,0.0,0.0,0.0,0.0,0.0,0.0,0.0,0.0,0.0,0.0,0.0,0.0,0.0,0.0,0.0,0.0,0.0,0.0,0.0,0.0,0.0,0.0,0.0,0.0,0.0,0.0,0.0,0.0,0.0,0.0,0.0,0.0,0.0,0.0,0.0,0.0,0.0,0.0,0.0,0.0,0.0,0.0,0.0,0.0,0.0,0.0,0.0,0.0,0.0,0.0,0.0,0.0,0.0,0.0,0.0,0.0,0.0,0.0,0.0,0.0,0.0,0.0,0.0,0.0,0.0,0.0,0.0,0.0,0.0,0.0,0.0,0.0,0.0,0.0,0.0,0.0,0.0,0.0,0.0,0.0,0.0,0.0,0.0,0.0,0.0,0.0,0.0,-2.9888,-2.928,-2.9194,0.0,-2.6676,0.0,0.0,0.0,0.0,0.0,0.0,0.0,0.0,0.0,0.0,0.0,0.0,0.0,0.0,0.0,0.0,0.0,0.0,0.0,0.0,0.0,0.0,0.0,0.0,0.0,0.0,0.0,0.0,0.0,0.0,0.0,0.0,0.0,0.0,0.0,0.0,0.0,0.0,0.0,0.0,0.0,0.0,0.0,0.0,0.0,0.0,0.0,0.0,0.0,0.0,0.0,0.0,0.0,0.0,0.0,0.0,0.0,0.0,0.0,0.0,0.0,0.0,0.0,0.0,0.0,0.0,0.0,0.0,0.0,0.0,0.0,0.0,0.0,0.0,0.0,0.0,0.0,0.0,0.0,0.0,0.0,0.0,0.0,0.0,0.0,0.0,0.0,0.0,0.0,0.0,0.0,0.0,0.0,0.0,0.0,0.0,0.0,0.0,0.0,0.0,0.0,0.0,0.0,0.0,0.0,0.0,0.0,0.0,0.0,0.0,-3.0474,-3.0237,-2.9662,-2.8493,0.0,0.0,0.0,0.0,0.0,0.0,0.0,0.0,0.0,0.0,0.0,0.0,0.0,0.0,0.0,0.0,0.0,0.0,0.0,0.0,0.0,0.0,0.0,0.0,0.0,0.0,0.0,0.0,0.0,0.0,0.0,0.0,0.0,0.0,0.0,0.0,0.0,0.0,0.0,0.0,0.0,0.0,0.0,0.0,0.0,0.0,0.0,0.0,0.0,0.0,0.0,0.0,0.0,0.0,0.0,0.0,0.0,0.0,0.0,0.0,0.0,0.0,0.0,0.0,0.0,0.0,0.0,0.0,0.0,0.0,0.0,0.0,0.0,0.0,0.0,0.0,0.0,0.0,0.0,0.0,0.0,0.0,0.0,0.0,0.0,0.0,0.0,0.0,0.0,0.0,0.0,0.0,0.0,0.0,0.0,0.0,0.0,0.0,0.0,0.0,0.0,0.0,0.0,0.0,0.0,0.0,0.0,0.0,0.0,0.0,-3.1154,-3.12,-3.0804,-2.9922,-2.8717,-2.7154,0.0,0.0,0.0,0.0,0.0,0.0,0.0,0.0,0.0,0.0,0.0,0.0,0.0,0.0,0.0,0.0,0.0,0.0,0.0,0.0,0.0,0.0,0.0,0.0,0.0,0.0,0.0,0.0,0.0,0.0,0.0,0.0,0.0,0.0,0.0,0.0,0.0,0.0,0.0,0.0,0.0,0.0,0.0,0.0,0.0,0.0,0.0,0.0,0.0,0.0,0.0,0.0,0.0,0.0,0.0,0.0,0.0,0.0,0.0,0.0,0.0,0.0,0.0,0.0,0.0,0.0,0.0,0.0,0.0,0.0,0.0,0.0,0.0,0.0,0.0,0.0,0.0,0.0,0.0,0.0,0.0,0.0,0.0,0.0,0.0,0.0,0.0,0.0,0.0,0.0,0.0,0.0,0.0,0.0,0.0,0.0,0.0,0.0,0.0,0.0,0.0,0.0,0.0,0.0,0.0,0.0,0.0,0.0,-3.1653,-3.2522,-3.2322,-3.0968,-2.9996,-2.9064,0.0,0.0,0.0,0.0,0.0,0.0,0.0,0.0,0.0,0.0,0.0,0.0,0.0,0.0,0.0,0.0,0.0,0.0,0.0,0.0,0.0,0.0,0.0,0.0,0.0,0.0,0.0,0.0,0.0,0.0,0.0,0.0,0.0,0.0,0.0,0.0,0.0,0.0,0.0,0.0,0.0,0.0,0.0,0.0,0.0,0.0,0.0,0.0,0.0,0.0,0.0,0.0,0.0,0.0,0.0,0.0,0.0,0.0,0.0,0.0,0.0,0.0,0.0,0.0,0.0,0.0,0.0,0.0,0.0,0.0,0.0,0.0,0.0,0.0,0.0,0.0,0.0,0.0,0.0,0.0,0.0,0.0,0.0,0.0,0.0,0.0,0.0,0.0,0.0,0.0,0.0,0.0,0.0,0.0,0.0,0.0,0.0,0.0,0.0,0.0,0.0,0.0,0.0,0.0,0.0,0.0,0.0,0.0,0.0,-3.2474,-3.3006,-3.2795,-3.1757,-3.0836,-2.9932,0.0,0.0,0.0,0.0,0.0,0.0,0.0,0.0,0.0,0.0,0.0,0.0,0.0,0.0,0.0,0.0,0.0,0.0,0.0,0.0,0.0,0.0,0.0,0.0,0.0,0.0,0.0,0.0,0.0,0.0,0.0,0.0,0.0,0.0,0.0,0.0,0.0,0.0,0.0,0.0,0.0,0.0,0.0,0.0,0.0,0.0,0.0,0.0,0.0,0.0,0.0,0.0,0.0,0.0,0.0,0.0,0.0,0.0,0.0,0.0,0.0,0.0,0.0,0.0,0.0,0.0,0.0,0.0,0.0,0.0,0.0,0.0,0.0,0.0,0.0,0.0,0.0,0.0,0.0,0.0,0.0,0.0,0.0,0.0,0.0,0.0,0.0,0.0,0.0,0.0,0.0,0.0,0.0,0.0,0.0,0.0,0.0,0.0,0.0,0.0,0.0,0.0,0.0,0.0,0.0,0.0,0.0,0.0,0.0,-3.2916,0.0,-3.2984,-3.2216,-3.1293,-3.0388,0.0,0.0,0.0,0.0,0.0,0.0,0.0,0.0,0.0,0.0,0.0,0.0,0.0,0.0,0.0,0.0,0.0,0.0,0.0,0.0,0.0,0.0,0.0,0.0,0.0,0.0,0.0,0.0,0.0,0.0,0.0,0.0,0.0,0.0,0.0,0.0,0.0,0.0,0.0,0.0,0.0,0.0,0.0,0.0,0.0,0.0,0.0,0.0,0.0,0.0,0.0,0.0,0.0,0.0,0.0,0.0,0.0,0.0,0.0,0.0,0.0,0.0,0.0,0.0,0.0,0.0,0.0,0.0,0.0,0.0,0.0,0.0,0.0,0.0,0.0,0.0,0.0,0.0,0.0,0.0,0.0,0.0,0.0,0.0,0.0,0.0,0.0,0.0,0.0,0.0,0.0,0.0,0.0,0.0,0.0,0.0,0.0,0.0,0.0,0.0,0.0,0.0,0.0,0.0,0.0,0.0,0.0,0.0,-3.2422,-3.3015,-3.3255,-3.3084,-3.2252,-3.1383,-3.0442,0.0,0.0,0.0,0.0,0.0,0.0,0.0,0.0,0.0,0.0,0.0,0.0,0.0,0.0,0.0,0.0,0.0,0.0,0.0,0.0,0.0,0.0,0.0,0.0,0.0,0.0,0.0,0.0,0.0,0.0,0.0,0.0,0.0,0.0,0.0,0.0,0.0,0.0,0.0,0.0,0.0,0.0,0.0,0.0,0.0,0.0,0.0,0.0,0.0,0.0,0.0,0.0,0.0,0.0,0.0,0.0,0.0,0.0,0.0,0.0,0.0,0.0,0.0,0.0,0.0,0.0,0.0,0.0,0.0,0.0,0.0,0.0,0.0,0.0,0.0,0.0,0.0,0.0,0.0,0.0,0.0,0.0,0.0,0.0,0.0,0.0,0.0,0.0,0.0,0.0,0.0,0.0,0.0,0.0,0.0,0.0,0.0,0.0,0.0,0.0,0.0,0.0,0.0,0.0,0.0,0.0,0.0,0.0,0.0,-3.3834,-3.4515,-3.4537,-3.381,-3.2826,-3.1664,0.0,0.0,0.0,0.0,0.0,0.0,0.0,0.0,0.0,0.0,0.0,0.0,0.0,0.0,0.0,0.0,0.0,0.0,0.0,0.0,0.0,0.0,0.0,0.0,0.0,0.0,0.0,0.0,0.0,0.0,0.0,0.0,0.0,0.0,0.0,0.0,0.0,0.0,0.0,0.0,0.0,0.0,0.0,0.0,0.0,0.0,0.0,0.0,0.0,0.0,0.0,0.0,0.0,0.0,0.0,0.0,0.0,0.0,0.0,0.0,0.0,0.0,0.0,0.0,0.0,0.0,0.0,0.0,0.0,0.0,0.0,0.0,0.0,0.0,0.0,0.0,0.0,0.0,0.0,0.0,0.0,0.0,0.0,0.0,0.0,0.0,0.0,0.0,0.0,0.0,0.0,0.0,0.0,0.0,0.0,0.0,0.0,0.0,0.0,0.0,0.0,0.0,0.0,0.0,0.0,0.0,0.0,0.0,0.0,-3.4885,-3.5301,-3.5325,-3.4887,-3.3631,-3.2467,-3.1364,0.0,0.0,0.0,0.0,0.0,0.0,0.0,0.0,0.0,0.0,0.0,0.0,0.0,0.0,0.0,0.0,0.0,0.0,0.0,0.0,0.0,0.0,0.0,0.0,0.0,0.0,0.0,0.0,0.0,0.0,0.0,0.0,0.0,0.0,0.0,0.0,0.0,0.0,0.0,0.0,0.0,0.0,0.0,0.0,0.0,0.0,0.0,0.0,0.0,0.0,0.0,0.0,0.0,0.0,0.0,0.0,0.0,0.0,0.0,0.0,0.0,0.0,0.0,0.0,0.0,0.0,0.0,0.0,0.0,0.0,0.0,0.0,0.0,0.0,0.0,0.0,0.0,0.0,0.0,0.0,0.0,0.0,0.0,0.0,0.0,0.0,0.0,0.0,0.0,0.0,0.0,0.0,0.0,0.0,0.0,0.0,0.0,0.0,0.0,0.0,0.0,0.0,0.0,0.0,0.0,0.0,0.0,0.0,-3.6052,-3.5687,-3.5553,-3.5529,-3.3949,-3.2928,0.0,0.0,0.0,0.0,0.0,0.0,0.0,0.0,0.0,0.0,0.0,0.0,0.0,0.0,0.0,0.0,0.0,0.0,0.0,0.0,0.0,0.0,0.0,0.0,0.0,0.0,0.0,0.0,0.0,0.0,0.0,0.0,0.0,0.0,0.0,0.0,0.0,0.0,0.0,0.0,0.0,0.0,0.0,0.0,0.0,0.0,0.0,0.0,0.0,0.0,0.0,0.0,0.0,0.0,0.0,0.0,0.0,0.0,0.0,0.0,0.0,0.0,0.0,0.0,0.0,0.0,0.0,0.0,0.0,0.0,0.0,0.0,0.0,0.0,0.0,0.0,0.0,0.0,0.0,0.0,0.0,0.0,0.0,0.0,0.0,0.0,0.0,0.0,0.0,0.0,0.0,0.0,0.0,0.0,0.0,0.0,0.0,0.0,0.0,0.0,0.0,0.0,0.0,0.0,0.0,0.0,0.0,0.0,0.0,-3.6695,-3.6782,-3.6576,-3.6114,-3.551,-3.427,0.0,0.0,0.0,0.0,0.0,0.0,0.0,0.0,0.0,0.0,0.0,0.0,0.0,0.0,0.0,0.0,0.0,0.0,0.0,0.0,0.0,0.0,0.0,0.0,0.0,0.0,0.0,0.0,0.0,0.0,0.0,0.0,0.0,0.0,0.0,0.0,0.0,0.0,0.0,0.0,0.0,0.0,0.0,0.0,0.0,0.0,0.0,0.0,0.0,0.0,0.0,0.0,0.0,0.0,0.0,0.0,0.0,0.0,0.0,0.0,0.0,0.0,0.0,0.0,0.0,0.0,0.0,0.0,0.0,0.0,0.0,0.0,0.0,0.0,0.0,0.0,0.0,0.0,0.0,0.0,0.0,0.0,0.0,0.0,0.0,0.0,0.0,0.0,0.0,0.0,0.0,0.0,0.0,0.0,0.0,0.0,0.0,0.0,0.0,0.0,0.0,0.0,0.0,0.0,0.0,0.0,0.0,0.0,-3.6664,-3.7323,-3.7757,-3.7626,-3.6949,-3.6221,-3.4964,0.0,0.0,0.0,0.0,0.0,0.0,0.0,0.0,0.0,0.0,0.0,0.0,0.0,0.0,0.0,0.0,0.0,0.0,0.0,0.0,0.0,0.0,0.0,0.0,0.0,0.0,0.0,0.0,0.0,0.0,0.0,0.0,0.0,0.0,0.0,0.0,0.0,0.0,0.0,0.0,0.0,0.0,0.0,0.0,0.0,0.0,0.0,0.0,0.0,0.0,0.0,0.0,0.0,0.0,0.0,0.0,0.0,0.0,0.0,0.0,0.0,0.0,0.0,0.0,0.0,0.0,0.0,0.0,0.0,0.0,0.0,0.0,0.0,0.0,0.0,0.0,0.0,0.0,0.0,0.0,0.0,0.0,0.0,0.0,0.0,0.0,0.0,0.0,0.0,0.0,0.0,0.0,0.0,0.0,0.0,0.0,0.0,0.0,0.0,0.0,0.0,0.0,0.0,0.0,0.0,0.0,0.0,0.0,-3.7616,-3.7881,-3.8542,-3.8577,-3.7864,-3.6516,-3.5268,0.0,0.0,0.0,0.0,0.0,0.0,0.0,0.0,0.0,0.0,0.0,0.0,0.0,0.0,0.0,0.0,0.0,0.0,0.0,0.0,0.0,0.0,0.0,0.0,0.0,0.0,0.0,0.0,0.0,0.0,0.0,0.0,0.0,0.0,0.0,0.0,0.0,0.0,0.0,0.0,0.0,0.0,0.0,0.0,0.0,0.0,0.0,0.0,0.0,0.0,0.0,0.0,0.0,0.0,0.0,0.0,0.0,0.0,0.0,0.0,0.0,0.0,0.0,0.0,0.0,0.0,0.0,0.0,0.0,0.0,0.0,0.0,0.0,0.0,0.0,0.0,0.0,0.0,0.0,0.0,0.0,0.0,0.0,0.0,0.0,0.0,0.0,0.0,0.0,0.0,0.0,0.0,0.0,0.0,0.0,0.0,0.0,0.0,0.0,0.0,0.0,0.0,0.0,0.0,0.0,0.0,0.0,0.0,-3.7683,-3.8419,-3.8729,-3.8768,-3.8432,-3.7456,-3.6148,0.0,0.0,0.0,0.0,0.0,0.0,0.0,0.0,0.0,0.0,0.0,0.0,0.0,0.0,0.0,0.0,0.0,0.0,0.0,0.0,0.0,0.0,0.0,0.0,0.0,0.0,0.0,0.0,0.0,0.0,0.0,0.0,0.0,0.0,0.0,0.0,0.0,0.0,0.0,0.0,0.0,0.0,0.0,0.0,0.0,0.0,0.0,0.0,-2.7924,0.0,0.0,0.0,0.0,0.0,0.0,0.0,0.0,0.0,0.0,0.0,0.0,0.0,0.0,0.0,0.0,0.0,0.0,0.0,0.0,0.0,0.0,0.0,0.0,0.0,0.0,0.0,0.0,0.0,0.0,0.0,0.0,0.0,0.0,0.0,0.0,0.0,0.0,0.0,0.0,0.0,0.0,0.0,0.0,0.0,0.0,0.0,0.0,0.0,0.0,0.0,0.0,0.0,0.0,0.0,0.0,0.0,0.0,0.0,-3.8037,-3.8998,-3.9428,-3.9399,-3.8894,-3.7916,-3.6558,0.0,0.0,0.0,0.0,0.0,0.0,0.0,0.0,0.0,0.0,0.0,0.0,0.0,0.0,0.0,0.0,0.0,0.0,0.0,0.0,0.0,0.0,0.0,0.0,0.0,0.0,0.0,0.0,0.0,0.0,0.0,0.0,0.0,0.0,0.0,0.0,0.0,0.0,0.0,0.0,0.0,0.0,0.0,0.0,0.0,0.0,0.0,0.0,0.0,0.0,0.0,0.0,0.0,0.0,0.0,0.0,0.0,0.0,0.0,0.0,0.0,0.0,0.0,0.0,0.0,0.0,0.0,0.0,0.0,0.0,0.0,0.0,0.0,0.0,0.0,0.0,0.0,0.0,0.0,0.0,0.0,0.0,0.0,0.0,0.0,0.0,0.0,0.0,0.0,0.0,0.0,0.0,0.0,0.0,0.0,0.0,0.0,0.0,0.0,0.0,0.0,0.0,0.0,0.0,0.0,0.0,0.0,-3.7485,-3.8499,-3.9559,-4.0144,-4.0063,-3.9312,-3.8226,-3.6892,-3.535,0.0,0.0,0.0,0.0,0.0,0.0,0.0,0.0,0.0,0.0,0.0,0.0,0.0,0.0,0.0,0.0,0.0,0.0,0.0,0.0,0.0,0.0,0.0,0.0,0.0,0.0,0.0,0.0,0.0,0.0,0.0,0.0,0.0,0.0,0.0,0.0,0.0,0.0,-2.7876,-2.9413,0.0,0.0,0.0,0.0,0.0,0.0,0.0,0.0,-3.1481,0.0,0.0,0.0,0.0,0.0,0.0,0.0,0.0,0.0,0.0,0.0,0.0,0.0,0.0,0.0,0.0,0.0,0.0,0.0,0.0,0.0,0.0,0.0,0.0,0.0,0.0,0.0,0.0,0.0,0.0,0.0,0.0,0.0,0.0,0.0,0.0,0.0,0.0,0.0,0.0,0.0,0.0,0.0,0.0,0.0,0.0,0.0,0.0,0.0,0.0,0.0,0.0,0.0,0.0,0.0,0.0,-3.6642,-3.7811,-3.8849,-3.9809,-4.0045,-4.0045,-3.9775,-3.879,-3.7633,-3.6259,0.0,0.0,0.0,0.0,0.0,0.0,0.0,0.0,0.0,0.0,0.0,0.0,0.0,0.0,0.0,0.0,0.0,0.0,0.0,0.0,0.0,0.0,0.0,0.0,0.0,0.0,0.0,0.0,0.0,0.0,0.0,0.0,0.0,0.0,0.0,0.0,0.0,0.0,0.0,-3.2022,-3.3036,0.0,0.0,0.0,0.0,0.0,0.0,0.0,0.0,-3.3257,0.0,0.0,0.0,0.0,0.0,0.0,0.0,0.0,0.0,0.0,0.0,0.0,0.0,0.0,0.0,0.0,0.0,0.0,0.0,0.0,0.0,0.0,0.0,0.0,0.0,0.0,0.0,0.0,0.0,0.0,0.0,0.0,0.0,0.0,0.0,0.0,0.0,0.0,0.0,0.0,0.0,0.0,0.0,0.0,0.0,0.0,0.0,0.0,0.0,0.0,0.0,0.0,0.0,0.0,0.0,-3.647,-3.7557,-3.8572,-3.948,-3.9592,-3.9566,-3.9408,-3.8543,-3.7502,0.0,0.0,0.0,0.0,0.0,0.0,0.0,0.0,0.0,0.0,0.0,0.0,0.0,0.0,0.0,0.0,0.0,0.0,0.0,0.0,0.0,0.0,0.0,0.0,0.0,0.0,0.0,0.0,0.0,0.0,0.0,0.0,0.0,0.0,0.0,0.0,0.0,0.0,0.0,0.0,-3.2762,-3.3927,-3.3911,0.0,0.0,0.0,0.0,0.0,0.0,-3.5755,-3.5127,0.0,0.0,0.0,0.0,0.0,0.0,0.0,0.0,0.0,0.0,0.0,0.0,0.0,0.0,0.0,0.0,0.0,0.0,0.0,0.0,0.0,0.0,0.0,0.0,0.0,0.0,0.0,0.0,0.0,0.0,0.0,0.0,0.0,0.0,0.0,0.0,0.0,0.0,0.0,0.0,0.0,0.0,0.0,0.0,0.0,0.0,0.0,0.0,0.0,0.0,0.0,0.0,0.0,0.0,0.0,-3.6238,-3.7367,-3.8357,-3.9177,-3.9336,-3.9325,-3.9073,-3.8379,-3.7367,0.0,0.0,0.0,0.0,0.0,0.0,0.0,0.0,0.0,0.0,0.0,0.0,0.0,0.0,0.0,0.0,0.0,0.0,0.0,0.0,0.0,0.0,0.0,0.0,0.0,0.0,0.0,0.0,0.0,0.0,0.0,0.0,0.0,0.0,0.0,0.0,0.0,0.0,0.0,0.0,0.0,-3.433,-3.4247,-3.4899,0.0,0.0,0.0,0.0,-3.7495,-3.6958,0.0,0.0,0.0,0.0,0.0,0.0,0.0,0.0,0.0,0.0,0.0,0.0,0.0,0.0,0.0,0.0,0.0,0.0,0.0,0.0,0.0,0.0,0.0,0.0,0.0,0.0,0.0,0.0,0.0,0.0,0.0,0.0,0.0,0.0,0.0,0.0,0.0,0.0,0.0,0.0,0.0,0.0,0.0,0.0,0.0,0.0,0.0,0.0,0.0,0.0,0.0,0.0,0.0,0.0,0.0,0.0,-3.6146,-3.7881,-3.891,-3.9231,-3.99,-3.9972,-3.9372,-3.9147,-3.7978,0.0,0.0,0.0,0.0,0.0,0.0,0.0,0.0,0.0,0.0,0.0,0.0,0.0,0.0,0.0,0.0,0.0,0.0,0.0,0.0,0.0,0.0,0.0,0.0,0.0,0.0,0.0,0.0,0.0,0.0,0.0,0.0,0.0,0.0,0.0,0.0,0.0,0.0,0.0,0.0,0.0,-3.5027,-3.5346,-3.5749,-3.6327,0.0,0.0,-3.7679,-3.7991,-3.7778,0.0,0.0,0.0,0.0,0.0,0.0,0.0,0.0,0.0,0.0,0.0,0.0,0.0,0.0,0.0,0.0,0.0,0.0,0.0,0.0,0.0,0.0,0.0,0.0,0.0,0.0,0.0,0.0,0.0,0.0,0.0,0.0,0.0,0.0,0.0,0.0,0.0,0.0,0.0,0.0,0.0,0.0,0.0,0.0,0.0,0.0,0.0,0.0,0.0,0.0,0.0,0.0,0.0,0.0,0.0,-3.4848,-3.6151,-3.7635,-3.8649,-3.9199,-3.9639,-3.954,-3.8852,-3.8762,-3.7628,0.0,0.0,0.0,0.0,0.0,0.0,0.0,0.0,0.0,0.0,0.0,0.0,0.0,0.0,0.0,0.0,0.0,0.0,0.0,0.0,0.0,0.0,0.0,0.0,0.0,0.0,0.0,0.0,0.0,0.0,0.0,0.0,0.0,0.0,0.0,0.0,0.0,0.0,0.0,0.0,0.0,0.0,-3.5068,-3.5675,0.0,0.0,0.0,-3.8116,-3.839,0.0,0.0,0.0,0.0,0.0,0.0,0.0,0.0,0.0,0.0,0.0,0.0,0.0,0.0,0.0,0.0,0.0,0.0,0.0,0.0,0.0,0.0,0.0,0.0,0.0,0.0,0.0,0.0,0.0,0.0,0.0,0.0,0.0,0.0,0.0,0.0,0.0,0.0,0.0,0.0,0.0,0.0,0.0,0.0,0.0,0.0,0.0,0.0,0.0,0.0,0.0,0.0,0.0,0.0,0.0,0.0,0.0,-3.6107,-3.7258,-3.8256,-3.9085,-3.9497,-3.9359,-3.8686,-3.8498,0.0,0.0,0.0,0.0,0.0,0.0,0.0,0.0,0.0,0.0,0.0,0.0,0.0,0.0,0.0,0.0,0.0,0.0,0.0,0.0,0.0,0.0,0.0,0.0,0.0,0.0,0.0,-2.5105,0.0,0.0,0.0,0.0,0.0,0.0,0.0,0.0,0.0,0.0,0.0,0.0,0.0,0.0,-3.3841,-3.4407,-3.5168,-3.598,0.0,0.0,-3.7853,-3.8311,-3.7575,-3.6803,0.0,0.0,0.0,0.0,0.0,0.0,0.0,0.0,0.0,0.0,0.0,0.0,0.0,0.0,0.0,0.0,0.0,0.0,0.0,0.0,0.0,0.0,0.0,0.0,0.0,0.0,0.0,0.0,0.0,0.0,0.0,0.0,0.0,0.0,0.0,0.0,0.0,0.0,0.0,0.0,0.0,0.0,0.0,0.0,0.0,0.0,0.0,0.0,0.0,0.0,0.0,0.0,0.0,0.0,-3.4424,-3.5906,-3.6918,-3.7937,-3.8907,-3.9722,-3.991,-3.9419,-3.8802,-3.7657,0.0,0.0,0.0,0.0,0.0,0.0,0.0,0.0,0.0,0.0,0.0,0.0,0.0,0.0,0.0,0.0,0.0,0.0,0.0,0.0,0.0,0.0,0.0,0.0,0.0,0.0,0.0,0.0,0.0,0.0,0.0,0.0,0.0,0.0,0.0,0.0,0.0,0.0,0.0,0.0,0.0,-3.3082,-3.3604,-3.4101,-3.5062,0.0,-3.6653,-3.6599,-3.7373,-3.6815,-3.5921,-3.4993,0.0,0.0,0.0,0.0,0.0,0.0,0.0,0.0,0.0,0.0,0.0,0.0,0.0,0.0,0.0,0.0,0.0,0.0,0.0,0.0,0.0,0.0,0.0,0.0,0.0,0.0,0.0,0.0,0.0,0.0,0.0,0.0,0.0,0.0,0.0,0.0,0.0,0.0,0.0,0.0,0.0,0.0,0.0,0.0,0.0,0.0,0.0,0.0,0.0,0.0,0.0,0.0,0.0,-3.4289,-3.5753,-3.6769,-3.7735,-3.8616,-3.9209,-3.9228,-3.8667,-3.8515,-3.7496,0.0,0.0,0.0,0.0,0.0,0.0,0.0,0.0,0.0,0.0,0.0,0.0,0.0,0.0,0.0,0.0,0.0,0.0,0.0,0.0,0.0,0.0,0.0,0.0,0.0,0.0,0.0,0.0,-2.5528,-2.5685,-2.6108,0.0,0.0,0.0,0.0,0.0,0.0,0.0,0.0,0.0,0.0,-3.2228,-3.2776,-3.354,0.0,0.0,-3.5999,-3.6228,-3.6174,-3.5851,-3.5241,-3.4239,-3.3771,0.0,0.0,0.0,0.0,0.0,0.0,0.0,0.0,0.0,0.0,0.0,0.0,0.0,0.0,0.0,0.0,0.0,0.0,0.0,0.0,0.0,0.0,0.0,0.0,0.0,0.0,0.0,0.0,0.0,0.0,0.0,0.0,0.0,0.0,0.0,0.0,0.0,0.0,0.0,0.0,0.0,0.0,0.0,0.0,0.0,0.0,0.0,0.0,0.0,0.0,0.0,0.0,-3.3984,-3.5243,-3.6199,-3.7126,-3.8023,-3.8389,-3.8392,-3.8061,-3.7978,-3.7151,0.0,0.0,0.0,0.0,0.0,0.0,0.0,0.0,0.0,0.0,0.0,0.0,0.0,0.0,0.0,0.0,0.0,0.0,0.0,0.0,0.0,0.0,0.0,0.0,0.0,0.0,0.0,0.0,-2.5527,-2.5547,-2.5858,0.0,0.0,0.0,0.0,0.0,0.0,0.0,0.0,0.0,0.0,-3.1291,-3.1892,-3.2739,-3.3583,-3.4349,-3.4958,-3.5251,-3.5055,-3.4736,-3.4274,-3.3498,0.0,0.0,0.0,0.0,0.0,0.0,0.0,0.0,0.0,0.0,0.0,0.0,0.0,0.0,0.0,0.0,0.0,0.0,0.0,0.0,0.0,0.0,0.0,0.0,0.0,0.0,0.0,-3.0493,0.0,0.0,-2.9793,0.0,0.0,0.0,0.0,0.0,0.0,0.0,0.0,0.0,0.0,0.0,0.0,0.0,0.0,0.0,0.0,0.0,0.0,0.0,0.0,0.0,0.0,-3.3407,-3.4248,-3.5071,-3.5922,-3.6908,-3.7197,-3.7505,-3.7843,-3.7267,-3.6633,-3.5928,0.0,0.0,0.0,0.0,0.0,0.0,0.0,0.0,0.0,0.0,0.0,0.0,0.0,0.0,0.0,0.0,0.0,0.0,0.0,0.0,0.0,0.0,0.0,0.0,0.0,0.0,-2.6352,-2.6057,-2.5849,0.0,0.0,0.0,0.0,0.0,0.0,0.0,0.0,0.0,-2.956,-2.9872,-3.0284,-3.0911,-3.1549,-3.2361,-3.3501,-3.3357,-3.3332,-3.3987,-3.3504,-3.2942,0.0,0.0,0.0,0.0,0.0,0.0,0.0,0.0,0.0,0.0,0.0,0.0,0.0,0.0,0.0,0.0,0.0,0.0,0.0,0.0,0.0,0.0,0.0,0.0,0.0,0.0,0.0,-3.0079,-2.9922,0.0,0.0,0.0,0.0,0.0,0.0,0.0,0.0,0.0,0.0,0.0,-3.1134,-3.0581,0.0,0.0,0.0,0.0,0.0,0.0,0.0,0.0,0.0,0.0,0.0,0.0,-3.317,-3.3939,-3.4794,-3.5439,-3.5884,-3.627,-3.6508,-3.6612,-3.6729,-3.6019,-3.4461,0.0,0.0,0.0,0.0,0.0,0.0,0.0,0.0,0.0,0.0,0.0,0.0,0.0,0.0,0.0,0.0,0.0,0.0,0.0,0.0,0.0,0.0,0.0,0.0,0.0,-2.599,0.0,0.0,0.0,0.0,0.0,0.0,0.0,0.0,0.0,0.0,0.0,-2.8287,-2.8675,-2.8885,-2.9251,-2.9964,-3.0405,-3.0925,0.0,0.0,0.0,0.0,0.0,0.0,0.0,0.0,0.0,0.0,0.0,0.0,0.0,0.0,-3.1292,-3.1611,-3.1402,-3.1252,-3.1481,0.0,0.0,0.0,0.0,0.0,0.0,0.0,0.0,0.0,0.0,0.0,0.0,0.0,0.0,-2.9897,0.0,-2.9734,0.0,0.0,0.0,0.0,0.0,0.0,0.0,0.0,-3.1019,-3.1031,-3.1064,-3.0485,-3.0208,0.0,-2.9484,-2.9206,0.0,0.0,0.0,0.0,0.0,0.0,0.0,0.0,-3.2752,-3.325,-3.411,-3.4605,-3.4799,-3.5182,-3.5426,-3.5535,-3.5706,-3.5141,-3.3699,-3.2694,-3.1231,0.0,0.0,0.0,0.0,0.0,0.0,0.0,0.0,0.0,0.0,0.0,0.0,0.0,0.0,0.0,0.0,0.0,0.0,0.0,0.0,0.0,0.0,0.0,-2.517,0.0,0.0,0.0,0.0,0.0,0.0,0.0,0.0,0.0,-2.6871,-2.7175,-2.7377,-2.7696,-2.7927,-2.8274,-2.8967,0.0,0.0,0.0,0.0,0.0,0.0,0.0,-3.0778,-3.0718,-3.0703,-3.0628,-3.0478,-3.0403,-3.0326,-3.0326,0.0,0.0,-3.1146,-3.1249,-3.1307,-3.1525,-3.1209,-3.0979,-3.1258,-3.0426,-2.971,0.0,0.0,0.0,0.0,0.0,0.0,0.0,0.0,-3.0559,-3.0433,0.0,-2.993,0.0,0.0,0.0,0.0,-2.9425,-2.9811,0.0,0.0,-3.0497,-3.04,-3.0161,-2.9876,-2.9745,-2.9724,-2.9702,-2.967,-2.9688,-2.9443,0.0,0.0,0.0,0.0,0.0,0.0,-3.2193,-3.2311,-3.3038,-3.3492,-3.3705,-3.3972,-3.4295,-3.466,-3.431,-3.3979,-3.3712,-3.2147,-3.1026,-3.0558,-2.9488,0.0,0.0,0.0,0.0,0.0,0.0,0.0,0.0,0.0,0.0,0.0,0.0,0.0,0.0,0.0,0.0,0.0,0.0,0.0,0.0,-2.4504,0.0,0.0,0.0,0.0,0.0,0.0,0.0,0.0,0.0,0.0,-2.5943,-2.6129,-2.6302,-2.6611,0.0,0.0,0.0,0.0,-2.8917,-2.9348,-2.9597,-2.9721,-2.9735,-2.9858,-2.9889,-2.9777,0.0,0.0,-2.9777,-2.9747,-2.9747,-2.9777,-2.9747,-2.9976,-3.0612,-3.0895,-3.1043,-3.1073,-3.1161,-3.1321,-3.1375,-3.0603,-3.0086,-3.1943,0.0,0.0,0.0,0.0,-3.0439,-3.0594,-3.0773,-3.0367,-3.0167,-2.9966,-2.9426,0.0,0.0,0.0,0.0,0.0,0.0,-2.9934,-3.0372,-3.0535,-3.0601,-3.0606,-3.051,-3.0334,-3.0046,-2.9694,-2.963,-2.9669,-2.9435,-2.9631,-3.0239,0.0,0.0,0.0,0.0,-3.23,-3.2913,-3.3297,-3.3494,-3.3527,-3.3784,-3.3953,-3.4056,-3.3777,-3.3373,-3.2867,-3.2393,-3.1467,-3.0049,-2.9517,0.0,0.0,0.0,0.0,0.0,0.0,0.0,0.0,0.0,0.0,0.0,0.0,0.0,0.0,0.0,0.0,0.0,0.0,0.0,-2.3534,-2.3313,-2.3139,0.0,0.0,0.0,0.0,0.0,0.0,0.0,0.0,0.0,-2.4082,-2.4719,-2.5288,0.0,0.0,-2.6242,-2.6778,-2.7304,-2.7769,-2.8019,-2.8325,0.0,-2.85,-2.8565,-2.8565,-2.8514,-2.8675,-2.8803,-2.8739,-2.8835,-2.8926,-2.8958,-2.904,-2.9216,-2.9526,-3.0113,-3.0538,-3.0732,-3.0851,-3.0822,-3.0538,-3.0048,-2.9626,-3.2578,-3.2051,-3.1034,-3.0608,-3.0618,-3.0555,-3.0661,-3.0799,-3.037,-3.014,-3.0129,-2.9704,-2.9424,-2.9258,-2.9258,0.0,0.0,0.0,-3.0074,-3.0319,-3.0478,-3.0581,-3.0605,-3.0625,-3.0529,-3.0245,-2.9819,-2.9634,-2.9704,-2.9414,-2.9495,-3.009,0.0,0.0,-3.132,-3.153,-3.1868,-3.2418,-3.2665,-3.284,-3.2921,-3.3119,-3.3177,-3.3105,-3.2963,-3.2618,-3.2214,-3.1923,-3.1323,-3.0195,-2.9607,-2.8785,0.0,0.0,0.0,0.0,0.0,0.0,0.0,0.0,0.0,0.0,0.0,-2.3629,-2.3409,0.0,0.0,0.0,-2.2927,-2.2777,-2.2542,-2.2402,0.0,0.0,0.0,0.0,0.0,0.0,0.0,-2.2365,-2.244,-2.259,-2.2703,-2.3276,-2.3913,-2.4623,-2.5004,-2.5347,-2.5791,0.0,-2.6539,-2.6833,-2.7035,-2.7196,-2.7263,-2.733,-2.743,-2.7577,-2.7709,-2.7762,-2.7796,-2.7941,-2.8052,-2.8072,-2.8235,-2.8449,-2.8638,-2.9121,-2.9654,-3.0113,-3.0169,-3.0074,-2.9799,-2.9335,-2.8889,-3.3477,-3.2955,-3.1251,-3.0529,-3.0545,-3.0515,-3.0495,-3.0495,-3.0465,-3.0444,-3.0444,-3.0359,-3.0284,-3.0284,-3.0339,0.0,-2.9683,-3.0148,-3.0339,-3.0389,-3.0379,-3.0409,-3.0384,-3.0394,-3.0364,-3.0314,-2.9988,-2.9812,-2.9721,-2.932,-2.9268,-2.9586,-3.0124,-3.0433,-3.053,-3.0968,-3.1199,-3.1199,-3.151,-3.1798,-3.1966,-3.2181,-3.2148,-3.1898,-3.1839,-3.176,-3.1528,-3.0993,-3.0706,-3.0678,-2.9702,-2.8733,-2.7818,0.0,0.0,0.0,0.0,0.0,0.0,0.0,0.0,0.0,0.0,0.0,0.0,0.0,0.0,0.0,-2.1852,0.0,-2.1758,-2.1768,0.0,0.0,0.0,-2.1734,-2.1703,-2.1693,-2.1693,-2.1683,0.0,0.0,-2.1731,-2.1911,-2.244,-2.3556,-2.4105,-2.4515,-2.4838,-2.5087,-2.5335,-2.5744,-2.5791,-2.5884,-2.6082,-2.6208,-2.6402,-2.6722,-2.6871,-2.6905,-2.6892,-2.6994,-2.7095,-2.7162,-2.743,-2.7709,-2.7875,-2.8019,-2.8382,-2.9132,-2.9249,-2.9109,-2.891,-2.845,-2.8045,-3.2981,-3.2824,-3.2096,-3.182,-3.188,-3.1606,-3.1476,-3.1435,-3.0897,-3.0645,-3.0558,-2.9773,-2.9402,-2.9402,-2.9682,-2.9734,-2.9636,-2.9734,-2.9961,-3.0266,-3.0276,-3.0282,-3.0422,-3.0364,-3.0266,-2.9964,-2.9857,-2.9692,-2.952,-2.9391,-2.9323,-2.9237,-2.9381,-2.9787,-3.0404,-3.0925,-3.1168,-3.1196,-3.1471,-3.1622,-3.1672,-3.1566,-3.1267,-3.0869,-3.0676,-3.0467,-3.025,-3.0112,-2.996,-2.9734,-2.9164,-2.8426,-2.7481,-2.6549,0.0,0.0,0.0,0.0,0.0,0.0,0.0,0.0,0.0,-2.1721,-2.1357,0.0,-2.1342,0.0,-2.1338,-2.1421,-2.1267,-2.144,0.0,0.0,-2.1124,-2.1007,-2.0693,-2.0799,-2.0848,-2.0693,-2.0915,-2.1098,-2.1098,-2.1415,-2.1731,-2.2063,-2.2804,-2.3471,-2.3886,-2.4227,-2.4551,-2.4767,-2.4898,-2.5004,-2.5063,-2.5217,-2.5358,-2.5464,-2.5721,-2.5955,-2.5943,-2.607,-2.6277,-2.6393,-2.6508,-2.6667,-2.6926,-2.6865,-2.6798,-2.7135,-2.7822,-2.814,-2.7293,-2.7272,-2.7331,-3.3076,-3.3037,-3.2617,-3.2478,-3.2574,-3.2157,-3.18,-3.1407,-3.1005,-3.0635,-3.0325,-2.9748,-2.947,-2.946,-2.9632,-2.9804,-2.9975,-2.9975,-3.0092,-3.0258,-3.0315,-3.0219,-3.0216,-3.0157,-3.0033,-2.9872,-2.969,-2.9583,-2.9577,-2.9196,-2.8981,-2.8995,-2.8977,-2.9079,-2.9501,-3.013,-3.0484,-3.0474,-3.0754,-3.0858,-3.0847,-3.0756,-3.0385,-2.9856,-2.971,-2.9434,-2.9024,-2.8991,-2.8973,-2.8957,-2.8467,-2.7833,-2.702,-2.6159,-2.5091,0.0,0.0,0.0,0.0,0.0,0.0,0.0,0.0,0.0,0.0,0.0,-2.0731,-2.0608,-2.0749,-2.0806,-2.0806,-2.0931,-2.0921,-2.0686,-2.0667,-2.0548,-2.0163,-2.0226,-2.0189,-2.0019,-2.0177,-2.0372,-2.044,-2.076,-2.0964,-2.0964,-2.152,-2.2155,-2.2815,-2.3202,-2.346,-2.3644,-2.3815,-2.3961,-2.4034,-2.4263,-2.4419,-2.4527,-2.4718,-2.4862,-2.4969,-2.5135,-2.5323,-2.5511,-2.5629,-2.5706,-2.5828,-2.569,-2.5506,-2.5358,-2.5814,-2.6152,-2.6009,-2.613,-2.6148,-3.3418,-3.3389,-3.3027,-3.2871,-3.2789,-3.2429,-3.1859,-3.1084,-3.0967,-3.0539,-2.9872,-2.9872,-2.9863,-2.9863,-2.9872,-3.0098,-3.0323,-3.0333,-3.0333,-3.0323,-3.0333,-3.0157,-2.9863,-2.9863,-2.9863,-2.9853,-2.9513,-2.9488,-2.969,-2.897,-2.8687,-2.8884,-2.8751,-2.8545,-2.8315,-2.901,-2.9447,-2.9554,-2.9722,-2.9837,-2.9827,-2.9784,-2.9436,-2.8859,-2.8796,-2.8506,-2.7899,-2.7857,-2.7998,-2.8186,-2.7725,-2.7139,-2.6499,-2.5779,-2.4597,0.0,-2.2193,0.0,0.0,0.0,0.0,0.0,0.0,0.0,0.0,-2.0328,-2.0256,-2.031,-2.0157,-2.0157,-2.031,-2.0352,-2.0377,-2.0331,-2.0331,-2.0159,-1.9834,-1.977,-1.9697,-1.9485,-1.9527,-1.9597,-1.9784,-2.0029,-2.0186,-2.0177,-2.0333,-2.0789,-2.1558,-2.2025,-2.2327,-2.2515,-2.274,-2.2916,-2.3065,-2.3298,-2.3482,-2.3666,-2.374,-2.3813,-2.4007,-2.4166,-2.4371,-2.4492,-2.4601,-2.4661,-2.4601,-2.4534,-2.4265,-2.3705,-2.3766,-2.4131,-2.4889,-2.5054,-2.499,-3.3418,-3.3418,-3.333,-3.3112,-3.2859,-3.2792,-3.231,-3.1447,-3.086,-3.0241,-2.9636,-2.9804,-2.9804,-2.9627,-2.9804,-2.9931,-2.9981,-2.9981,-2.999,-2.999,-2.9981,-2.9863,-2.9627,-2.9568,-2.9558,-2.9558,-2.9493,-2.9463,-2.9373,-2.9212,-2.8965,-2.868,-2.8595,-2.8441,-2.8108,0.0,0.0,0.0,-2.9026,-2.8963,-2.8963,-2.8708,-2.8344,-2.7733,-2.7693,0.0,-2.715,-2.7088,-2.7183,-2.741,-2.6749,0.0,0.0,0.0,0.0,0.0,0.0,0.0,0.0,0.0,0.0,0.0,-1.9385,-1.9493,-1.9393,-1.9462,-1.9603,-1.9737,-1.9861,-1.9943,-1.9988,-2.0204,-2.0181,-1.9886,-1.9843,-1.9627,-1.9167,-1.9103,-1.9044,-1.8905,-1.9011,-1.9112,-1.9152,-1.935,-1.9499,-1.9469,-1.9539,-1.9618,-1.9805,-2.076,-2.1502,-2.1693,-2.1911,-2.2025,-2.2111,-2.2252,-2.2429,-2.2628,-2.2815,-2.2979,-2.3165,-2.3217,-2.3338,-2.35,-2.3401,-2.3346,-2.3455,-2.3082,-2.2718,-2.2645,-2.2468,-2.2622,-2.3697,-2.4122,-2.435,-3.3038,-3.2921,-3.2921,-3.2794,0.0,-3.2485,-3.2121,-3.1706,-3.1147,-3.0377,-2.9559,-2.9483,-2.939,-2.9272,-2.939,-2.9568,-2.9677,-2.9686,-2.9686,-2.9686,-2.9686,-2.9568,-2.9281,-2.9281,-2.9272,-2.9281,-2.9272,-2.9288,-2.9376,-2.9169,-2.903,-2.8937,-2.8738,-2.8511,-2.8304,-2.8086,-2.8103,-2.8281,-2.8111,-2.8057,-2.8057,-2.7916,-2.7608,-2.7137,-2.6894,0.0,0.0,0.0,0.0,0.0,0.0,0.0,0.0,-2.4136,0.0,-2.2481,-2.1595,-2.0838,-2.0316,-1.9657,-1.9136,-1.8894,-1.8729,-1.876,-1.8937,-1.8942,-1.8993,-1.918,-1.9196,-1.9242,-1.9333,-1.9608,-1.9662,-1.9487,-1.9577,-1.9417,-1.8812,-1.871,-1.8564,-1.8273,-1.8313,-1.8393,-1.8523,-1.8554,-1.8674,-1.8674,-1.8674,-1.8674,-1.8794,-1.9745,-2.0644,-2.0992,-2.1146,-2.1185,-2.1223,-2.1262,-2.1482,-2.1711,-2.1713,-2.1765,-2.2073,-2.1907,-2.182,-2.2017,-2.2037,-2.2006,-2.1883,-2.1677,-2.1539,-2.1518,-2.1383,-2.1514,-2.2353,-2.2962,-2.3442,-3.2734,-3.2422,-3.2422,-3.2358,-3.2294,-3.2038,-3.1855,-3.1763,0.0,0.0,0.0,-2.9232,-2.9048,-2.8984,-2.8984,-2.9153,-2.939,-2.9381,-2.939,-2.939,-2.945,-2.9272,-2.8984,-2.8984,-2.8984,-2.8984,-2.8984,-2.9163,-2.9372,-2.9046,-2.8946,-2.9218,-2.885,-2.8606,-2.8437,-2.8033,-2.7674,-2.7288,-2.7323,-2.7314,-2.7323,-2.7269,-2.7072,-2.6729,-2.6357,-2.5932,-2.5456,-2.505,-2.4784,-2.4784,-2.4686,-2.438,-2.3821,-2.3183,-2.2487,-2.1667,-2.0727,-2.0069,-1.9775,-1.9115,-1.8659,-1.855,-1.8183,-1.8172,-1.8643,-1.8542,-1.8496,-1.8643,-1.8542,-1.8496,-1.8635,-1.8874,-1.9004,-1.9004,-1.9204,-1.9056,-1.8414,-1.83,-1.8091,-1.7696,-1.761,-1.7659,-1.787,-1.7919,-1.791,-1.7878,-1.7959,-1.791,-1.8072,-1.8944,-1.9854,-2.0245,-2.0333,-2.0362,-2.0352,-2.0265,-2.042,-2.0718,-2.0484,-2.0373,-2.0692,-2.0555,-2.039,-2.0636,-2.0709,-2.0652,-2.0484,-2.0493,-2.0565,-2.0455,-2.041,-2.0571,-2.1103,-2.1733,-2.2353,-3.2734,-3.2422,-3.2422,-3.223,-3.1983,-3.1919,-3.1717,-3.1479,-3.1028,-3.0394,-2.9632,-2.9577,-2.9305,-2.8984,-2.8984,-2.9035,-2.9044,-2.9044,-2.9103,-2.9103,-2.9035,-2.9044,-2.8984,-2.8984,-2.8984,-2.8984,-2.8984,-2.9035,-2.9035,-2.8979,-2.9011,-2.9011,-2.8965,-2.8578,-2.7963,-2.7539,-2.7087,-2.67,-2.6944,-2.7043,-2.7043,-2.6845,-2.665,-2.6455,-2.6054,-2.5633,-2.5153,-2.4743,-2.443,-2.4223,-2.3786,-2.3461,-2.3358,-2.2432,-2.1719,-2.1358,-2.0538,-1.993,-1.9629,-1.9273,-1.8806,-1.8278,-1.7759,-1.7613,-1.8133,-1.8179,-1.8179,-1.8179,-1.8179,-1.8179,-1.8179,-1.8265,-1.8272,-1.8265,-1.8319,-1.8094,-1.7647,-1.7597,-1.7509,-1.7188,-1.718,-1.7253,-1.7392,-1.7432,-1.7432,-1.7473,-1.7432,-1.7514,-1.774,-1.8376,-1.8975,-1.9371,-1.946,-1.9499,-1.9471,-1.9193,-1.9199,-1.9497,-1.9286,-1.9145,-1.9584,-1.9538,-1.9495,-1.9709,-1.9576,-1.9508,-1.9579,-1.9484,-1.951,-1.966,-1.9726,-1.9857,-2.0226,-2.0688,-2.123,-3.2403,-3.1855,-3.1836,-3.1772,-3.1653,-3.1644,-3.1451,-3.1111,-3.0938,-3.0538,-2.9912,-2.9353,-2.8943,-2.8763,-2.8538,-2.8567,-2.8755,-2.8696,-2.8806,-2.8984,-2.8984,-2.8984,-2.8984,-2.8984,-2.8984,-2.8984,-2.8984,-2.8984,-2.8984,-2.8984,-2.8984,-2.8984,-2.8984,-2.8682,-2.8122,-2.7701,-2.7306,-2.6912,-2.6847,-2.6791,-2.6791,-2.6691,-2.649,-2.6235,-2.5702,-2.5167,-2.4802,-2.4002,-2.3529,-2.3229,-2.287,-2.2526,-2.2224,-2.1623,-2.1121,-2.0865,-2.0205,-1.977,-1.966,-1.9035,-1.8461,-1.8045,-1.757,-1.738,-1.7652,-1.766,-1.766,-1.766,-1.766,-1.766,-1.766,-1.7807,-1.7908,-1.7908,-1.7994,-1.785,-1.7349,-1.7247,-1.7071,-1.6666,-1.6574,-1.6574,-1.6664,-1.6705,-1.6705,-1.6705,-1.6697,-1.6779,-1.6968,-1.7245,-1.7732,-1.8385,-1.8594,-1.8594,-1.8567,-1.8298,-1.8231,-1.8572,-1.8136,-1.8008,-1.825,-1.8235,-1.8145,-1.8257,-1.8259,-1.8335,-1.8498,-1.852,-1.866,-1.8931,-1.8988,-1.9154,-1.9551,-1.9955,-2.0592,-3.2097,-3.1377,-3.1377,-3.1377,-3.1377,-3.1377,-3.1184,-3.087,-3.0806,-3.0579,-3.0084,-2.9155,-2.8702,-2.8526,-2.8197,-2.814,-2.8337,-2.8397,-2.8517,-2.8737,-2.8797,-2.8806,-2.8737,-2.8797,-2.8806,-2.8797,-2.8746,-2.8746,-2.8797,-2.8746,-2.8797,-2.8806,-2.8737,-2.8546,-2.8164,-2.7803,-2.7402,-2.702,-2.661,-2.6418,-2.6473,-2.6482,-2.6354,-2.5972,-2.5298,-2.4727,-2.4316,-2.3338,-2.2627,-2.2224,-2.1971,-2.1623,-2.113,-2.0814,-2.0565,-2.0308,-1.9835,-1.9472,-1.9383,-1.8614,-1.7999,-1.7746,-1.7363,-1.7145,-1.7145,-1.7145,-1.7185,-1.7286,-1.7333,-1.7333,-1.7326,-1.7481,-1.7628,-1.7621,-1.7761,-1.7613,-1.7069,-1.6932,-1.6726,-1.6141,-1.6004,-1.6046,-1.6087,-1.6136,-1.6136,-1.6177,-1.6136,-1.617,-1.6319,-1.6319,-1.673,-1.7261,-1.7627,-1.7649,-1.7599,-1.7341,-1.7273,-1.7552,-1.7024,-1.6865,-1.6991,-1.6837,-1.6797,-1.7014,-1.7135,-1.7307,-1.7486,-1.7691,-1.793,-1.8182,-1.8307,-1.8519,-1.8988,-1.944,-2.0085,-3.214,-3.1423,-3.1377,-3.1377,-3.1377,-3.1377,-3.1184,-3.0879,-3.0564,-3.0222,-2.9795,-2.9356,-2.8951,-2.8605,-2.8154,-2.8037,-2.8029,-2.802,-2.808,-2.808,-2.808,-2.808,-2.814,-2.808,-2.808,-2.808,-2.814,-2.814,-2.8131,-2.8131,-2.8071,-2.808,-2.808,-2.7893,-2.7511,-2.7187,-2.6786,-2.6403,-2.6002,-2.5907,-2.6127,-2.6127,-2.6017,-2.5734,-2.4978,-2.4289,-2.3789,-2.298,-2.2173,-2.1471,-2.1173,-2.0873,-2.0565,-2.0094,-1.9783,-1.9732,-1.9279,-1.8862,-1.8537,-1.7957,-1.7584,-1.7478,-1.6999,-1.6683,-1.6676,-1.6683,-1.6864,-1.7145,-1.7286,-1.7286,-1.7286,-1.7333,-1.7333,-1.7279,-1.7333,-1.7123,-1.6603,-1.6455,-1.6292,-1.5816,-1.5741,-1.5824,-1.6004,-1.6046,-1.6053,-1.6012,-1.6012,-1.6053,-1.6087,-1.6087,-1.6098,-1.6312,-1.6558,-1.666,-1.6485,-1.6233,-1.6171,-1.6067,-1.5814,-1.5774,-1.5928,-1.5981,-1.6009,-1.6263,-1.6412,-1.6551,-1.6855,-1.7141,-1.7314,-1.7467,-1.7672,-1.7944,-1.8452,-1.8898,-1.9551,-3.212,-3.1387,-3.1377,-3.1377,-3.1377,-3.1193,-3.0944,-3.0555,-3.0222,-2.9822,-2.9509,-2.9145,-2.8774,-2.8321,-2.7921,-2.7748,-2.7711,-2.7702,-2.784,-2.796,-2.8011,-2.8011,-2.8011,-2.8011,-2.8011,-2.8011,-2.8011,-2.8011,-2.8011,-2.8011,-2.8011,-2.8011,-2.8011,-2.788,-2.7745,-2.7168,-2.6844,-2.6667,-2.6007,-2.5679,-2.556,-2.5789,-2.5627,-2.5098,-2.4429,-2.3703,-2.3105,-2.21,-2.1428,-2.107,-2.066,-2.03,-2.0042,-1.9687,-1.9376,-1.9227,-1.8855,-1.8457,-1.8163,-1.7743,-1.7421,-1.7253,-1.6833,-1.6588,-1.6588,-1.6588,-1.6676,-1.6864,-1.6911,-1.6864,-1.6911,-1.6911,-1.6864,-1.6857,-1.6911,-1.6707,-1.6232,-1.616,-1.5995,-1.5575,-1.5541,-1.5541,-1.5631,-1.5673,-1.5673,-1.5673,-1.5673,-1.568,-1.5673,-1.568,-1.5584,-1.5468,-1.5538,-1.5696,-1.5745,-1.5451,-1.5267,-1.5202,-1.5025,-1.4935,-1.5062,-1.5213,-1.5355,-1.563,-1.5744,-1.5885,-1.6184,-1.6403,-1.6586,-1.6786,-1.7235,-1.7613,-1.7808,-1.8259,-1.8821,-3.212,-3.1433,-3.1377,-3.1377,-3.1377,-3.1064,-3.0694,-3.0369,-2.9952,-2.9626,-2.9282,-2.9033,-2.8708,-2.8314,-2.7835,-2.7529,-2.7435,-2.7409,-2.753,-2.7719,-2.7779,-2.7668,-2.7659,-2.7599,-2.753,-2.747,-2.747,-2.753,-2.7599,-2.7719,-2.7728,-2.7719,-2.7788,-2.7728,-2.764,-2.7015,-2.657,-2.6442,-2.5751,-2.5191,-2.4906,-2.5072,-2.4954,-2.4473,-2.3809,-2.3117,-2.2399,-2.1417,-2.0814,-2.0557,-2.0181,-1.9828,-1.9524,-1.9272,-1.9018,-1.866,-1.8436,-1.8133,-1.7777,-1.7479,-1.7182,-1.6877,-1.6573,-1.6393,-1.64,-1.6393,-1.6393,-1.6346,-1.6393,-1.6393,-1.6588,-1.6588,-1.6588,-1.6588,-1.6588,-1.6429,-1.5993,-1.5938,-1.574,-1.5295,-1.5166,-1.5208,-1.5208,-1.5215,-1.5208,-1.5215,-1.5208,-1.5157,-1.5107,-1.5063,-1.4969,-1.4666,-1.4609,-1.4757,-1.5065,-1.4866,-1.4591,-1.4519,-1.4413,-1.4397,-1.4461,-1.4613,-1.4764,-1.4991,-1.5106,-1.5284,-1.5524,-1.5709,-1.5956,-1.6202,-1.6647,-1.7063,-1.7097,-1.7613,-1.8056,-3.2111,-3.1423,-3.1377,-3.1377,-3.1377,-3.1,-3.0694,-3.0369,-2.9952,-2.9626,-2.9307,-2.9282,-2.9085,-2.8682,-2.7963,-2.7424,-2.7176,-2.7133,-2.7133,-2.7194,-2.7133,-2.6943,-2.6692,-2.6631,-2.651,-2.6371,-2.638,-2.6441,-2.6692,-2.7012,-2.7133,-2.7133,-2.7125,-2.7133,-2.703,-2.6378,-2.5827,-2.5567,-2.4924,-2.4312,-2.4024,-2.4024,-2.3961,-2.375,-2.3211,-2.2474,-2.1635,-2.1151,-2.0557,-1.9776,-1.9732,-1.948,-1.9026,-1.8928,-1.866,-1.8122,-1.8023,-1.7775,-1.7302,-1.6968,-1.6666,-1.6377,-1.6081,-1.5872,-1.592,-1.592,-1.592,-1.5872,-1.592,-1.6062,-1.6494,-1.6494,-1.6541,-1.6541,-1.6588,-1.6309,-1.58,-1.573,-1.5385,-1.4951,-1.4797,-1.4824,-1.4783,-1.4734,-1.4776,-1.4783,-1.4776,-1.4705,-1.4536,-1.4437,-1.433,-1.4132,-1.3998,-1.3949,-1.4068,-1.4147,-1.4097,-1.3969,-1.393,-1.4057,-1.4101,-1.4137,-1.4245,-1.4353,-1.4461,-1.4641,-1.4864,-1.5141,-1.5382,-1.57,-1.6017,-1.6298,-1.6333,-1.6959,-1.7398,-3.212,-3.1387,-3.1377,-3.1249,-3.1064,-3.075,-3.0361,-2.9961,-2.9635,-2.9438,-2.9307,-2.9307,-2.9111,-2.8751,-2.8229,-2.7775,-2.7415,-2.6985,-2.6761,-2.6761,-2.6571,-2.638,-2.6319,-2.6266,-2.6258,-2.6136,-2.6075,-2.6136,-2.6258,-2.638,-2.6449,-2.6449,-2.6449,-2.6449,-2.6315,-2.5712,-2.5294,-2.5103,-2.4463,-2.4033,-2.3865,-2.3528,-2.3238,-2.2938,-2.2519,-2.19,-2.1167,-2.0465,-1.9983,-1.9672,-1.9376,-1.9123,-1.8869,-1.8548,-1.8174,-1.7799,-1.7747,-1.7479,-1.6991,-1.6767,-1.6493,-1.6046,-1.5899,-1.5825,-1.5825,-1.5825,-1.5825,-1.5825,-1.5825,-1.5927,-1.6021,-1.6116,-1.6062,-1.6109,-1.6103,-1.6,-1.573,-1.5573,-1.5334,-1.5069,-1.4831,-1.4692,-1.4692,-1.4692,-1.4692,-1.4692,-1.4692,-1.4629,-1.4531,-1.4419,-1.423,-1.4111,-1.3943,-1.3751,-1.3556,-1.3596,-1.3579,-1.3343,-1.3266,-1.3339,-1.3375,-1.3513,-1.3622,-1.3811,-1.3891,-1.4072,-1.4361,-1.4577,-1.4848,-1.5026,-1.5382,-1.5594,-1.5594,-1.6219,-1.6682,-3.1882,-3.1414,-3.1377,-3.1184,-3.0879,-3.0564,-3.0165,-2.9748,-2.943,-2.9307,-2.9307,-2.9307,-2.917,-2.8888,-2.8353,-2.7932,-2.7563,-2.6929,-2.6571,-2.6449,-2.6197,-2.5953,-2.5831,-2.577,-2.5647,-2.5517,-2.5578,-2.5586,-2.5647,-2.5717,-2.577,-2.577,-2.577,-2.5705,-2.5517,-2.4987,-2.4594,-2.4324,-2.3764,-2.3416,-2.3296,-2.2909,-2.2567,-2.2222,-2.176,-2.1323,-2.0701,-2.0051,-1.9635,-1.9428,-1.9078,-1.8824,-1.8608,-1.8122,-1.7799,-1.7635,-1.7589,-1.7321,-1.6807,-1.6707,-1.6453,-1.5899,-1.5825,-1.5825,-1.5825,-1.5825,-1.5825,-1.5825,-1.5825,-1.5825,-1.5825,-1.5825,-1.5825,-1.5825,-1.5825,-1.5712,-1.5616,-1.5364,-1.5106,-1.4847,-1.4606,-1.4503,-1.4489,-1.4496,-1.4489,-1.4489,-1.4489,-1.4468,-1.4338,-1.4186,-1.4027,-1.3958,-1.3822,-1.356,-1.3358,-1.3275,-1.3292,-1.3091,-1.298,-1.29,-1.29,-1.301,-1.3119,-1.3273,-1.3455,-1.3637,-1.3855,-1.4072,-1.4245,-1.4425,-1.4705,-1.4991,-1.5204,-1.5524,-1.5982,-3.1396,-3.1377,-3.1377,-3.1193,-3.0815,-3.0499,-3.0157,-2.9748,-2.9438,-2.9307,-2.9307,-2.9307,-2.929,-2.9071,-2.8183,-2.7718,-2.7504,-2.6837,-2.6266,-2.6075,-2.6014,-2.5647,-2.5103,-2.5103,-2.4787,-2.4355,-2.4487,-2.461,-2.4726,-2.498,-2.5111,-2.5111,-2.5103,-2.4944,-2.4603,-2.4237,-2.3688,-2.3265,-2.2863,-2.2513,-2.2165,-2.2165,-2.202,-2.1643,-2.108,-2.0625,-2.0234,-1.9859,-1.9428,-1.9026,-1.8921,-1.86,-1.8128,-1.7747,-1.7641,-1.7635,-1.7589,-1.7295,-1.68,-1.67,-1.6453,-1.5945,-1.5825,-1.5825,-1.5825,-1.5825,-1.5825,-1.5825,-1.5825,-1.5825,-1.5825,-1.5825,-1.5825,-1.5825,-1.5825,-1.5705,-1.5451,-1.5189,-1.478,-1.4347,-1.4173,-1.413,-1.413,-1.4166,-1.4166,-1.4173,-1.4166,-1.4099,-1.3904,-1.379,-1.352,-1.3407,-1.346,-1.3372,-1.3178,-1.2985,-1.2972,-1.2933,-1.2852,-1.279,-1.2753,-1.2826,-1.2856,-1.2973,-1.3083,-1.3266,-1.3411,-1.363,-1.3739,-1.392,-1.4209,-1.4382,-1.4597,-1.4883,-1.5382,-3.1377,-3.1377,-3.1129,-3.0879,-3.0499,-3.0157,-2.9757,-2.9438,-2.9307,-2.9307,-2.9307,-2.9307,-2.9307,-2.9071,-2.82,-2.7554,-2.7242,-2.6129,-2.548,-2.541,-2.5157,-2.4849,-2.4479,-2.4425,-2.4301,-2.417,-2.4177,-2.4232,-2.4293,-2.4355,-2.4425,-2.4425,-2.4425,-2.4239,-2.3892,-2.3559,-2.3176,-2.2786,-2.2456,-2.2173,-2.2108,-2.1888,-2.1779,-2.1579,-2.0807,-2.0226,-1.9939,-1.961,-1.9242,-1.8876,-1.8698,-1.8325,-1.7799,-1.7641,-1.7589,-1.7589,-1.7589,-1.7328,-1.6807,-1.6687,-1.6404,-1.5972,-1.5825,-1.5825,-1.5825,-1.5825,-1.5825,-1.5825,-1.5825,-1.5825,-1.5825,-1.5825,-1.5825,-1.5825,-1.5825,-1.5738,-1.5598,-1.5237,-1.4723,-1.4222,-1.4088,-1.4088,-1.4088,-1.4088,-1.4088,-1.4088,-1.4088,-1.4021,-1.3948,-1.3733,-1.3713,-1.3788,-1.3621,-1.332,-1.318,-1.2946,-1.2831,-1.274,-1.2617,-1.2606,-1.2606,-1.2599,-1.2636,-1.2673,-1.2783,-1.2893,-1.3046,-1.3156,-1.3302,-1.3339,-1.3513,-1.3659,-1.3848,-1.4238,-1.474,-3.1377,-3.1377,-3.1073,-3.0685,-3.0369,-2.9952,-2.9626,-2.9307,-2.9307,-2.9307,-2.9307,-2.9307,-2.923,-2.8943,-2.8013,-2.736,-2.6862,-2.5544,-2.4857,-2.4734,-2.4541,-2.4232,-2.3922,-2.3798,-2.3736,-2.3736,-2.3728,-2.3736,-2.3736,-2.3736,-2.3728,-2.3736,-2.3736,-2.3495,-2.3104,-2.2856,-2.2556,-2.2128,-2.188,-2.1774,-2.1717,-2.1489,-2.131,-2.1222,-2.0407,-1.9876,-1.9633,-1.9237,-1.8855,-1.86,-1.8272,-1.795,-1.7635,-1.7589,-1.7589,-1.7589,-1.7549,-1.7328,-1.68,-1.67,-1.6453,-1.5965,-1.5825,-1.5825,-1.5825,-1.5825,-1.5825,-1.5825,-1.5825,-1.5825,-1.5825,-1.5825,-1.5825,-1.5825,-1.5825,-1.5732,-1.5531,-1.5197,-1.4774,-1.4269,-1.4088,-1.4088,-1.4088,-1.4088,-1.4088,-1.4088,-1.4088,-1.4088,-1.4055,-1.3928,-1.3988,-1.3955,-1.3666,-1.342,-1.3233,-1.2959,-1.269,-1.2509,-1.2355,-1.2378,-1.2378,-1.2415,-1.2409,-1.2452,-1.2562,-1.2636,-1.2783,-1.282,-1.2893,-1.2893,-1.2966,-1.3185,-1.3477,-1.3666,-1.4137,-3.1377,-3.1313,-3.1009,-3.062,-3.0304,-2.9887,-2.9561,-2.9307,-2.9307,-2.9307,-2.9307,-2.9307,-2.9119,-2.8631,-2.7746,-2.7008,-2.6425,-2.5154,-2.4425,-2.4232,-2.4046,-2.386,-2.3549,-2.33,-2.323,-2.3175,-2.3168,-2.3168,-2.323,-2.323,-2.3106,-2.3168,-2.3153,-2.2798,-2.233,-2.2184,-2.1803,-2.127,-2.1161,-2.1153,-2.1146,-2.0838,-2.0716,-2.0687,-1.9906,-1.9401,-1.9269,-1.8705,-1.8272,-1.801,-1.7799,-1.7641,-1.7589,-1.7589,-1.7589,-1.7589,-1.7589,-1.7301,-1.6887,-1.672,-1.6473,-1.5979,-1.5858,-1.5825,-1.5825,-1.5825,-1.5825,-1.5825,-1.5825,-1.5825,-1.5825,-1.5825,-1.5825,-1.5825,-1.5825,-1.5611,-1.5156,-1.5048,-1.476,-1.4295,-1.4115,-1.4088,-1.4088,-1.4088,-1.4088,-1.4088,-1.4088,-1.4088,-1.4082,-1.4041,-1.4068,-1.3935,-1.368,-1.342,-1.3206,-1.2799,-1.2556,-1.2425,-1.2268,-1.2231,-1.2268,-1.2298,-1.2298,-1.2342,-1.2342,-1.2452,-1.2489,-1.2562,-1.2636,-1.2709,-1.282,-1.2966,-1.3112,-1.3302,-1.3521,-3.1258,-3.1,-3.0694,-3.0287,-2.9952,-2.9569,-2.9373,-2.9307,-2.9307,-2.9307,-2.9307,-2.9307,-2.9093,-2.8687,-2.7666,-2.6983,-2.6276,-2.4944,-2.4232,-2.4046,-2.3549,-2.3355,-2.323,-2.3175,-2.3106,-2.3106,-2.3106,-2.3106,-2.3106,-2.3106,-2.3106,-2.3106,-2.2849,-2.2421,-2.1889,-2.1622,-2.1168,-2.0599,-2.0558,-2.0565,-2.0565,-2.05,-2.0385,-2.0322,-1.9731,-1.9257,-1.8968,-1.8217,-1.7905,-1.7964,-1.7747,-1.7589,-1.7589,-1.7589,-1.7589,-1.7589,-1.7575,-1.7487,-1.7139,-1.6834,-1.6533,-1.6192,-1.5959,-1.5832,-1.5825,-1.5825,-1.5825,-1.5825,-1.5825,-1.5825,-1.5825,-1.5825,-1.5825,-1.5825,-1.5825,-1.5685,-1.5337,-1.5129,-1.4854,-1.4462,-1.4222,-1.4108,-1.4088,-1.4088,-1.4088,-1.4088,-1.4088,-1.4088,-1.4088,-1.4088,-1.4082,-1.3915,-1.3701,-1.3387,-1.3106,-1.2685,-1.2418,-1.2321,-1.2231,-1.212,-1.2194,-1.2261,-1.2268,-1.2305,-1.2268,-1.2305,-1.2342,-1.2378,-1.2452,-1.2562,-1.2562,-1.2636,-1.2709,-1.2856,-1.3046,-3.1064,-3.087,-3.0361,-3.0026,-2.9748,-2.9438,-2.9307,-2.9307,-2.9307,-2.9307,-2.9282,-2.9145,-2.8879,-2.8447,-2.7432,-2.6744,-2.6203,-2.482,-2.4115,-2.3984,-2.3425,-2.3175,-2.3106,-2.3106,-2.3106,-2.3106,-2.3106,-2.3106,-2.3043,-2.2981,-2.2926,-2.2793,-2.255,-2.2098,-2.1537,-2.1293,-2.0879,-2.044,-2.027,-2.027,-2.027,-2.0155,-2.0097,-1.9929,-1.9402,-1.8837,-1.8367,-1.7862,-1.7694,-1.7753,-1.7694,-1.7589,-1.7589,-1.7589,-1.7589,-1.7589,-1.7589,-1.7514,-1.7246,-1.7025,-1.67,-1.6353,-1.6092,-1.5965,-1.5865,-1.5825,-1.5825,-1.5825,-1.5825,-1.5825,-1.5825,-1.5825,-1.5825,-1.5825,-1.5825,-1.5705,-1.5431,-1.5182,-1.485,-1.4556,-1.4282,-1.4088,-1.4088,-1.4088,-1.4088,-1.4088,-1.4088,-1.4088,-1.4088,-1.4088,-1.4068,-1.3935,-1.3674,-1.3327,-1.3093,-1.2705,-1.2374,-1.2251,-1.2114,-1.204,-1.1966,-1.2077,-1.212,-1.212,-1.2157,-1.2194,-1.2194,-1.2268,-1.2342,-1.2378,-1.2305,-1.2305,-1.2415,-1.2526,-1.2709,-3.0879,-3.0815,-3.0083,-2.9748,-2.9683,-2.943,-2.9307,-2.9307,-2.9307,-2.9307,-2.9239,-2.8931,-2.8614,-2.8177,-2.7173,-2.6447,-2.6031,-2.4741,-2.4115,-2.379,-2.3355,-2.3106,-2.3106,-2.3106,-2.3106,-2.3106,-2.3106,-2.3043,-2.2981,-2.2738,-2.2613,-2.2487,-2.2237,-2.1706,-2.1245,-2.1067,-2.0739,-2.0273,-2.0104,-2.0104,-2.0046,-1.9873,-1.9815,-1.9676,-1.9016,-1.8366,-1.7923,-1.7615,-1.7641,-1.7641,-1.7589,-1.7589,-1.7589,-1.7589,-1.7589,-1.7589,-1.7575,-1.7468,-1.73,-1.7213,-1.6991,-1.6569,-1.6395,-1.6172,-1.5959,-1.5879,-1.5825,-1.5825,-1.5825,-1.5825,-1.5825,-1.5825,-1.5825,-1.5825,-1.5825,-1.5651,-1.5471,-1.5184,-1.4941,-1.4603,-1.4315,-1.4155,-1.4088,-1.4088,-1.4088,-1.4088,-1.4088,-1.4088,-1.4088,-1.4088,-1.4088,-1.4055,-1.3714,-1.3267,-1.3033,-1.2746,-1.2423,-1.2177,-1.2009,-1.1892,-1.1663,-1.1706,-1.1818,-1.1898,-1.1929,-1.2003,-1.2114,-1.2157,-1.2194,-1.2157,-1.2083,-1.2157,-1.2231,-1.2305,-1.2452,-3.075,-3.0499,-3.0018,-2.9617,-2.943,-2.9307,-2.9307,-2.9307,-2.9307,-2.9307,-2.923,-2.8939,-2.8563,-2.8169,-2.7098,-2.6422,-2.5925,-2.4718,-2.386,-2.33,-2.323,-2.3106,-2.3106,-2.3106,-2.3106,-2.3106,-2.3106,-2.2981,-2.2738,-2.2613,-2.2425,-2.2167,-2.1888,-2.1431,-2.0861,-2.057,-2.0126,-1.9699,-1.9597,-1.9649,-1.9649,-1.9591,-1.9526,-1.9408,-1.8841,-1.8337,-1.7983,-1.7709,-1.7589,-1.7589,-1.7589,-1.7589,-1.7589,-1.7589,-1.7589,-1.7589,-1.7589,-1.7549,-1.7521,-1.7333,-1.7159,-1.6971,-1.6603,-1.6253,-1.6186,-1.5959,-1.5852,-1.5825,-1.5825,-1.5825,-1.5778,-1.5778,-1.5778,-1.573,-1.573,-1.571,-1.5651,-1.5464,-1.5164,-1.4928,-1.4589,-1.4342,-1.4122,-1.4088,-1.4088,-1.4088,-1.4088,-1.4088,-1.4088,-1.4088,-1.4088,-1.4082,-1.3794,-1.3373,-1.3167,-1.2854,-1.2377,-1.2061,-1.1861,-1.1706,-1.1477,-1.1477,-1.1595,-1.1706,-1.1744,-1.1855,-1.1929,-1.1892,-1.1892,-1.1892,-1.1892,-1.1929,-1.1966,-1.2077,-1.215,-3.0564,-3.0369,-2.9765,-2.943,-2.9307,-2.9307,-2.9307,-2.9307,-2.9307,-2.9307,-2.923,-2.8939,-2.8563,-2.8114,-2.7098,-2.6414,-2.5827,-2.4718,-2.3852,-2.3417,-2.323,-2.3106,-2.3106,-2.3106,-2.3106,-2.3106,-2.3106,-2.2918,-2.2668,-2.2425,-2.2174,-2.1853,-2.1538,-2.1037,-2.0557,-2.0281,-1.9913,-1.9537,-1.9424,-1.9424,-1.9424,-1.9424,-1.9272,-1.9125,-1.8724,-1.835,-1.7989,-1.7742,-1.7609,-1.7589,-1.7589,-1.7589,-1.7589,-1.7589,-1.7589,-1.7589,-1.7589,-1.7589,-1.7528,-1.7494,-1.7347,-1.7219,-1.6884,-1.6616,-1.6402,-1.6112,-1.5972,-1.5865,-1.5784,-1.5784,-1.5689,-1.5642,-1.5642,-1.5499,-1.5452,-1.5452,-1.546,-1.5438,-1.5284,-1.5042,-1.4689,-1.4396,-1.4208,-1.4086,-1.4088,-1.4046,-1.4046,-1.4088,-1.4088,-1.4088,-1.4088,-1.4028,-1.376,-1.352,-1.334,-1.2942,-1.2335,-1.1983,-1.1676,-1.1484,-1.1254,-1.1335,-1.1446,-1.1484,-1.1558,-1.1669,-1.1744,-1.1669,-1.1669,-1.1744,-1.1744,-1.1706,-1.1706,-1.1855,-1.1892,-3.0378,-3.0304,-2.9578,-2.9307,-2.9307,-2.9307,-2.9307,-2.9307,-2.9307,-2.9307,-2.9239,-2.8939,-2.8605,-2.8145,-2.7278,-2.6575,-2.5802,-2.4849,-2.3984,-2.3542,-2.3293,-2.3168,-2.3106,-2.3106,-2.3106,-2.3106,-2.2988,-2.2793,-2.248,-2.2167,-2.1859,-2.1544,-2.1292,-2.0851,-2.0361,-2.0147,-1.9947,-1.9446,-1.9424,-1.9424,-1.9424,-1.9424,-1.9245,-1.9065,-1.8771,-1.8457,-1.817,-1.7876,-1.7649,-1.7595,-1.7589,-1.7589,-1.7589,-1.7589,-1.7589,-1.7589,-1.7589,-1.7589,-1.7589,-1.7549,-1.7455,-1.7273,-1.7192,-1.6971,-1.6603,-1.6368,-1.6139,-1.5985,-1.5844,-1.5689,-1.5547,-1.5452,-1.5315,-1.5178,-1.5131,-1.5131,-1.5134,-1.523,-1.52,-1.4955,-1.4614,-1.4294,-1.4087,-1.3936,-1.3988,-1.4004,-1.4004,-1.4004,-1.4004,-1.3997,-1.3955,-1.387,-1.3609,-1.3295,-1.3093,-1.2785,-1.2228,-1.1865,-1.1502,-1.1335,-1.1149,-1.1186,-1.1298,-1.1335,-1.1372,-1.1484,-1.1521,-1.144,-1.1477,-1.1589,-1.1552,-1.1484,-1.1521,-1.1595,-1.1632,-3.0378,-3.0313,-2.9578,-2.9307,-2.9307,-2.9307,-2.9307,-2.9307,-2.9307,-2.9307,-2.9265,-2.8939,-2.8768,-2.8507,-2.7883,-2.693,-2.5883,-2.4906,-2.42,-2.3736,-2.3479,-2.3355,-2.3106,-2.3106,-2.3106,-2.3043,-2.2863,-2.2487,-2.2237,-2.1859,-2.1551,-2.1229,-2.1102,-2.0802,-2.0388,-2.0201,-1.9947,-1.9452,-1.9424,-1.9424,-1.9424,-1.9417,-1.9345,-1.9219,-1.8951,-1.8671,-1.8404,-1.8062,-1.7856,-1.7615,-1.7589,-1.7589,-1.7589,-1.7589,-1.7589,-1.7589,-1.7589,-1.7589,-1.7589,-1.7582,-1.7562,-1.7521,-1.7367,-1.7219,-1.6951,-1.6636,-1.6339,-1.6091,-1.5767,-1.554,-1.5499,-1.5267,-1.5172,-1.5083,-1.5035,-1.5035,-1.507,-1.5048,-1.4967,-1.4705,-1.4417,-1.4148,-1.3972,-1.3775,-1.3685,-1.3701,-1.3701,-1.3701,-1.3659,-1.3659,-1.3568,-1.3525,-1.3457,-1.3105,-1.2813,-1.2445,-1.2056,-1.1734,-1.1453,-1.1304,-1.1149,-1.1117,-1.1155,-1.1192,-1.1229,-1.1223,-1.126,-1.1254,-1.126,-1.1335,-1.1298,-1.1223,-1.1298,-1.1409,-1.1446,-3.0378,-3.0304,-2.9578,-2.9307,-2.9307,-2.9307,-2.9307,-2.9307,-2.9307,-2.9307,-2.9256,-2.9119,-2.8939,-2.8704,-2.8277,-2.7228,-2.606,-2.5164,-2.4533,-2.3975,-2.3666,-2.3417,-2.3106,-2.3106,-2.2981,-2.2793,-2.248,-2.2299,-2.2111,-2.1796,-2.1425,-2.1166,-2.1102,-2.0808,-2.0368,-2.016,-1.9907,-1.9499,-1.9424,-1.9424,-1.9424,-1.9424,-1.9424,-1.935,-1.9085,-1.8784,-1.8497,-1.8149,-1.7842,-1.7649,-1.7589,-1.7589,-1.7589,-1.7589,-1.7589,-1.7589,-1.7589,-1.7589,-1.7589,-1.7589,-1.7582,-1.7562,-1.7435,-1.7353,-1.7199,-1.6931,-1.6537,-1.6077,-1.5634,-1.522,-1.507,-1.4975,-1.4831,-1.4736,-1.4688,-1.4688,-1.4688,-1.4688,-1.4595,-1.4487,-1.4322,-1.4116,-1.3855,-1.3651,-1.3449,-1.3398,-1.3398,-1.3355,-1.3355,-1.3313,-1.3313,-1.3307,-1.3288,-1.3073,-1.2738,-1.2393,-1.1983,-1.1663,-1.1396,-1.1278,-1.1155,-1.1117,-1.1117,-1.1155,-1.1117,-1.1117,-1.1117,-1.1186,-1.1149,-1.1117,-1.1149,-1.1149,-1.1149,-1.1186,-1.126,-3.0378,-3.0369,-2.9643,-2.9307,-2.9307,-2.9307,-2.9307,-2.9307,-2.9307,-2.9307,-2.9307,-2.929,-2.9145,-2.8857,-2.8266,-2.7482,-2.6313,-2.562,-2.4851,-2.4216,-2.3852,-2.3549,-2.33,-2.3113,-2.2926,-2.2606,-2.2292,-2.2048,-2.1922,-2.1607,-2.1355,-2.1166,-2.1102,-2.0815,-2.0347,-2.0173,-1.986,-1.9546,-1.9424,-1.9424,-1.9424,-1.9424,-1.9424,-1.9417,-1.9138,-1.8891,-1.8617,-1.833,-1.7975,-1.7782,-1.7635,-1.7589,-1.7589,-1.7589,-1.7589,-1.7589,-1.7589,-1.7589,-1.7582,-1.7483,-1.7483,-1.7477,-1.7424,-1.7291,-1.7146,-1.6858,-1.6621,-1.5924,-1.5422,-1.5044,-1.4808,-1.4688,-1.4538,-1.4442,-1.4346,-1.4346,-1.4394,-1.4394,-1.4394,-1.4329,-1.4201,-1.403,-1.3729,-1.3467,-1.3274,-1.31,-1.3094,-1.3094,-1.3094,-1.3137,-1.3094,-1.3137,-1.3135,-1.3023,-1.2762,-1.2475,-1.2055,-1.1646,-1.1461,-1.13,-1.1184,-1.1117,-1.1117,-1.108,-1.1117,-1.1117,-1.1117,-1.1117,-1.1117,-1.1117,-1.1117,-1.1117,-1.1111,-1.1111,-1.1149,-3.0378,-3.0313,-2.9643,-2.9307,-2.9307,-2.9307,-2.9307,-2.9307,-2.9307,-2.9307,-2.9307,-2.9307,-2.9282,-2.8966,-2.8175,-2.7567,-2.6861,-2.6055,-2.5164,-2.4533,-2.4108,-2.3798,-2.3479,-2.3238,-2.2863,-2.248,-2.2237,-2.1922,-2.167,-2.1362,-2.1172,-2.1102,-2.1062,-2.0822,-2.0294,-2.0234,-1.9933,-1.9531,-1.9424,-1.9424,-1.9424,-1.9424,-1.9424,-1.941,-1.9299,-1.9138,-1.8831,-1.8531,-1.825,-1.7922,-1.7709,-1.7595,-1.7589,-1.7589,-1.7589,-1.7589,-1.7589,-1.7589,-1.7582,-1.743,-1.7279,-1.7279,-1.7054,-1.6817,-1.6767,-1.6568,-1.6209,-1.5609,-1.5237,-1.4984,-1.4726,-1.4502,-1.4346,-1.4346,-1.4298,-1.4298,-1.4298,-1.4298,-1.4298,-1.425,-1.4219,-1.3939,-1.3649,-1.3337,-1.3044,-1.2918,-1.279,-1.2833,-1.2833,-1.2918,-1.2918,-1.296,-1.2954,-1.2849,-1.2733,-1.2459,-1.2146,-1.173,-1.1453,-1.1294,-1.1123,-1.1002,-1.1037,-1.1037,-1.1037,-1.1043,-1.0968,-1.1005,-1.108,-1.1037,-1.0962,-1.0999,-1.1117,-1.1117,-1.1037,-3.0378,-3.0313,-2.9652,-2.9307,-2.9307,-2.9307,-2.9307,-2.9307,-2.9307,-2.9307,-2.9307,-2.9307,-2.9185,-2.8871,-2.827,-2.7636,-2.6928,-2.6231,-2.5415,-2.4688,-2.4239,-2.3929,-2.3549,-2.3043,-2.2606,-2.2355,-2.1985,-2.1614,-2.1362,-2.1235,-2.1102,-2.1102,-2.1076,-2.0815,-2.0294,-2.0234,-1.9887,-1.9533,-1.9424,-1.9424,-1.9424,-1.9424,-1.9424,-1.9424,-1.9424,-1.9205,-1.8951,-1.8644,-1.835,-1.8002,-1.7749,-1.7595,-1.7589,-1.7589,-1.7589,-1.7589,-1.7589,-1.7589,-1.7589,-1.7331,-1.7232,-1.712,-1.6895,-1.6723,-1.6626,-1.6338,-1.602,-1.5757,-1.5171,-1.4863,-1.4668,-1.4437,-1.437,-1.4298,-1.4298,-1.4298,-1.4298,-1.4298,-1.4292,-1.425,-1.4183,-1.3901,-1.3655,-1.3366,-1.3065,-1.285,-1.2729,-1.2705,-1.2747,-1.2747,-1.2747,-1.2747,-1.2735,-1.2705,-1.2638,-1.2457,-1.2218,-1.1854,-1.1435,-1.1239,-1.1,-1.0913,-1.0901,-1.083,-1.0738,-1.0738,-1.0781,-1.0856,-1.0887,-1.0812,-1.0732,-1.0775,-1.0818,-1.0775,-1.07,-3.0369,-3.0165,-2.9569,-2.9307,-2.9307,-2.9307,-2.9242,-2.9185,-2.9185,-2.9119,-2.9045,-2.9045,-2.8865,-2.8667,-2.8262,-2.7581,-2.668,-2.6336,-2.5581,-2.4813,-2.4232,-2.3922,-2.3479,-2.2981,-2.2425,-2.2104,-2.1796,-2.1481,-2.1229,-2.1102,-2.1102,-2.1102,-2.1102,-2.0775,-2.0388,-2.0194,-1.9953,-1.9484,-1.9424,-1.9424,-1.9424,-1.9424,-1.9424,-1.9424,-1.9403,-1.9316,-1.9032,-1.8764,-1.8477,-1.819,-1.7896,-1.7716,-1.7615,-1.7589,-1.7589,-1.7589,-1.7589,-1.7589,-1.7536,-1.7378,-1.7179,-1.6961,-1.6743,-1.6411,-1.6399,-1.6113,-1.5848,-1.5762,-1.535,-1.4926,-1.4708,-1.4515,-1.4413,-1.4346,-1.4298,-1.4298,-1.4298,-1.4298,-1.4298,-1.428,-1.422,-1.4022,-1.3758,-1.3419,-1.3108,-1.2823,-1.2685,-1.2595,-1.2577,-1.2534,-1.2497,-1.2454,-1.2448,-1.2443,-1.2383,-1.2277,-1.2129,-1.1934,-1.1513,-1.1178,-1.0946,-1.0814,-1.0775,-1.0636,-1.0466,-1.04,-1.0438,-1.055,-1.0663,-1.0625,-1.0588,-1.0481,-1.0443,-1.04,-1.0438,-3.0165,-2.9813,-2.9438,-2.9307,-2.9307,-2.9307,-2.9119,-2.8865,-2.8873,-2.8667,-2.8461,-2.8403,-2.8461,-2.8263,-2.7924,-2.7393,-2.6608,-2.6336,-2.551,-2.4743,-2.4232,-2.3852,-2.3417,-2.2856,-2.2362,-2.2048,-2.167,-2.1355,-2.1172,-2.1102,-2.1102,-2.1102,-2.1102,-2.0742,-2.0401,-2.0187,-1.99,-1.9472,-1.9424,-1.9424,-1.9424,-1.9424,-1.9366,-1.9359,-1.9366,-1.9403,-1.9312,-1.8954,-1.8592,-1.83,-1.7994,-1.7756,-1.7583,-1.7595,-1.7589,-1.7589,-1.7589,-1.7589,-1.7536,-1.7325,-1.706,-1.6683,-1.6365,-1.6045,-1.6092,-1.5986,-1.5805,-1.5618,-1.5384,-1.5149,-1.4902,-1.4666,-1.4527,-1.437,-1.4298,-1.4298,-1.4298,-1.4298,-1.4298,-1.4298,-1.4202,-1.407,-1.382,-1.3536,-1.316,-1.2798,-1.2577,-1.2475,-1.2264,-1.2203,-1.2166,-1.2123,-1.208,-1.208,-1.208,-1.2,-1.2005,-1.1847,-1.1529,-1.1221,-1.0931,-1.079,-1.0544,-1.0378,-1.0203,-1.0132,-1.0067,-1.0143,-1.0255,-1.0406,-1.0368,-1.0148,-1.0073,-1.0067,-1.018,-3.0035,-2.9504,-2.9373,-2.9307,-2.9307,-2.9062,-2.8939,-2.8733,-2.8601,-2.8403,-2.8271,-2.8271,-2.8196,-2.7923,-2.7742,-2.7074,-2.6167,-2.5975,-2.5194,-2.4493,-2.3914,-2.3611,-2.3168,-2.2668,-2.2104,-2.1796,-2.1481,-2.1229,-2.1102,-2.1102,-2.1102,-2.1102,-2.1102,-2.0875,-2.0561,-2.0147,-1.9746,-1.9499,-1.9424,-1.9424,-1.9424,-1.9366,-1.9301,-1.912,-1.912,-1.8946,-1.8784,-1.8492,-1.822,-1.8004,-1.7834,-1.7654,-1.751,-1.751,-1.7589,-1.7589,-1.7589,-1.7589,-1.7589,-1.7331,-1.7014,-1.6483,-1.6158,-1.5885,-1.5885,-1.5885,-1.5855,-1.5728,-1.559,-1.5336,-1.5059,-1.4805,-1.4606,-1.4401,-1.4298,-1.4298,-1.4298,-1.4298,-1.4298,-1.4298,-1.425,-1.416,-1.3898,-1.3614,-1.3194,-1.2824,-1.257,-1.2307,-1.2054,-1.1828,-1.178,-1.178,-1.1736,-1.1823,-1.1823,-1.1849,-1.1875,-1.1671,-1.1458,-1.1153,-1.0778,-1.0392,-1.0168,-1.0033,-0.9904,-0.9748,-0.9678,-0.97,-0.9771,-0.9879,-0.9809,-0.9625,-0.9625,-0.9695,-0.9809,-2.9831,-2.9307,-2.9307,-2.925,-2.9119,-2.893,-2.8667,-2.8461,-2.8196,-2.7998,-2.7799,-2.7733,-2.7525,-2.7251,-2.7169,-2.6606,-2.5729,-2.5399,-2.4799,-2.4149,-2.3611,-2.33,-2.2863,-2.2355,-2.1859,-2.1544,-2.1292,-2.1102,-2.1102,-2.1102,-2.1102,-2.1102,-2.1082,-2.0922,-2.0595,-2.0114,-1.9659,-1.9491,-1.9424,-1.9424,-1.9424,-1.9301,-1.9178,-1.8939,-1.8823,-1.8706,-1.8506,-1.8301,-1.8091,-1.7866,-1.7695,-1.7501,-1.7441,-1.7444,-1.7549,-1.7589,-1.7589,-1.7589,-1.7536,-1.7331,-1.6961,-1.653,-1.6217,-1.6051,-1.5945,-1.5885,-1.5867,-1.5861,-1.5704,-1.5505,-1.524,-1.5016,-1.4769,-1.4564,-1.434,-1.4298,-1.4298,-1.4298,-1.4298,-1.4298,-1.425,-1.4148,-1.3723,-1.3404,-1.307,-1.2597,-1.2154,-1.1927,-1.1767,-1.1576,-1.1429,-1.1386,-1.1424,-1.1516,-1.1602,-1.1462,-1.1322,-1.1257,-1.1054,-1.0911,-1.0559,-1.0216,-0.9937,-0.9818,-0.9653,-0.9369,-0.9319,-0.937,-0.9359,-0.9354,-0.9284,-0.9251,-0.9284,-0.9359,-0.9397,-2.9626,-2.9307,-2.9307,-2.9119,-2.8807,-2.8799,-2.8395,-2.7849,-2.765,-2.7318,-2.68,-2.6465,-2.6331,-2.6264,-2.6398,-2.5911,-2.5306,-2.5073,-2.4532,-2.375,-2.3197,-2.287,-2.248,-2.1985,-2.1607,-2.1544,-2.1292,-2.1102,-2.1102,-2.1102,-2.1102,-2.1102,-2.1082,-2.0935,-2.0635,-2.01,-1.9673,-1.9412,-1.943,-1.9424,-1.9366,-1.9127,-1.8939,-1.8823,-1.859,-1.8363,-1.8221,-1.8202,-1.7949,-1.7755,-1.7602,-1.7489,-1.7449,-1.729,-1.7397,-1.7582,-1.7589,-1.7589,-1.7589,-1.7325,-1.706,-1.6683,-1.6377,-1.6164,-1.5945,-1.5885,-1.5885,-1.5879,-1.5837,-1.571,-1.5487,-1.5252,-1.4992,-1.4745,-1.4521,-1.4383,-1.4395,-1.4298,-1.4298,-1.4298,-1.425,-1.4106,-1.3582,-1.3128,-1.2816,-1.2349,-1.1796,-1.1541,-1.1478,-1.1333,-1.1179,-1.1079,-1.1122,-1.1122,-1.1122,-1.0949,-1.0814,-1.0766,-1.073,-1.0633,-1.0493,-1.0263,-0.9989,-0.9672,-0.9438,-0.9242,-0.9115,-0.8994,-0.8946,-0.8899,-0.8941,-0.8908,-0.8984,-0.8984,-0.9018,-2.9626,-2.9307,-2.9307,-2.8988,-2.8535,-2.8469,-2.8064,-2.7326,-2.6859,-2.6532,-2.6339,-2.6138,-2.6071,-2.6071,-2.5965,-2.5679,-2.5095,-2.4505,-2.3979,-2.3259,-2.272,-2.2251,-2.1915,-2.1734,-2.1481,-2.1292,-2.1102,-2.1102,-2.1102,-2.1102,-2.1102,-2.1102,-2.1069,-2.0828,-2.0481,-2.01,-1.988,-1.9517,-1.9424,-1.9424,-1.9372,-1.9062,-1.8823,-1.859,-1.8305,-1.8071,-1.7895,-1.7895,-1.7765,-1.7531,-1.7384,-1.732,-1.7316,-1.7148,-1.7358,-1.7536,-1.7582,-1.7589,-1.7582,-1.7477,-1.7213,-1.6842,-1.6477,-1.6211,-1.5945,-1.5885,-1.5885,-1.5885,-1.5885,-1.5747,-1.5511,-1.5439,-1.5234,-1.4998,-1.4793,-1.4648,-1.457,-1.4389,-1.4298,-1.4298,-1.425,-1.4016,-1.3582,-1.3244,-1.2879,-1.2601,-1.2097,-1.1657,-1.1536,-1.1242,-1.104,-1.0881,-1.0819,-1.0776,-1.0689,-1.0603,-1.0598,-1.0598,-1.0636,-1.0605,-1.0424,-1.0206,-0.9984,-0.9635,-0.9381,-0.9149,-0.8975,-0.8807,-0.8584,-0.8479,-0.8484,-0.8484,-0.8522,-0.856,-0.8594,-2.9495,-2.9307,-2.9185,-2.879,-2.8337,-2.8271,-2.7799,-2.7,-2.6272,-2.5936,-2.5936,-2.5801,-2.5659,-2.5592,-2.5495,-2.5204,-2.4547,-2.3963,-2.3515,-2.2879,-2.2251,-2.1894,-2.1677,-2.1488,-2.1292,-2.1102,-2.1102,-2.1102,-2.1102,-2.1102,-2.1102,-2.1102,-2.1096,-2.0855,-2.0514,-2.0261,-2.0,-1.9619,-1.9479,-1.9424,-1.9243,-1.9004,-1.8596,-1.8363,-1.8071,-1.7719,-1.7543,-1.7455,-1.7406,-1.7247,-1.713,-1.7086,-1.7102,-1.7188,-1.7297,-1.7424,-1.7582,-1.7589,-1.7589,-1.7582,-1.7265,-1.6789,-1.653,-1.6264,-1.5998,-1.5885,-1.5885,-1.5885,-1.5885,-1.5801,-1.5662,-1.5608,-1.5427,-1.5185,-1.5046,-1.4902,-1.4702,-1.4527,-1.4383,-1.4377,-1.4256,-1.3968,-1.3678,-1.334,-1.2995,-1.271,-1.2459,-1.201,-1.1568,-1.1207,-1.09,-1.0691,-1.0551,-1.0439,-1.0434,-1.0386,-1.0386,-1.0467,-1.0467,-1.0424,-1.0318,-1.0096,-0.9876,-0.9658,-0.9487,-0.9273,-0.8902,-0.8663,-0.8347,-0.8136,-0.7987,-0.8025,-0.8063,-0.8178,-0.8289,-2.9307,-2.925,-2.893,-2.8601,-2.8337,-2.813,-2.7533,-2.6592,-2.5861,-2.5599,-2.5532,-2.5194,-2.4984,-2.457,-2.457,-2.4285,-2.3711,-2.3262,-2.2902,-2.2523,-2.1905,-2.1683,-2.1425,-2.1299,-2.1166,-2.1102,-2.1102,-2.1102,-2.1102,-2.1102,-2.1102,-2.1102,-2.1102,-2.0922,-2.0688,-2.0428,-2.0114,-1.9773,-1.9566,-1.9504,-1.9327,-1.8771,-1.8538,-1.8246,-1.7889,-1.7602,-1.7485,-1.7473,-1.7467,-1.7358,-1.7259,-1.7181,-1.7092,-1.7102,-1.7156,-1.7264,-1.749,-1.7589,-1.7589,-1.7589,-1.7265,-1.6783,-1.6677,-1.6358,-1.6045,-1.5885,-1.5885,-1.5885,-1.5885,-1.5885,-1.5849,-1.5704,-1.5559,-1.5396,-1.5258,-1.5077,-1.4871,-1.4702,-1.4552,-1.4455,-1.434,-1.4118,-1.3829,-1.3491,-1.3244,-1.2931,-1.2689,-1.2363,-1.1874,-1.1191,-1.0869,-1.0458,-1.0284,-1.012,-1.0101,-1.0173,-1.0212,-1.025,-1.0207,-1.0164,-1.0024,-1.0014,-0.989,-0.9757,-0.9616,-0.9326,-0.8831,-0.842,-0.8094,-0.7872,-0.7714,-0.7757,-0.7872,-0.7987,-0.8102,-2.9307,-2.9242,-2.8939,-2.8601,-2.8196,-2.72,-2.6398,-2.5869,-2.5397,-2.5119,-2.4849,-2.4706,-2.4435,-2.4163,-2.4163,-2.4025,-2.3577,-2.313,-2.2735,-2.2216,-2.1713,-2.1366,-2.1235,-2.1172,-2.1102,-2.1102,-2.1102,-2.1102,-2.1102,-2.1102,-2.1102,-2.1102,-2.1102,-2.1022,-2.0895,-2.0688,-2.0287,-1.9933,-1.9733,-1.9566,-1.9309,-1.879,-1.8544,-1.824,-1.783,-1.7543,-1.7485,-1.7485,-1.7485,-1.7436,-1.7231,-1.714,-1.737,-1.7055,-1.6879,-1.7225,-1.7437,-1.7589,-1.7589,-1.7589,-1.7318,-1.6789,-1.6677,-1.6418,-1.6099,-1.5885,-1.5885,-1.5885,-1.5885,-1.5885,-1.5885,-1.5789,-1.571,-1.5632,-1.5493,-1.5336,-1.5119,-1.4883,-1.4727,-1.4497,-1.4383,-1.4214,-1.3925,-1.3786,-1.3539,-1.3195,-1.2883,-1.2603,-1.215,-1.1536,-1.1015,-1.0601,-1.0265,-1.0146,-1.0042,-1.0096,-1.0043,-1.0038,-0.9994,-0.9994,-1.0033,-1.0019,-0.9956,-0.9866,-0.9686,-0.9211,-0.8564,-0.8282,-0.809,-0.7761,-0.7561,-0.7599,-0.768,-0.7795,-0.7872,-2.9307,-2.9242,-2.8799,-2.8138,-2.7342,-2.6473,-2.5801,-2.5194,-2.4924,-2.4713,-2.4495,-2.436,-2.4095,-2.3816,-2.3747,-2.3659,-2.3406,-2.2731,-2.2293,-2.2085,-2.1504,-2.1253,-2.1102,-2.1102,-2.1102,-2.1102,-2.1102,-2.1102,-2.1102,-2.1102,-2.1102,-2.1102,-2.1102,-2.1102,-2.1042,-2.0902,-2.0621,-2.0241,-1.994,-1.9733,-1.9338,-1.8836,-1.8486,-1.8305,-1.783,-1.7543,-1.7485,-1.7485,-1.7485,-1.7485,-1.7292,-1.7247,-1.7324,-1.6975,-1.6878,-1.7081,-1.7106,-1.7179,-1.716,-1.7213,-1.6942,-1.6683,-1.6524,-1.6318,-1.6105,-1.5885,-1.5885,-1.5885,-1.5885,-1.5885,-1.5885,-1.5885,-1.5879,-1.5867,-1.5741,-1.5608,-1.536,-1.5095,-1.4835,-1.457,-1.4382,-1.4244,-1.4118,-1.3973,-1.3829,-1.3539,-1.3195,-1.2845,-1.2459,-1.1893,-1.1353,-1.093,-1.0551,-1.0255,-1.0151,-1.0047,-1.0013,-1.0004,-0.9994,-0.9994,-0.9994,-0.999,-0.9971,-0.9866,-0.9686,-0.9211,-0.8729,-0.8396,-0.8156,-0.7816,-0.7522,-0.7561,-0.7561,-0.7599,-0.7676,-2.9307,-2.9242,-2.8593,-2.7533,-2.6205,-2.6071,-2.5532,-2.457,-2.4503,-2.4435,-2.4292,-2.4095,-2.3747,-2.34,-2.3331,-2.3208,-2.2964,-2.2405,-2.2116,-2.1944,-2.1376,-2.1116,-2.1102,-2.1102,-2.1102,-2.1102,-2.1102,-2.1102,-2.1102,-2.1102,-2.1102,-2.1102,-2.1102,-2.1102,-2.1089,-2.1069,-2.0869,-2.0641,-2.0234,-1.9927,-1.9562,-1.9024,-1.8434,-1.8298,-1.7889,-1.7485,-1.7485,-1.7485,-1.7485,-1.7485,-1.7449,-1.7392,-1.7122,-1.6999,-1.7023,-1.6936,-1.6927,-1.6913,-1.6861,-1.6836,-1.6683,-1.6477,-1.6271,-1.6164,-1.5998,-1.5885,-1.5885,-1.5885,-1.5885,-1.5885,-1.5885,-1.5885,-1.5885,-1.5885,-1.5819,-1.5728,-1.5584,-1.5264,-1.4908,-1.4642,-1.4413,-1.4286,-1.4208,-1.4112,-1.3979,-1.3781,-1.3588,-1.3201,-1.2759,-1.2241,-1.1798,-1.136,-1.0934,-1.0596,-1.0354,-1.0249,-1.0051,-1.0018,-0.9999,-0.9994,-0.9994,-0.9994,-0.9994,-0.9885,-0.9729,-0.9419,-0.8996,-0.8631,-0.8199,-0.788,-0.7642,-0.7518,-0.7518,-0.7518,-0.7561,-2.9307,-2.9242,-2.8593,-2.7467,-2.6205,-2.6071,-2.5457,-2.4503,-2.4231,-2.3952,-2.3679,-2.3543,-2.3406,-2.3133,-2.3065,-2.2996,-2.2767,-2.2271,-2.2038,-2.179,-2.1363,-2.1116,-2.1102,-2.1102,-2.1102,-2.1102,-2.1102,-2.1102,-2.1102,-2.1102,-2.1102,-2.1102,-2.1102,-2.1102,-2.1102,-2.1102,-2.1029,-2.0915,-2.058,-2.014,-1.9774,-1.9219,-1.8669,-1.8347,-1.7855,-1.7556,-1.7491,-1.7485,-1.7485,-1.7485,-1.7485,-1.734,-1.7092,-1.7226,-1.7067,-1.6868,-1.6888,-1.6785,-1.6706,-1.659,-1.6471,-1.6371,-1.6271,-1.6105,-1.5998,-1.5939,-1.5885,-1.5885,-1.5885,-1.5885,-1.5885,-1.5885,-1.5885,-1.5885,-1.5879,-1.5831,-1.5771,-1.5384,-1.498,-1.4702,-1.4443,-1.434,-1.431,-1.4208,-1.4118,-1.3973,-1.3877,-1.3588,-1.3147,-1.2678,-1.2294,-1.1808,-1.1405,-1.1,-1.0702,-1.0385,-1.0225,-1.0076,-0.9994,-0.9994,-0.9994,-0.9994,-0.9985,-0.9928,-0.9776,-0.9489,-0.9174,-0.868,-0.83,-0.797,-0.768,-0.7518,-0.7518,-0.7518,-0.7518,-2.9307,-2.9176,-2.8386,-2.7259,-2.6205,-2.5944,-2.5255,-2.4367,-2.4095,-2.3679,-2.3201,-2.3201,-2.3065,-2.2934,-2.2866,-2.2759,-2.2625,-2.2205,-2.1917,-2.1663,-2.1403,-2.1176,-2.1102,-2.1102,-2.1102,-2.1102,-2.1102,-2.1102,-2.1039,-2.1102,-2.1102,-2.1109,-2.1109,-2.1102,-2.1102,-2.1102,-2.1039,-2.1089,-2.0797,-2.0423,-1.9925,-1.9385,-1.8832,-1.8398,-1.8009,-1.7665,-1.7491,-1.7485,-1.7485,-1.7485,-1.7485,-1.7449,-1.7274,-1.7238,-1.7163,-1.6956,-1.6784,-1.6713,-1.6557,-1.6452,-1.6336,-1.6217,-1.6105,-1.5939,-1.5939,-1.5885,-1.5885,-1.5885,-1.5885,-1.5885,-1.5885,-1.5885,-1.5885,-1.5885,-1.5861,-1.5819,-1.5632,-1.5324,-1.4992,-1.4733,-1.4497,-1.4322,-1.4298,-1.4298,-1.4208,-1.416,-1.407,-1.3883,-1.3491,-1.3147,-1.2716,-1.2304,-1.1891,-1.133,-1.09,-1.059,-1.0381,-1.0196,-1.0057,-0.9994,-0.9994,-0.9994,-0.9975,-0.9942,-0.9842,-0.9691,-0.9313,-0.8837,-0.8529,-0.8234,-0.7845,-0.7518,-0.7518,-0.7518,-0.7518,-2.9242,-2.9045,-2.8106,-2.7051,-2.6138,-2.5734,-2.4984,-2.4095,-2.3959,-2.3611,-2.2996,-2.2934,-2.2866,-2.2866,-2.2853,-2.2645,-2.2418,-2.2138,-2.1857,-2.1563,-2.1263,-2.1136,-2.1102,-2.1102,-2.1039,-2.0982,-2.0856,-2.0919,-2.0989,-2.0982,-2.0982,-2.1046,-2.1046,-2.1039,-2.1046,-2.0982,-2.0856,-2.0799,-2.0587,-2.0389,-2.0018,-1.9581,-1.8996,-1.8505,-1.8117,-1.781,-1.7605,-1.7497,-1.7497,-1.7485,-1.7485,-1.7461,-1.7412,-1.7338,-1.721,-1.6992,-1.6794,-1.6563,-1.6363,-1.6186,-1.6036,-1.5963,-1.5897,-1.5885,-1.5885,-1.5885,-1.5885,-1.5885,-1.5885,-1.5885,-1.5885,-1.5885,-1.5885,-1.5885,-1.5855,-1.5831,-1.5584,-1.5285,-1.5026,-1.4761,-1.4606,-1.4413,-1.431,-1.431,-1.4304,-1.4256,-1.416,-1.4022,-1.3835,-1.3539,-1.3156,-1.2812,-1.2422,-1.1858,-1.1296,-1.0878,-1.0616,-1.0342,-1.0163,-1.0071,-0.9994,-0.9994,-0.9994,-0.999,-0.9919,-0.9795,-0.9498,-0.9054,-0.8747,-0.8427,-0.7994,-0.7612,-0.7518,-0.7518,-0.7518,-2.8988,-2.8461,-2.7915,-2.7051,-2.6138,-2.5734,-2.4984,-2.4095,-2.3959,-2.3618,-2.3003,-2.2866,-2.2866,-2.2866,-2.2866,-2.2679,-2.2338,-2.2064,-2.1817,-2.1608,-2.1236,-2.1136,-2.1039,-2.1039,-2.0919,-2.0736,-2.0552,-2.0482,-2.0672,-2.0736,-2.0862,-2.0982,-2.0729,-2.0666,-2.0672,-2.0545,-2.0425,-2.0361,-2.0291,-2.0043,-1.9777,-1.9406,-1.9087,-1.86,-1.8167,-1.7943,-1.7756,-1.7587,-1.7515,-1.7485,-1.7485,-1.7485,-1.7455,-1.74,-1.7298,-1.7153,-1.6905,-1.6694,-1.6483,-1.626,-1.6127,-1.5958,-1.5934,-1.5885,-1.5885,-1.5885,-1.5885,-1.5885,-1.5885,-1.5885,-1.5885,-1.5885,-1.5885,-1.5891,-1.5814,-1.5814,-1.5647,-1.5425,-1.5191,-1.4951,-1.4724,-1.449,-1.431,-1.4298,-1.4328,-1.4274,-1.4298,-1.4118,-1.3973,-1.3781,-1.3539,-1.321,-1.2882,-1.2528,-1.2005,-1.126,-1.0882,-1.0582,-1.0264,-1.0114,-1.0023,-0.9994,-0.9994,-0.9994,-0.9966,-0.9856,-0.9554,-0.919,-0.8872,-0.8478,-0.8077,-0.7722,-0.7616,-0.7551,-0.758]},{"header":{"parameterUnit":"m.s-1","parameterCategory":1,"la1":31.0,"la2":29.5877,"lo1":-88.7671,"lo2":-86.6584,"dy":0.0162,"dx":0.0185,"nx":115,"ny":88,"refTime":"2023-05-06T12:00:00:Z","depth":0,"parameterNumber":3,"parameterNumberName":"V-component_of_WINDS"},"data":[0.0,0.0,0.0,0.0,0.0,0.0,0.0,0.0,0.0,0.0,0.0,0.0,0.0,0.0,0.0,0.0,0.0,0.0,0.0,0.0,0.0,0.0,0.0,0.0,0.0,0.0,0.0,0.0,0.0,0.0,0.0,0.0,0.0,0.0,0.0,0.0,0.0,0.0,0.0,0.0,0.0,0.0,0.0,0.0,0.0,0.0,0.0,0.0,0.0,0.0,0.0,0.0,0.0,0.0,0.0,0.0,0.0,0.0,0.0,0.0,0.0,0.0,0.0,0.0,0.0,0.0,0.0,0.0,0.0,0.0,0.0,0.0,0.0,0.0,0.0,0.0,0.0,0.0,0.0,0.0,0.0,0.0,0.0,0.0,0.0,0.0,0.0,0.0,0.0,0.0,0.0,0.0,0.0,0.0,0.0,0.0,0.0,0.0,0.0,0.0,0.0,0.0,0.0,0.0,0.0,0.0,0.0,0.0,0.0,0.0,0.0,0.0,0.0,0.0,0.0,0.0,0.0,0.0,0.0,0.0,0.0,0.0,0.0,0.0,0.0,0.0,0.0,0.0,0.0,0.0,0.0,0.0,0.0,0.0,0.0,0.0,0.0,0.0,0.0,0.0,0.0,0.0,0.0,0.0,0.0,0.0,0.0,0.0,0.0,0.0,0.0,0.0,0.0,0.0,0.0,0.0,0.0,0.0,0.0,0.0,0.0,0.0,0.0,0.0,0.0,0.0,0.0,0.0,0.0,0.0,0.0,0.0,0.0,0.0,0.0,0.0,0.0,0.0,0.0,0.0,0.0,0.0,0.0,0.0,0.0,0.0,0.0,0.0,0.0,0.0,0.0,0.0,0.0,0.0,0.0,0.0,0.0,0.0,0.0,0.0,0.0,0.0,0.0,0.0,0.0,0.0,0.0,0.0,0.0,0.0,0.0,0.0,0.0,0.0,0.0,0.0,0.0,0.0,0.0,0.0,0.0,0.0,0.0,0.0,0.0,0.0,0.0,0.0,0.0,0.0,0.0,0.0,0.0,0.0,0.0,0.0,0.0,0.0,0.0,0.0,0.0,0.0,0.0,0.0,0.0,0.0,0.0,0.0,0.0,0.0,0.0,0.0,0.0,0.0,0.0,0.0,0.0,0.0,0.0,0.0,0.0,0.0,0.0,0.0,0.0,0.0,0.0,0.0,0.0,0.0,0.0,0.0,0.0,0.0,0.0,0.0,0.0,0.0,0.0,0.0,0.0,0.0,0.0,0.0,0.0,0.0,0.0,0.0,0.0,0.0,0.0,0.0,0.0,0.0,0.0,0.0,0.0,0.0,0.0,0.0,0.0,0.0,0.0,0.0,0.0,0.0,0.0,0.0,0.0,0.0,0.0,0.0,0.0,0.0,0.0,0.0,0.0,0.0,0.0,0.0,0.0,0.0,0.0,0.0,0.0,0.0,0.0,0.0,0.0,0.0,0.0,0.0,0.0,0.0,0.0,0.0,0.0,0.0,0.0,0.0,0.0,0.0,0.0,0.0,0.0,0.0,0.0,0.0,0.0,0.0,0.0,0.0,0.0,0.0,0.0,0.0,0.0,0.0,0.0,0.0,0.0,0.0,0.0,0.0,0.0,0.0,0.0,0.0,0.0,0.0,0.0,0.0,0.0,0.0,0.0,0.0,0.0,0.0,0.0,0.0,0.0,0.0,0.0,0.0,0.0,0.0,0.0,0.0,0.0,0.0,0.0,0.0,0.0,0.0,0.0,0.0,0.0,0.0,0.0,0.0,0.0,0.0,0.0,0.0,0.0,0.0,0.0,0.0,0.0,0.0,0.0,0.0,0.0,0.0,0.0,0.0,0.0,0.0,0.0,0.0,0.0,0.0,0.0,0.0,0.0,0.0,0.0,0.0,0.0,0.0,0.0,0.0,0.0,0.0,0.0,0.0,0.0,0.0,0.0,0.0,0.0,0.0,0.0,0.0,0.0,0.0,0.0,0.0,0.0,0.0,0.0,0.0,0.0,0.0,0.0,0.0,0.0,0.0,0.0,0.0,0.0,0.0,0.0,0.0,0.0,0.0,0.0,0.0,0.0,0.0,0.0,0.0,0.0,0.0,0.0,0.0,0.0,0.0,0.0,0.0,0.0,0.0,0.0,0.0,0.0,0.0,0.0,0.0,0.0,0.0,0.0,0.0,0.0,0.0,0.0,0.0,0.0,0.0,0.0,0.0,0.0,0.0,0.0,0.0,0.0,0.0,0.0,0.0,0.0,0.0,0.0,0.0,0.0,0.0,0.0,0.0,0.0,0.0,0.0,0.0,0.0,0.0,0.0,0.0,0.0,0.0,0.0,0.0,0.0,0.0,0.0,0.0,0.0,0.0,0.0,0.0,0.0,0.0,0.0,0.0,0.0,0.0,0.0,0.0,0.0,0.0,0.0,0.0,0.0,0.0,0.0,0.0,0.0,0.0,0.0,0.0,0.0,0.0,0.0,0.0,0.0,0.0,0.0,0.0,0.0,0.0,0.0,0.0,0.0,0.0,0.0,0.0,0.0,0.0,0.0,0.0,0.0,0.0,0.0,0.0,0.0,0.0,0.0,0.0,0.0,0.0,0.0,0.0,0.0,0.0,0.0,0.0,0.0,0.0,0.0,0.0,0.0,0.0,0.0,0.0,0.0,0.0,0.0,0.0,0.0,0.0,0.0,0.0,0.0,0.0,0.0,0.0,0.0,0.0,0.0,0.0,0.0,0.0,0.0,0.0,0.0,0.0,0.0,0.0,0.0,0.0,0.0,0.0,0.0,0.0,0.0,0.0,0.0,0.0,0.0,0.0,0.0,0.0,0.0,0.0,0.0,0.0,0.0,0.0,0.0,0.0,0.0,0.0,0.0,0.0,0.0,0.0,0.0,0.0,0.0,0.0,0.0,0.0,0.0,0.0,0.0,0.0,0.0,0.0,0.0,0.0,0.0,0.0,0.0,0.0,0.0,0.0,0.0,0.0,0.0,0.0,0.0,0.0,0.0,0.0,0.0,0.0,0.0,0.0,0.0,0.0,0.0,0.0,0.0,0.0,0.0,0.0,0.0,0.0,0.0,0.0,0.0,0.0,0.0,0.0,0.0,0.0,0.0,0.0,0.0,0.0,0.0,0.0,0.0,0.0,0.0,0.0,0.0,0.0,0.0,0.0,0.0,0.0,0.0,0.0,0.0,0.0,0.0,0.0,0.0,0.0,0.0,0.0,0.0,0.0,0.0,0.0,0.0,0.0,0.0,0.0,0.0,0.0,0.0,0.0,0.0,0.0,0.0,0.0,0.0,0.0,0.0,0.0,0.0,0.0,0.0,0.0,0.0,0.0,0.0,0.0,0.0,0.0,0.0,0.0,0.0,0.0,0.0,0.0,0.0,0.0,0.0,0.0,0.0,0.0,0.0,0.0,0.0,0.0,0.0,0.0,0.0,0.0,0.0,0.0,0.0,0.0,0.0,0.0,0.0,0.0,0.0,0.0,0.0,0.0,0.0,0.0,0.0,0.0,0.0,0.0,0.0,0.0,0.0,0.0,0.0,0.0,0.0,0.0,0.0,0.0,0.0,0.0,0.0,0.0,0.0,0.0,0.0,0.0,0.0,0.0,0.0,0.0,0.0,0.0,0.0,0.0,0.0,0.0,0.0,0.0,0.0,0.0,0.0,0.0,0.0,0.0,0.0,0.0,0.0,0.0,0.0,0.0,0.0,0.0,0.0,0.0,0.0,0.0,0.0,0.0,0.0,0.0,0.0,0.0,0.0,0.0,0.0,0.0,0.0,0.0,0.0,0.0,0.0,0.0,0.0,0.0,0.0,0.0,0.0,0.0,0.0,0.0,0.0,0.0,0.0,0.0,0.0,0.0,0.0,0.0,0.0,0.0,0.0,0.0,0.0,0.0,0.0,0.0,0.0,0.0,0.0,0.0,0.0,0.0,0.0,0.0,0.0,0.0,0.0,0.0,0.0,0.0,0.0,0.0,0.0,0.0,0.0,0.0,0.0,0.0,0.0,0.0,0.0,0.0,0.0,0.0,0.0,0.0,0.0,0.0,0.0,0.0,0.0,0.0,0.0,0.0,0.0,0.0,0.0,0.0,0.0,0.0,0.0,0.0,0.0,0.0,0.0,0.0,0.0,0.0,0.0,0.0,0.0,0.0,0.0,0.0,0.0,0.0,0.0,0.0,0.0,0.0,0.0,0.0,0.0,0.0,0.0,0.0,0.0,0.0,0.0,0.0,0.0,0.0,0.0,0.0,0.0,0.0,0.0,0.0,1.3782,0.0,0.0,0.0,0.0,0.0,0.0,0.0,0.0,0.0,0.0,0.0,0.0,0.0,0.0,0.0,0.0,0.0,0.0,0.0,0.0,0.0,0.0,0.0,0.0,0.0,0.0,0.0,0.0,0.0,0.0,0.0,0.0,0.0,0.0,0.0,0.0,0.0,0.0,0.0,0.0,0.0,0.0,0.0,0.0,0.0,0.0,0.0,0.0,0.0,0.0,0.0,0.0,0.0,0.0,0.0,0.0,0.0,0.0,0.0,0.0,0.0,0.0,0.0,0.0,0.0,0.0,0.0,0.0,0.0,0.0,0.0,0.0,0.0,0.0,0.0,0.0,0.0,0.0,0.0,0.0,0.0,0.0,0.0,0.0,0.0,0.0,0.0,0.0,0.0,0.0,0.0,0.0,0.0,0.0,0.0,0.0,0.0,0.0,0.0,0.0,0.0,0.0,0.0,0.0,0.0,0.0,0.0,0.0,0.0,0.0,1.364,1.361,1.386,1.3824,1.3482,0.0,0.0,0.0,0.0,0.0,0.0,0.0,0.0,0.0,0.0,0.0,0.0,0.0,0.0,0.0,0.0,0.0,0.0,0.0,0.0,0.0,0.0,0.0,0.0,0.0,0.0,0.0,0.0,0.0,0.0,0.0,0.0,0.0,0.0,0.0,0.0,0.0,0.0,0.0,0.0,0.0,0.0,0.0,0.0,0.0,0.0,0.0,0.0,0.0,0.0,0.0,0.0,0.0,0.0,0.0,0.0,0.0,0.0,0.0,0.0,0.0,0.0,0.0,0.0,0.0,0.0,0.0,0.0,0.0,0.0,0.0,0.0,0.0,0.0,0.0,0.0,0.0,0.0,0.0,0.0,0.0,0.0,0.0,0.0,0.0,0.0,0.0,0.0,0.0,0.0,0.0,0.0,0.0,0.0,0.0,0.0,0.0,0.0,0.0,0.0,0.0,0.0,0.0,0.0,0.0,0.0,0.0,0.0,0.0,0.0,0.0,0.0,1.3525,1.3532,1.3125,0.0,0.0,0.0,0.0,0.0,0.0,0.0,0.0,0.0,0.0,0.0,0.0,0.0,0.0,0.0,0.0,0.0,0.0,0.0,0.0,0.0,0.0,0.0,0.0,0.0,0.0,0.0,0.0,0.0,0.0,0.0,0.0,0.0,0.0,0.0,0.0,0.0,0.0,0.0,0.0,0.0,0.0,0.0,0.0,0.0,0.0,0.0,0.0,0.0,0.0,0.0,0.0,0.0,0.0,0.0,0.0,0.0,0.0,0.0,0.0,0.0,0.0,0.0,0.0,0.0,0.0,0.0,0.0,0.0,0.0,0.0,0.0,0.0,0.0,0.0,0.0,0.0,0.0,0.0,0.0,0.0,0.0,0.0,0.0,0.0,0.0,0.0,0.0,0.0,0.0,0.0,0.0,0.0,0.0,0.0,0.0,0.0,0.0,0.0,0.0,0.0,0.0,0.0,0.0,0.0,0.0,0.0,0.0,0.0,0.0,1.3542,1.3036,1.3228,0.0,1.2939,0.0,0.0,0.0,0.0,0.0,0.0,0.0,0.0,0.0,0.0,0.0,0.0,0.0,0.0,0.0,0.0,0.0,0.0,0.0,0.0,0.0,0.0,0.0,0.0,0.0,0.0,0.0,0.0,0.0,0.0,0.0,0.0,0.0,0.0,0.0,0.0,0.0,0.0,0.0,0.0,0.0,0.0,0.0,0.0,0.0,0.0,0.0,0.0,0.0,0.0,0.0,0.0,0.0,0.0,0.0,0.0,0.0,0.0,0.0,0.0,0.0,0.0,0.0,0.0,0.0,0.0,0.0,0.0,0.0,0.0,0.0,0.0,0.0,0.0,0.0,0.0,0.0,0.0,0.0,0.0,0.0,0.0,0.0,0.0,0.0,0.0,0.0,0.0,0.0,0.0,0.0,0.0,0.0,0.0,0.0,0.0,0.0,0.0,0.0,0.0,0.0,0.0,0.0,0.0,0.0,0.0,0.0,0.0,0.0,0.0,1.333,1.2991,1.309,1.3023,0.0,0.0,0.0,0.0,0.0,0.0,0.0,0.0,0.0,0.0,0.0,0.0,0.0,0.0,0.0,0.0,0.0,0.0,0.0,0.0,0.0,0.0,0.0,0.0,0.0,0.0,0.0,0.0,0.0,0.0,0.0,0.0,0.0,0.0,0.0,0.0,0.0,0.0,0.0,0.0,0.0,0.0,0.0,0.0,0.0,0.0,0.0,0.0,0.0,0.0,0.0,0.0,0.0,0.0,0.0,0.0,0.0,0.0,0.0,0.0,0.0,0.0,0.0,0.0,0.0,0.0,0.0,0.0,0.0,0.0,0.0,0.0,0.0,0.0,0.0,0.0,0.0,0.0,0.0,0.0,0.0,0.0,0.0,0.0,0.0,0.0,0.0,0.0,0.0,0.0,0.0,0.0,0.0,0.0,0.0,0.0,0.0,0.0,0.0,0.0,0.0,0.0,0.0,0.0,0.0,0.0,0.0,0.0,0.0,0.0,1.3627,1.3324,1.2957,1.2933,1.2861,1.2662,0.0,0.0,0.0,0.0,0.0,0.0,0.0,0.0,0.0,0.0,0.0,0.0,0.0,0.0,0.0,0.0,0.0,0.0,0.0,0.0,0.0,0.0,0.0,0.0,0.0,0.0,0.0,0.0,0.0,0.0,0.0,0.0,0.0,0.0,0.0,0.0,0.0,0.0,0.0,0.0,0.0,0.0,0.0,0.0,0.0,0.0,0.0,0.0,0.0,0.0,0.0,0.0,0.0,0.0,0.0,0.0,0.0,0.0,0.0,0.0,0.0,0.0,0.0,0.0,0.0,0.0,0.0,0.0,0.0,0.0,0.0,0.0,0.0,0.0,0.0,0.0,0.0,0.0,0.0,0.0,0.0,0.0,0.0,0.0,0.0,0.0,0.0,0.0,0.0,0.0,0.0,0.0,0.0,0.0,0.0,0.0,0.0,0.0,0.0,0.0,0.0,0.0,0.0,0.0,0.0,0.0,0.0,0.0,1.4093,1.4057,1.3678,1.2867,1.281,1.2751,0.0,0.0,0.0,0.0,0.0,0.0,0.0,0.0,0.0,0.0,0.0,0.0,0.0,0.0,0.0,0.0,0.0,0.0,0.0,0.0,0.0,0.0,0.0,0.0,0.0,0.0,0.0,0.0,0.0,0.0,0.0,0.0,0.0,0.0,0.0,0.0,0.0,0.0,0.0,0.0,0.0,0.0,0.0,0.0,0.0,0.0,0.0,0.0,0.0,0.0,0.0,0.0,0.0,0.0,0.0,0.0,0.0,0.0,0.0,0.0,0.0,0.0,0.0,0.0,0.0,0.0,0.0,0.0,0.0,0.0,0.0,0.0,0.0,0.0,0.0,0.0,0.0,0.0,0.0,0.0,0.0,0.0,0.0,0.0,0.0,0.0,0.0,0.0,0.0,0.0,0.0,0.0,0.0,0.0,0.0,0.0,0.0,0.0,0.0,0.0,0.0,0.0,0.0,0.0,0.0,0.0,0.0,0.0,0.0,1.4458,1.3968,1.3459,1.2952,1.2931,1.286,0.0,0.0,0.0,0.0,0.0,0.0,0.0,0.0,0.0,0.0,0.0,0.0,0.0,0.0,0.0,0.0,0.0,0.0,0.0,0.0,0.0,0.0,0.0,0.0,0.0,0.0,0.0,0.0,0.0,0.0,0.0,0.0,0.0,0.0,0.0,0.0,0.0,0.0,0.0,0.0,0.0,0.0,0.0,0.0,0.0,0.0,0.0,0.0,0.0,0.0,0.0,0.0,0.0,0.0,0.0,0.0,0.0,0.0,0.0,0.0,0.0,0.0,0.0,0.0,0.0,0.0,0.0,0.0,0.0,0.0,0.0,0.0,0.0,0.0,0.0,0.0,0.0,0.0,0.0,0.0,0.0,0.0,0.0,0.0,0.0,0.0,0.0,0.0,0.0,0.0,0.0,0.0,0.0,0.0,0.0,0.0,0.0,0.0,0.0,0.0,0.0,0.0,0.0,0.0,0.0,0.0,0.0,0.0,0.0,1.4569,0.0,1.341,1.3016,1.3002,1.2938,0.0,0.0,0.0,0.0,0.0,0.0,0.0,0.0,0.0,0.0,0.0,0.0,0.0,0.0,0.0,0.0,0.0,0.0,0.0,0.0,0.0,0.0,0.0,0.0,0.0,0.0,0.0,0.0,0.0,0.0,0.0,0.0,0.0,0.0,0.0,0.0,0.0,0.0,0.0,0.0,0.0,0.0,0.0,0.0,0.0,0.0,0.0,0.0,0.0,0.0,0.0,0.0,0.0,0.0,0.0,0.0,0.0,0.0,0.0,0.0,0.0,0.0,0.0,0.0,0.0,0.0,0.0,0.0,0.0,0.0,0.0,0.0,0.0,0.0,0.0,0.0,0.0,0.0,0.0,0.0,0.0,0.0,0.0,0.0,0.0,0.0,0.0,0.0,0.0,0.0,0.0,0.0,0.0,0.0,0.0,0.0,0.0,0.0,0.0,0.0,0.0,0.0,0.0,0.0,0.0,0.0,0.0,0.0,1.5682,1.4441,1.403,1.3577,1.3031,1.3039,1.2961,0.0,0.0,0.0,0.0,0.0,0.0,0.0,0.0,0.0,0.0,0.0,0.0,0.0,0.0,0.0,0.0,0.0,0.0,0.0,0.0,0.0,0.0,0.0,0.0,0.0,0.0,0.0,0.0,0.0,0.0,0.0,0.0,0.0,0.0,0.0,0.0,0.0,0.0,0.0,0.0,0.0,0.0,0.0,0.0,0.0,0.0,0.0,0.0,0.0,0.0,0.0,0.0,0.0,0.0,0.0,0.0,0.0,0.0,0.0,0.0,0.0,0.0,0.0,0.0,0.0,0.0,0.0,0.0,0.0,0.0,0.0,0.0,0.0,0.0,0.0,0.0,0.0,0.0,0.0,0.0,0.0,0.0,0.0,0.0,0.0,0.0,0.0,0.0,0.0,0.0,0.0,0.0,0.0,0.0,0.0,0.0,0.0,0.0,0.0,0.0,0.0,0.0,0.0,0.0,0.0,0.0,0.0,0.0,0.0,1.4712,1.4562,1.4306,1.3918,1.3892,1.3727,0.0,0.0,0.0,0.0,0.0,0.0,0.0,0.0,0.0,0.0,0.0,0.0,0.0,0.0,0.0,0.0,0.0,0.0,0.0,0.0,0.0,0.0,0.0,0.0,0.0,0.0,0.0,0.0,0.0,0.0,0.0,0.0,0.0,0.0,0.0,0.0,0.0,0.0,0.0,0.0,0.0,0.0,0.0,0.0,0.0,0.0,0.0,0.0,0.0,0.0,0.0,0.0,0.0,0.0,0.0,0.0,0.0,0.0,0.0,0.0,0.0,0.0,0.0,0.0,0.0,0.0,0.0,0.0,0.0,0.0,0.0,0.0,0.0,0.0,0.0,0.0,0.0,0.0,0.0,0.0,0.0,0.0,0.0,0.0,0.0,0.0,0.0,0.0,0.0,0.0,0.0,0.0,0.0,0.0,0.0,0.0,0.0,0.0,0.0,0.0,0.0,0.0,0.0,0.0,0.0,0.0,0.0,0.0,0.0,1.5669,1.5258,1.4904,1.4584,1.4493,1.4328,1.4211,0.0,0.0,0.0,0.0,0.0,0.0,0.0,0.0,0.0,0.0,0.0,0.0,0.0,0.0,0.0,0.0,0.0,0.0,0.0,0.0,0.0,0.0,0.0,0.0,0.0,0.0,0.0,0.0,0.0,0.0,0.0,0.0,0.0,0.0,0.0,0.0,0.0,0.0,0.0,0.0,0.0,0.0,0.0,0.0,0.0,0.0,0.0,0.0,0.0,0.0,0.0,0.0,0.0,0.0,0.0,0.0,0.0,0.0,0.0,0.0,0.0,0.0,0.0,0.0,0.0,0.0,0.0,0.0,0.0,0.0,0.0,0.0,0.0,0.0,0.0,0.0,0.0,0.0,0.0,0.0,0.0,0.0,0.0,0.0,0.0,0.0,0.0,0.0,0.0,0.0,0.0,0.0,0.0,0.0,0.0,0.0,0.0,0.0,0.0,0.0,0.0,0.0,0.0,0.0,0.0,0.0,0.0,0.0,1.7147,1.6076,1.5413,1.5173,1.4938,1.4876,0.0,0.0,0.0,0.0,0.0,0.0,0.0,0.0,0.0,0.0,0.0,0.0,0.0,0.0,0.0,0.0,0.0,0.0,0.0,0.0,0.0,0.0,0.0,0.0,0.0,0.0,0.0,0.0,0.0,0.0,0.0,0.0,0.0,0.0,0.0,0.0,0.0,0.0,0.0,0.0,0.0,0.0,0.0,0.0,0.0,0.0,0.0,0.0,0.0,0.0,0.0,0.0,0.0,0.0,0.0,0.0,0.0,0.0,0.0,0.0,0.0,0.0,0.0,0.0,0.0,0.0,0.0,0.0,0.0,0.0,0.0,0.0,0.0,0.0,0.0,0.0,0.0,0.0,0.0,0.0,0.0,0.0,0.0,0.0,0.0,0.0,0.0,0.0,0.0,0.0,0.0,0.0,0.0,0.0,0.0,0.0,0.0,0.0,0.0,0.0,0.0,0.0,0.0,0.0,0.0,0.0,0.0,0.0,0.0,1.7749,1.7201,1.6621,1.6173,1.6323,1.6254,0.0,0.0,0.0,0.0,0.0,0.0,0.0,0.0,0.0,0.0,0.0,0.0,0.0,0.0,0.0,0.0,0.0,0.0,0.0,0.0,0.0,0.0,0.0,0.0,0.0,0.0,0.0,0.0,0.0,0.0,0.0,0.0,0.0,0.0,0.0,0.0,0.0,0.0,0.0,0.0,0.0,0.0,0.0,0.0,0.0,0.0,0.0,0.0,0.0,0.0,0.0,0.0,0.0,0.0,0.0,0.0,0.0,0.0,0.0,0.0,0.0,0.0,0.0,0.0,0.0,0.0,0.0,0.0,0.0,0.0,0.0,0.0,0.0,0.0,0.0,0.0,0.0,0.0,0.0,0.0,0.0,0.0,0.0,0.0,0.0,0.0,0.0,0.0,0.0,0.0,0.0,0.0,0.0,0.0,0.0,0.0,0.0,0.0,0.0,0.0,0.0,0.0,0.0,0.0,0.0,0.0,0.0,0.0,1.8732,1.8507,1.8466,1.8199,1.7624,1.7471,1.7242,0.0,0.0,0.0,0.0,0.0,0.0,0.0,0.0,0.0,0.0,0.0,0.0,0.0,0.0,0.0,0.0,0.0,0.0,0.0,0.0,0.0,0.0,0.0,0.0,0.0,0.0,0.0,0.0,0.0,0.0,0.0,0.0,0.0,0.0,0.0,0.0,0.0,0.0,0.0,0.0,0.0,0.0,0.0,0.0,0.0,0.0,0.0,0.0,0.0,0.0,0.0,0.0,0.0,0.0,0.0,0.0,0.0,0.0,0.0,0.0,0.0,0.0,0.0,0.0,0.0,0.0,0.0,0.0,0.0,0.0,0.0,0.0,0.0,0.0,0.0,0.0,0.0,0.0,0.0,0.0,0.0,0.0,0.0,0.0,0.0,0.0,0.0,0.0,0.0,0.0,0.0,0.0,0.0,0.0,0.0,0.0,0.0,0.0,0.0,0.0,0.0,0.0,0.0,0.0,0.0,0.0,0.0,0.0,1.9738,1.9354,1.9691,1.9709,1.9345,1.8506,1.8115,0.0,0.0,0.0,0.0,0.0,0.0,0.0,0.0,0.0,0.0,0.0,0.0,0.0,0.0,0.0,0.0,0.0,0.0,0.0,0.0,0.0,0.0,0.0,0.0,0.0,0.0,0.0,0.0,0.0,0.0,0.0,0.0,0.0,0.0,0.0,0.0,0.0,0.0,0.0,0.0,0.0,0.0,0.0,0.0,0.0,0.0,0.0,0.0,0.0,0.0,0.0,0.0,0.0,0.0,0.0,0.0,0.0,0.0,0.0,0.0,0.0,0.0,0.0,0.0,0.0,0.0,0.0,0.0,0.0,0.0,0.0,0.0,0.0,0.0,0.0,0.0,0.0,0.0,0.0,0.0,0.0,0.0,0.0,0.0,0.0,0.0,0.0,0.0,0.0,0.0,0.0,0.0,0.0,0.0,0.0,0.0,0.0,0.0,0.0,0.0,0.0,0.0,0.0,0.0,0.0,0.0,0.0,0.0,2.0195,2.0267,2.0054,2.0021,2.0327,1.9916,1.9627,0.0,0.0,0.0,0.0,0.0,0.0,0.0,0.0,0.0,0.0,0.0,0.0,0.0,0.0,0.0,0.0,0.0,0.0,0.0,0.0,0.0,0.0,0.0,0.0,0.0,0.0,0.0,0.0,0.0,0.0,0.0,0.0,0.0,0.0,0.0,0.0,0.0,0.0,0.0,0.0,0.0,0.0,0.0,0.0,0.0,0.0,0.0,0.0,1.6244,0.0,0.0,0.0,0.0,0.0,0.0,0.0,0.0,0.0,0.0,0.0,0.0,0.0,0.0,0.0,0.0,0.0,0.0,0.0,0.0,0.0,0.0,0.0,0.0,0.0,0.0,0.0,0.0,0.0,0.0,0.0,0.0,0.0,0.0,0.0,0.0,0.0,0.0,0.0,0.0,0.0,0.0,0.0,0.0,0.0,0.0,0.0,0.0,0.0,0.0,0.0,0.0,0.0,0.0,0.0,0.0,0.0,0.0,0.0,2.0976,2.1009,2.1075,2.117,2.1283,2.1234,2.1054,0.0,0.0,0.0,0.0,0.0,0.0,0.0,0.0,0.0,0.0,0.0,0.0,0.0,0.0,0.0,0.0,0.0,0.0,0.0,0.0,0.0,0.0,0.0,0.0,0.0,0.0,0.0,0.0,0.0,0.0,0.0,0.0,0.0,0.0,0.0,0.0,0.0,0.0,0.0,0.0,0.0,0.0,0.0,0.0,0.0,0.0,0.0,0.0,0.0,0.0,0.0,0.0,0.0,0.0,0.0,0.0,0.0,0.0,0.0,0.0,0.0,0.0,0.0,0.0,0.0,0.0,0.0,0.0,0.0,0.0,0.0,0.0,0.0,0.0,0.0,0.0,0.0,0.0,0.0,0.0,0.0,0.0,0.0,0.0,0.0,0.0,0.0,0.0,0.0,0.0,0.0,0.0,0.0,0.0,0.0,0.0,0.0,0.0,0.0,0.0,0.0,0.0,0.0,0.0,0.0,0.0,0.0,2.2025,2.1948,2.1815,2.2252,2.2436,2.2298,2.246,2.2332,2.1822,0.0,0.0,0.0,0.0,0.0,0.0,0.0,0.0,0.0,0.0,0.0,0.0,0.0,0.0,0.0,0.0,0.0,0.0,0.0,0.0,0.0,0.0,0.0,0.0,0.0,0.0,0.0,0.0,0.0,0.0,0.0,0.0,0.0,0.0,0.0,0.0,0.0,0.0,1.9473,1.8424,0.0,0.0,0.0,0.0,0.0,0.0,0.0,0.0,1.5868,0.0,0.0,0.0,0.0,0.0,0.0,0.0,0.0,0.0,0.0,0.0,0.0,0.0,0.0,0.0,0.0,0.0,0.0,0.0,0.0,0.0,0.0,0.0,0.0,0.0,0.0,0.0,0.0,0.0,0.0,0.0,0.0,0.0,0.0,0.0,0.0,0.0,0.0,0.0,0.0,0.0,0.0,0.0,0.0,0.0,0.0,0.0,0.0,0.0,0.0,0.0,0.0,0.0,0.0,0.0,0.0,2.34,2.3114,2.3056,2.3158,2.3062,2.3062,2.3254,2.3307,2.3402,2.3491,0.0,0.0,0.0,0.0,0.0,0.0,0.0,0.0,0.0,0.0,0.0,0.0,0.0,0.0,0.0,0.0,0.0,0.0,0.0,0.0,0.0,0.0,0.0,0.0,0.0,0.0,0.0,0.0,0.0,0.0,0.0,0.0,0.0,0.0,0.0,0.0,0.0,0.0,0.0,1.9288,1.8596,0.0,0.0,0.0,0.0,0.0,0.0,0.0,0.0,1.69,0.0,0.0,0.0,0.0,0.0,0.0,0.0,0.0,0.0,0.0,0.0,0.0,0.0,0.0,0.0,0.0,0.0,0.0,0.0,0.0,0.0,0.0,0.0,0.0,0.0,0.0,0.0,0.0,0.0,0.0,0.0,0.0,0.0,0.0,0.0,0.0,0.0,0.0,0.0,0.0,0.0,0.0,0.0,0.0,0.0,0.0,0.0,0.0,0.0,0.0,0.0,0.0,0.0,0.0,0.0,2.4025,2.3927,2.3927,2.4016,2.3907,2.395,2.4209,2.4084,2.4122,0.0,0.0,0.0,0.0,0.0,0.0,0.0,0.0,0.0,0.0,0.0,0.0,0.0,0.0,0.0,0.0,0.0,0.0,0.0,0.0,0.0,0.0,0.0,0.0,0.0,0.0,0.0,0.0,0.0,0.0,0.0,0.0,0.0,0.0,0.0,0.0,0.0,0.0,0.0,0.0,2.0027,1.944,1.8508,0.0,0.0,0.0,0.0,0.0,0.0,1.6815,1.7132,0.0,0.0,0.0,0.0,0.0,0.0,0.0,0.0,0.0,0.0,0.0,0.0,0.0,0.0,0.0,0.0,0.0,0.0,0.0,0.0,0.0,0.0,0.0,0.0,0.0,0.0,0.0,0.0,0.0,0.0,0.0,0.0,0.0,0.0,0.0,0.0,0.0,0.0,0.0,0.0,0.0,0.0,0.0,0.0,0.0,0.0,0.0,0.0,0.0,0.0,0.0,0.0,0.0,0.0,0.0,2.479,2.4968,2.5029,2.5019,2.506,2.5113,2.5253,2.5102,2.4968,0.0,0.0,0.0,0.0,0.0,0.0,0.0,0.0,0.0,0.0,0.0,0.0,0.0,0.0,0.0,0.0,0.0,0.0,0.0,0.0,0.0,0.0,0.0,0.0,0.0,0.0,0.0,0.0,0.0,0.0,0.0,0.0,0.0,0.0,0.0,0.0,0.0,0.0,0.0,0.0,0.0,2.0222,1.9032,1.8899,0.0,0.0,0.0,0.0,1.7335,1.7332,0.0,0.0,0.0,0.0,0.0,0.0,0.0,0.0,0.0,0.0,0.0,0.0,0.0,0.0,0.0,0.0,0.0,0.0,0.0,0.0,0.0,0.0,0.0,0.0,0.0,0.0,0.0,0.0,0.0,0.0,0.0,0.0,0.0,0.0,0.0,0.0,0.0,0.0,0.0,0.0,0.0,0.0,0.0,0.0,0.0,0.0,0.0,0.0,0.0,0.0,0.0,0.0,0.0,0.0,0.0,0.0,2.6442,2.6772,2.6867,2.6711,2.6976,2.6835,2.6432,2.6592,2.6224,0.0,0.0,0.0,0.0,0.0,0.0,0.0,0.0,0.0,0.0,0.0,0.0,0.0,0.0,0.0,0.0,0.0,0.0,0.0,0.0,0.0,0.0,0.0,0.0,0.0,0.0,0.0,0.0,0.0,0.0,0.0,0.0,0.0,0.0,0.0,0.0,0.0,0.0,0.0,0.0,0.0,2.1151,2.0458,1.9867,1.9417,0.0,0.0,1.8889,1.8478,1.8733,0.0,0.0,0.0,0.0,0.0,0.0,0.0,0.0,0.0,0.0,0.0,0.0,0.0,0.0,0.0,0.0,0.0,0.0,0.0,0.0,0.0,0.0,0.0,0.0,0.0,0.0,0.0,0.0,0.0,0.0,0.0,0.0,0.0,0.0,0.0,0.0,0.0,0.0,0.0,0.0,0.0,0.0,0.0,0.0,0.0,0.0,0.0,0.0,0.0,0.0,0.0,0.0,0.0,0.0,0.0,2.741,2.7866,2.7976,2.808,2.8154,2.8209,2.7944,2.7395,2.7522,2.7026,0.0,0.0,0.0,0.0,0.0,0.0,0.0,0.0,0.0,0.0,0.0,0.0,0.0,0.0,0.0,0.0,0.0,0.0,0.0,0.0,0.0,0.0,0.0,0.0,0.0,0.0,0.0,0.0,0.0,0.0,0.0,0.0,0.0,0.0,0.0,0.0,0.0,0.0,0.0,0.0,0.0,0.0,2.1385,2.1172,0.0,0.0,0.0,2.0214,1.9561,0.0,0.0,0.0,0.0,0.0,0.0,0.0,0.0,0.0,0.0,0.0,0.0,0.0,0.0,0.0,0.0,0.0,0.0,0.0,0.0,0.0,0.0,0.0,0.0,0.0,0.0,0.0,0.0,0.0,0.0,0.0,0.0,0.0,0.0,0.0,0.0,0.0,0.0,0.0,0.0,0.0,0.0,0.0,0.0,0.0,0.0,0.0,0.0,0.0,0.0,0.0,0.0,0.0,0.0,0.0,0.0,0.0,2.9369,2.9306,2.9422,2.9721,2.9628,2.9324,2.8757,2.8617,0.0,0.0,0.0,0.0,0.0,0.0,0.0,0.0,0.0,0.0,0.0,0.0,0.0,0.0,0.0,0.0,0.0,0.0,0.0,0.0,0.0,0.0,0.0,0.0,0.0,0.0,0.0,2.6688,0.0,0.0,0.0,0.0,0.0,0.0,0.0,0.0,0.0,0.0,0.0,0.0,0.0,0.0,2.3313,2.2397,2.2297,2.2103,0.0,0.0,2.1307,2.0801,2.0721,2.0822,0.0,0.0,0.0,0.0,0.0,0.0,0.0,0.0,0.0,0.0,0.0,0.0,0.0,0.0,0.0,0.0,0.0,0.0,0.0,0.0,0.0,0.0,0.0,0.0,0.0,0.0,0.0,0.0,0.0,0.0,0.0,0.0,0.0,0.0,0.0,0.0,0.0,0.0,0.0,0.0,0.0,0.0,0.0,0.0,0.0,0.0,0.0,0.0,0.0,0.0,0.0,0.0,0.0,0.0,3.0122,3.1007,3.1115,3.1203,3.1436,3.1668,3.1462,3.0728,3.0248,2.962,0.0,0.0,0.0,0.0,0.0,0.0,0.0,0.0,0.0,0.0,0.0,0.0,0.0,0.0,0.0,0.0,0.0,0.0,0.0,0.0,0.0,0.0,0.0,0.0,0.0,0.0,0.0,0.0,0.0,0.0,0.0,0.0,0.0,0.0,0.0,0.0,0.0,0.0,0.0,0.0,0.0,2.4312,2.3585,2.3001,2.2715,0.0,2.2461,2.21,2.229,2.212,2.2012,2.2026,0.0,0.0,0.0,0.0,0.0,0.0,0.0,0.0,0.0,0.0,0.0,0.0,0.0,0.0,0.0,0.0,0.0,0.0,0.0,0.0,0.0,0.0,0.0,0.0,0.0,0.0,0.0,0.0,0.0,0.0,0.0,0.0,0.0,0.0,0.0,0.0,0.0,0.0,0.0,0.0,0.0,0.0,0.0,0.0,0.0,0.0,0.0,0.0,0.0,0.0,0.0,0.0,0.0,3.1558,3.2476,3.2602,3.2803,3.3127,3.2973,3.2554,3.1945,3.1608,3.0909,0.0,0.0,0.0,0.0,0.0,0.0,0.0,0.0,0.0,0.0,0.0,0.0,0.0,0.0,0.0,0.0,0.0,0.0,0.0,0.0,0.0,0.0,0.0,0.0,0.0,0.0,0.0,0.0,2.8918,2.9223,2.9968,0.0,0.0,0.0,0.0,0.0,0.0,0.0,0.0,0.0,0.0,2.5464,2.4755,2.448,0.0,0.0,2.3602,2.3358,2.3045,2.3005,2.305,2.304,2.3482,0.0,0.0,0.0,0.0,0.0,0.0,0.0,0.0,0.0,0.0,0.0,0.0,0.0,0.0,0.0,0.0,0.0,0.0,0.0,0.0,0.0,0.0,0.0,0.0,0.0,0.0,0.0,0.0,0.0,0.0,0.0,0.0,0.0,0.0,0.0,0.0,0.0,0.0,0.0,0.0,0.0,0.0,0.0,0.0,0.0,0.0,0.0,0.0,0.0,0.0,0.0,0.0,3.2962,3.3738,3.3979,3.4244,3.4538,3.4189,3.3743,3.3232,3.2941,3.2224,0.0,0.0,0.0,0.0,0.0,0.0,0.0,0.0,0.0,0.0,0.0,0.0,0.0,0.0,0.0,0.0,0.0,0.0,0.0,0.0,0.0,0.0,0.0,0.0,0.0,0.0,0.0,0.0,2.9954,3.0244,3.0748,0.0,0.0,0.0,0.0,0.0,0.0,0.0,0.0,0.0,0.0,2.6607,2.5884,2.5636,2.5307,2.4728,2.4478,2.4227,2.3924,2.3873,2.3888,2.4004,0.0,0.0,0.0,0.0,0.0,0.0,0.0,0.0,0.0,0.0,0.0,0.0,0.0,0.0,0.0,0.0,0.0,0.0,0.0,0.0,0.0,0.0,0.0,0.0,0.0,0.0,0.0,3.642,0.0,0.0,3.5427,0.0,0.0,0.0,0.0,0.0,0.0,0.0,0.0,0.0,0.0,0.0,0.0,0.0,0.0,0.0,0.0,0.0,0.0,0.0,0.0,0.0,0.0,3.4369,3.4775,3.5225,3.5533,3.5642,3.5453,3.5127,3.4677,3.4149,3.3568,3.2922,0.0,0.0,0.0,0.0,0.0,0.0,0.0,0.0,0.0,0.0,0.0,0.0,0.0,0.0,0.0,0.0,0.0,0.0,0.0,0.0,0.0,0.0,0.0,0.0,0.0,0.0,3.1405,3.1751,3.1921,0.0,0.0,0.0,0.0,0.0,0.0,0.0,0.0,0.0,2.8546,2.8163,2.769,2.6989,2.6239,2.5799,2.5706,2.5022,2.4664,2.5092,2.4792,2.4599,0.0,0.0,0.0,0.0,0.0,0.0,0.0,0.0,0.0,0.0,0.0,0.0,0.0,0.0,0.0,0.0,0.0,0.0,0.0,0.0,0.0,0.0,0.0,0.0,0.0,0.0,0.0,3.824,3.8041,0.0,0.0,0.0,0.0,0.0,0.0,0.0,0.0,0.0,0.0,0.0,4.1883,4.1612,0.0,0.0,0.0,0.0,0.0,0.0,0.0,0.0,0.0,0.0,0.0,0.0,3.5805,3.6237,3.6665,3.6859,3.6755,3.6429,3.6191,3.6057,3.5546,3.4707,3.3424,0.0,0.0,0.0,0.0,0.0,0.0,0.0,0.0,0.0,0.0,0.0,0.0,0.0,0.0,0.0,0.0,0.0,0.0,0.0,0.0,0.0,0.0,0.0,0.0,0.0,3.1881,0.0,0.0,0.0,0.0,0.0,0.0,0.0,0.0,0.0,0.0,0.0,2.9808,2.9435,2.9202,2.8807,2.8065,2.7557,2.7121,0.0,0.0,0.0,0.0,0.0,0.0,0.0,0.0,0.0,0.0,0.0,0.0,0.0,0.0,2.6726,2.6349,2.6233,2.6108,2.5893,0.0,0.0,0.0,0.0,0.0,0.0,0.0,0.0,0.0,0.0,0.0,0.0,0.0,0.0,4.0588,0.0,4.0368,0.0,0.0,0.0,0.0,0.0,0.0,0.0,0.0,4.2792,4.3504,4.4056,4.3841,4.3748,0.0,4.28,4.1614,0.0,0.0,0.0,0.0,0.0,0.0,0.0,0.0,3.7183,3.7499,3.7883,3.8014,3.781,3.7481,3.725,3.712,3.6574,3.576,3.482,3.3782,3.2696,0.0,0.0,0.0,0.0,0.0,0.0,0.0,0.0,0.0,0.0,0.0,0.0,0.0,0.0,0.0,0.0,0.0,0.0,0.0,0.0,0.0,0.0,0.0,3.2508,0.0,0.0,0.0,0.0,0.0,0.0,0.0,0.0,0.0,3.1117,3.0851,3.0673,3.0358,3.0146,2.9794,2.9093,0.0,0.0,0.0,0.0,0.0,0.0,0.0,2.717,2.7237,2.7284,2.7397,2.7564,2.7676,2.7789,2.7789,0.0,0.0,2.6897,2.6807,2.6739,2.6512,2.6129,2.5765,2.5425,2.431,2.3264,0.0,0.0,0.0,0.0,0.0,0.0,0.0,0.0,4.4051,4.3972,0.0,4.3346,0.0,0.0,0.0,0.0,4.2318,4.3073,0.0,0.0,4.4686,4.4753,4.5032,4.5245,4.5261,4.5228,4.5196,4.5147,4.4854,4.1182,0.0,0.0,0.0,0.0,0.0,0.0,3.8537,3.8592,3.9026,3.9127,3.8944,3.8737,3.8425,3.7991,3.7198,3.6839,3.6952,3.5313,3.4457,3.4691,3.3551,0.0,0.0,0.0,0.0,0.0,0.0,0.0,0.0,0.0,0.0,0.0,0.0,0.0,0.0,0.0,0.0,0.0,0.0,0.0,0.0,3.2964,0.0,0.0,0.0,0.0,0.0,0.0,0.0,0.0,0.0,0.0,3.1894,3.1768,3.1625,3.1365,0.0,0.0,0.0,0.0,2.917,2.8652,2.8395,2.8266,2.8279,2.8149,2.8117,2.832,0.0,0.0,2.832,2.8352,2.8352,2.832,2.8352,2.8137,2.7503,2.7214,2.7045,2.7011,2.685,2.6633,2.6327,2.5115,2.3985,4.9423,0.0,0.0,0.0,0.0,4.6207,4.6222,4.6056,4.588,4.5685,4.5489,4.5096,0.0,0.0,0.0,0.0,0.0,0.0,4.6094,4.6881,4.7473,4.8149,4.8862,4.8945,4.8663,4.8084,4.7636,4.6961,4.6126,4.4366,4.2912,4.1716,0.0,0.0,0.0,0.0,4.1065,4.1377,4.1395,4.1362,4.131,4.1075,4.0554,3.9699,3.8856,3.8223,3.7809,3.7264,3.6438,3.5338,3.5021,0.0,0.0,0.0,0.0,0.0,0.0,0.0,0.0,0.0,0.0,0.0,0.0,0.0,0.0,0.0,0.0,0.0,0.0,0.0,3.3688,3.3841,3.3984,0.0,0.0,0.0,0.0,0.0,0.0,0.0,0.0,0.0,3.3298,3.2803,3.2367,0.0,0.0,3.1623,3.1146,3.0659,3.0238,2.9981,2.9718,0.0,2.9577,2.9515,2.9515,2.9591,2.9435,2.931,2.9373,2.9279,2.9243,2.9212,2.9103,2.8899,2.8638,2.802,2.7556,2.7369,2.7235,2.6912,2.6256,2.5325,2.4367,5.2903,5.1045,4.9424,4.8746,4.8762,4.8779,4.8712,4.8579,4.8249,4.8117,4.81,4.7768,4.7665,4.7744,4.7744,0.0,0.0,0.0,4.848,4.8995,4.9493,5.0026,5.056,5.0593,5.0309,4.9842,4.9141,4.8476,4.7768,4.6958,4.6075,4.5032,0.0,0.0,4.2911,4.2805,4.2871,4.3118,4.2956,4.2798,4.271,4.2582,4.199,4.0973,4.0434,3.9833,3.9078,3.8812,3.8167,3.7122,3.6643,3.6026,0.0,0.0,0.0,0.0,0.0,0.0,0.0,0.0,0.0,0.0,0.0,3.3668,3.3822,0.0,0.0,0.0,3.4151,3.425,3.4382,3.4497,0.0,0.0,0.0,0.0,0.0,0.0,0.0,3.4521,3.4472,3.4374,3.43,3.3866,3.3371,3.29,3.266,3.237,3.1992,0.0,3.1349,3.1072,3.0896,3.0807,3.0748,3.0688,3.0598,3.0493,3.0372,3.0297,3.0267,3.016,3.0083,3.0038,2.9884,2.9654,2.9526,2.8994,2.8449,2.802,2.7584,2.7079,2.6596,2.5557,2.4457,5.5853,5.4982,5.2268,5.1061,5.0961,5.0911,5.0877,5.0877,5.0827,5.0793,5.0793,5.0776,5.0776,5.0776,5.0743,0.0,4.9769,5.0424,5.0743,5.0827,5.081,5.086,5.0944,5.096,5.091,5.0826,5.0156,4.9738,4.9587,4.8917,4.847,4.8162,4.5947,4.4801,4.4735,4.4433,4.4247,4.4247,4.4074,4.3867,4.3696,4.349,4.2954,4.2042,4.1965,4.1484,4.0627,4.0029,3.9658,3.9532,3.8361,3.753,3.7168,0.0,0.0,0.0,0.0,0.0,0.0,0.0,0.0,0.0,0.0,0.0,0.0,0.0,0.0,0.0,3.5055,0.0,3.516,3.5177,0.0,0.0,0.0,3.5037,3.4987,3.497,3.497,3.4954,0.0,0.0,3.4947,3.4811,3.4472,3.372,3.333,3.298,3.2738,3.2547,3.2355,3.2005,3.1992,3.1892,3.1781,3.1652,3.1465,3.1219,3.1117,3.1087,3.1073,3.0984,3.0896,3.0837,3.0598,3.0372,3.0221,2.9981,2.9583,2.8816,2.7939,2.7264,2.7018,2.573,2.454,5.6554,5.6284,5.5036,5.402,5.3189,5.2602,5.2384,5.2317,5.1934,5.1766,5.1748,5.1438,5.1314,5.1314,5.1153,5.0986,5.0818,5.0986,5.1374,5.1898,5.1914,5.2317,5.2958,5.2991,5.2687,5.2162,5.1976,5.1169,4.9866,4.9648,4.9166,4.842,4.7829,4.7324,4.693,4.6612,4.6426,4.636,4.6221,4.6118,4.6083,4.5397,4.4653,4.3882,4.3206,4.2419,4.154,4.135,4.0953,4.0368,3.9502,3.8857,3.8527,3.7393,0.0,0.0,0.0,0.0,0.0,0.0,0.0,0.0,0.0,3.493,3.5108,0.0,3.6232,0.0,3.6958,3.7384,3.7494,3.7418,0.0,0.0,3.6405,3.6202,3.5661,3.5487,3.5481,3.5571,3.5418,3.5287,3.5287,3.5118,3.4947,3.4715,3.4209,3.3755,3.3487,3.3193,3.2953,3.2792,3.2668,3.2586,3.2516,3.2422,3.2312,3.2228,3.2048,3.191,3.1894,3.1766,3.1595,3.1523,3.1452,3.1292,3.1043,3.05,2.9959,2.9548,2.8685,2.7653,2.6704,2.5767,2.5044,5.7289,5.7222,5.6494,5.583,5.5162,5.4456,5.3986,5.3719,5.3433,5.3196,5.2924,5.2713,5.2622,5.2605,5.2509,5.2411,5.2313,5.2313,5.2517,5.294,5.2907,5.3276,5.3816,5.3849,5.3628,5.3203,5.288,5.2155,5.11,5.0441,4.982,4.9224,4.8826,4.8515,4.826,4.7869,4.7621,4.7605,4.7471,4.7404,4.7387,4.691,4.6125,4.5,4.4464,4.3638,4.2429,4.238,4.2156,4.1644,4.0939,4.0309,3.9871,3.8873,3.827,0.0,0.0,0.0,0.0,0.0,0.0,0.0,0.0,0.0,0.0,0.0,3.7592,3.766,3.8117,3.8419,3.8419,3.8351,3.8134,3.7706,3.7672,3.7358,3.6657,3.6488,3.6329,3.6022,3.5844,3.5734,3.5672,3.5509,3.5412,3.5412,3.5031,3.461,3.4226,3.3917,3.3739,3.361,3.3465,3.3361,3.3308,3.3166,3.3076,3.2996,3.2877,3.2769,3.2687,3.2535,3.2339,3.2216,3.2148,3.1886,3.1332,3.0889,3.033,2.943,2.8795,2.7983,2.6933,2.613,2.5472,5.7881,5.7831,5.7205,5.6934,5.6936,5.631,5.5601,5.4941,5.4873,5.4531,5.403,5.403,5.4013,5.4013,5.403,5.3882,5.3733,5.375,5.375,5.3733,5.375,5.3849,5.4013,5.4013,5.4013,5.3996,5.338,5.2925,5.2611,5.1335,5.0575,5.0282,4.9548,4.9193,4.9168,4.8761,4.8407,4.8227,4.8147,4.8099,4.8082,4.8131,4.7336,4.5739,4.5639,4.4853,4.327,4.3204,4.3113,4.299,4.2288,4.1691,4.1198,4.0661,4.0041,0.0,3.9528,0.0,0.0,0.0,0.0,0.0,0.0,0.0,0.0,3.874,3.8911,3.9015,3.9138,3.9138,3.9015,3.8992,3.8936,3.8849,3.8849,3.852,3.7698,3.7577,3.7241,3.6358,3.6247,3.6187,3.6062,3.5949,3.5861,3.5844,3.5756,3.547,3.5008,3.4739,3.4546,3.4423,3.4275,3.4134,3.4034,3.3899,3.3771,3.3642,3.3591,3.3539,3.3424,3.3261,3.3087,3.2949,3.2721,3.2284,3.1417,3.1121,3.0437,2.9208,2.8703,2.8192,2.7341,2.6575,2.5935,5.7881,5.7881,5.7729,5.7787,5.7931,5.7812,5.6963,5.5723,5.5246,5.4697,5.416,5.4045,5.4045,5.4143,5.4045,5.3997,5.3948,5.3948,5.3965,5.3965,5.3948,5.4013,5.4143,5.4175,5.4158,5.4158,5.4038,5.3565,5.2855,5.2565,5.2121,5.1475,5.1322,5.0915,5.0318,0.0,0.0,0.0,4.8547,4.8562,4.8562,4.8736,4.7998,4.6384,4.6317,0.0,4.3767,4.3667,4.3608,4.3443,4.2912,0.0,0.0,0.0,0.0,0.0,0.0,0.0,0.0,0.0,0.0,0.0,4.1453,4.0754,3.9326,3.9792,4.0528,4.1265,4.1292,4.1231,4.1209,4.1082,4.081,4.0215,4.0127,3.9581,3.8129,3.7899,3.7579,3.6707,3.652,3.6423,3.6402,3.6297,3.6195,3.6233,3.6174,3.6131,3.6006,3.5509,3.5088,3.497,3.4811,3.4739,3.4707,3.4594,3.4456,3.4349,3.4226,3.4068,3.3942,3.386,3.3799,3.364,3.3112,3.2504,3.2136,3.1052,3.008,2.9645,2.9018,2.825,2.738,2.6849,2.6457,5.8099,5.8188,5.8188,5.826,0.0,5.8455,5.8098,5.7346,5.6628,5.5803,5.4868,5.4443,5.4271,5.4335,5.4271,5.4175,5.4093,5.411,5.411,5.411,5.411,5.4175,5.4353,5.4353,5.4335,5.4353,5.4335,5.4083,5.3545,5.3169,5.2777,5.2338,5.1979,5.1569,5.1193,5.0799,5.0053,4.8984,4.906,4.909,4.909,4.9216,4.8672,4.748,4.7056,0.0,0.0,0.0,0.0,0.0,0.0,0.0,0.0,4.3431,0.0,4.3301,4.3313,4.3444,4.3691,4.3134,4.2855,4.2941,4.2565,4.1889,4.0843,4.1206,4.1677,4.2086,4.2121,4.21,4.2058,4.1931,4.169,4.1319,4.1276,4.0595,3.9109,3.879,3.8274,3.7156,3.6831,3.6791,3.6748,3.671,3.665,3.665,3.665,3.665,3.6588,3.6084,3.5577,3.5373,3.5281,3.5258,3.5234,3.5211,3.5055,3.4913,3.4497,3.4164,3.3989,3.3654,3.3361,3.3185,3.2748,3.2321,3.1766,3.0958,3.0267,2.9753,2.9296,2.8811,2.8165,2.767,2.7265,5.845,5.849,5.849,5.8525,5.8561,5.8701,5.8823,5.8806,0.0,0.0,0.0,5.4977,5.4632,5.4512,5.4512,5.4399,5.4271,5.4254,5.4271,5.4271,5.4239,5.4335,5.4512,5.4512,5.4512,5.4512,5.4512,5.4416,5.4237,5.3636,5.3312,5.312,5.2586,5.2141,5.1833,5.1097,5.0313,4.9611,4.9547,4.953,4.9547,4.9577,4.9218,4.847,4.7672,4.6902,4.6161,4.5426,4.5059,4.5059,4.5113,4.4902,4.4449,4.4653,4.4614,4.4302,4.4577,4.4813,4.4943,4.4357,4.3958,4.3834,4.3098,4.2552,4.2369,4.2391,4.2412,4.2369,4.2391,4.2412,4.2351,4.2267,4.2187,4.2187,4.2139,4.1455,3.9944,3.9696,3.9018,3.7521,3.7129,3.7127,3.7048,3.7046,3.7029,3.7066,3.7027,3.7029,3.695,3.6489,3.6002,3.5783,3.5756,3.5717,3.57,3.5547,3.5458,3.5172,3.4516,3.3991,3.3683,3.3217,3.279,3.2706,3.2428,3.1954,3.1318,3.0961,3.0561,2.9762,2.9627,2.9515,2.9113,2.8646,2.8165,5.9054,5.849,5.849,5.8596,5.8753,5.8788,5.8875,5.8892,5.8203,5.7013,5.5583,5.548,5.5115,5.4512,5.4512,5.4463,5.448,5.448,5.4448,5.4448,5.4463,5.448,5.4512,5.4512,5.4512,5.4512,5.4512,5.4463,5.4463,5.4359,5.4276,5.4276,5.419,5.3466,5.2178,5.1387,5.0676,4.9952,4.9755,4.9679,4.9679,4.983,4.9469,4.8598,4.786,4.7088,4.6327,4.5571,4.523,4.5319,4.5572,4.5674,4.5596,4.5993,4.6312,4.6329,4.5994,4.5835,4.5964,4.5267,4.4574,4.3991,4.3275,4.2786,4.2589,4.257,4.257,4.257,4.257,4.257,4.257,4.2512,4.253,4.2512,4.251,4.1862,4.0225,3.9991,3.9325,3.7606,3.7373,3.7318,3.7297,3.7278,3.7278,3.7259,3.7278,3.7239,3.7089,3.6756,3.6451,3.6241,3.6216,3.6195,3.6143,3.5628,3.5269,3.4904,3.4261,3.3668,3.3414,3.3169,3.3013,3.3045,3.2419,3.1912,3.1639,3.1031,3.0552,3.013,3.0087,3.0,2.9705,2.9409,2.902,5.937,5.8823,5.8788,5.8823,5.8909,5.8892,5.8995,5.9132,5.8803,5.8043,5.7004,5.6238,5.5747,5.54,5.4967,5.4731,5.4655,5.4686,5.4606,5.4512,5.4512,5.4512,5.4512,5.4512,5.4512,5.4512,5.4512,5.4512,5.4512,5.4512,5.4512,5.4512,5.4512,5.3942,5.2891,5.2097,5.1356,5.0614,5.0095,4.986,4.986,4.9935,4.9821,4.947,4.8338,4.7582,4.7267,4.623,4.5684,4.5837,4.5995,4.6186,4.6332,4.6637,4.6888,4.7002,4.6886,4.6859,4.6884,4.5812,4.4845,4.4108,4.3352,4.2881,4.2749,4.2767,4.2767,4.2767,4.2767,4.2767,4.2767,4.2727,4.2706,4.2706,4.2649,4.1925,4.0503,4.0143,3.9496,3.7989,3.7667,3.7667,3.7649,3.7631,3.7631,3.7631,3.7613,3.7576,3.7449,3.73,3.7071,3.6774,3.669,3.669,3.6638,3.6008,3.5494,3.5206,3.4199,3.3427,3.3094,3.2812,3.2483,3.2352,3.1947,3.1678,3.1561,3.1207,3.0827,3.0593,3.0535,3.0431,3.0177,2.9935,2.9477,5.9735,5.9012,5.9012,5.9012,5.9012,5.9012,5.9115,5.9301,5.9335,5.9056,5.8411,5.7066,5.6332,5.6137,5.534,5.493,5.4873,5.4842,5.478,5.462,5.4589,5.4606,5.462,5.4589,5.4606,5.4589,5.4637,5.4637,5.4589,5.4637,5.4589,5.4606,5.462,5.4257,5.3531,5.2706,5.1946,5.122,5.0443,5.008,5.0051,5.0068,5.0092,5.0159,4.8726,4.801,4.8111,4.6809,4.6137,4.6332,4.6453,4.6637,4.6906,4.7025,4.7156,4.7267,4.7446,4.7597,4.7527,4.6216,4.5116,4.4481,4.352,4.2975,4.2975,4.2975,4.2939,4.2919,4.29,4.29,4.2882,4.2861,4.2822,4.2804,4.2746,4.2003,4.058,4.0256,3.9643,3.8258,3.7934,3.7916,3.7899,3.7899,3.7899,3.7882,3.7899,3.7864,3.7757,3.7757,3.7577,3.7336,3.7164,3.7002,3.6897,3.6154,3.5514,3.5203,3.396,3.3099,3.2727,3.2257,3.1925,3.1832,3.1723,3.1629,3.1464,3.1349,3.1213,3.1021,3.0925,3.0821,3.0535,3.0295,2.9848,6.0288,5.9099,5.9012,5.9012,5.9012,5.9012,5.9115,5.9319,5.9504,5.9635,5.9434,5.7927,5.6819,5.614,5.5405,5.5026,5.5009,5.4992,5.4961,5.4961,5.4961,5.4961,5.493,5.4961,5.4961,5.4961,5.493,5.493,5.4913,5.4913,5.4944,5.4961,5.4961,5.4596,5.3848,5.307,5.2288,5.1541,5.0758,5.0302,5.0189,5.0189,5.0246,5.0369,4.8891,4.8189,4.8373,4.6986,4.6357,4.6708,4.6865,4.702,4.7156,4.7338,4.7468,4.749,4.7717,4.7884,4.7822,4.6476,4.551,4.5384,4.3998,4.3178,4.316,4.3178,4.3087,4.2975,4.2919,4.2919,4.2919,4.29,4.29,4.2901,4.29,4.2248,4.0836,4.0474,3.9823,3.8182,3.8002,3.7967,3.7934,3.7916,3.7934,3.7952,3.7952,3.7934,3.7899,3.7899,3.7809,3.7739,3.7631,3.7201,3.6595,3.5723,3.4978,3.4164,3.3247,3.2703,3.2476,3.2406,3.2197,3.2091,3.2037,3.1965,3.1784,3.1653,3.1559,3.143,3.1315,3.1159,3.0861,3.0613,3.0177,6.0409,5.903,5.9012,5.9012,5.9012,5.9132,5.9285,5.9486,5.9635,5.9814,5.9838,5.8776,5.787,5.7114,5.6309,5.5654,5.5126,5.5109,5.5083,5.5022,5.4974,5.4974,5.4974,5.4974,5.4974,5.4974,5.4974,5.4974,5.4974,5.4974,5.4974,5.4974,5.4974,5.4866,5.4452,5.3321,5.2543,5.2196,5.1041,5.0397,5.0436,5.0341,5.0161,4.9794,4.8863,4.8198,4.7902,4.7126,4.6749,4.6911,4.7093,4.7249,4.7359,4.7529,4.7657,4.7738,4.7866,4.7769,4.7317,4.6223,4.5384,4.4947,4.3853,4.3214,4.3214,4.3214,4.316,4.3087,4.3068,4.3087,4.3068,4.3068,4.3087,4.3069,4.3068,4.2414,4.0816,4.0635,3.9965,3.8428,3.8105,3.8105,3.8089,3.8072,3.8072,3.8072,3.8072,3.809,3.8072,3.809,3.7855,3.7459,3.7282,3.7089,3.6537,3.543,3.4594,3.4045,3.3354,3.2773,3.2672,3.2623,3.2557,3.2404,3.237,3.2301,3.2109,3.202,3.1947,3.182,3.1579,3.137,3.1237,3.0998,3.0638,6.0409,5.9116,5.9012,5.9012,5.9012,5.92,5.9437,5.9603,5.9748,5.9911,6.0036,5.9527,5.886,5.8053,5.707,5.6132,5.5329,5.5277,5.5217,5.5144,5.5113,5.5191,5.5174,5.5204,5.5217,5.5247,5.5247,5.5217,5.5204,5.5144,5.5161,5.5144,5.5131,5.5161,5.4987,5.3596,5.2858,5.2747,5.1368,5.0665,5.0784,5.0702,5.0325,4.9626,4.895,4.833,4.7762,4.7269,4.7025,4.7138,4.7258,4.7428,4.7575,4.7699,4.7822,4.7984,4.8028,4.7705,4.6921,4.6136,4.535,4.4547,4.3743,4.3268,4.3286,4.3268,4.3268,4.3286,4.3268,4.3268,4.3214,4.3214,4.3214,4.3214,4.3214,4.2522,4.0994,4.0722,4.0087,3.8583,3.8256,3.8239,3.8239,3.8257,3.8239,3.8257,3.8239,3.8112,3.7985,3.7876,3.764,3.6878,3.6733,3.6526,3.6146,3.5235,3.4375,3.3896,3.3347,3.3013,3.2963,3.2918,3.2872,3.2705,3.2673,3.259,3.2455,3.2387,3.2266,3.2144,3.1893,3.1673,3.1654,3.137,3.1117,6.0392,5.9099,5.9012,5.9012,5.9012,5.9234,5.9437,5.9603,5.9748,5.9911,6.0089,6.0036,5.9633,5.8808,5.7333,5.6227,5.5566,5.5478,5.5478,5.5448,5.5478,5.5549,5.5648,5.5677,5.5735,5.5758,5.5775,5.5746,5.5648,5.5537,5.5478,5.5478,5.546,5.5478,5.5267,5.3934,5.3247,5.3155,5.1817,5.1114,5.1228,5.1228,5.0805,4.9932,4.9215,4.8611,4.8028,4.7367,4.7138,4.745,4.749,4.7615,4.784,4.7899,4.7984,4.8148,4.8206,4.786,4.7057,4.6305,4.548,4.4691,4.3885,4.3462,4.3444,4.3444,4.3444,4.3462,4.3444,4.3392,4.3251,4.3251,4.3233,4.3233,4.3214,4.2485,4.1027,4.0845,4.0078,3.8822,3.8421,3.8368,3.8385,3.8382,3.8366,3.8385,3.8366,3.8184,3.7621,3.7366,3.6968,3.6458,3.6112,3.5754,3.493,3.4687,3.4243,3.3725,3.3424,3.3117,3.3119,3.3104,3.3057,3.3011,3.2963,3.2884,3.2805,3.2657,3.2522,3.237,3.2214,3.2073,3.2055,3.1728,3.1468,6.0409,5.903,5.9012,5.9081,5.92,5.9386,5.9586,5.9766,5.9928,6.0025,6.0089,6.0089,5.9685,5.8948,5.7877,5.6947,5.621,5.5789,5.5637,5.5637,5.5706,5.5775,5.5804,5.585,5.5833,5.589,5.5918,5.589,5.5833,5.5775,5.5764,5.5764,5.5764,5.5764,5.5482,5.4211,5.348,5.3376,5.2015,5.1246,5.1324,5.1479,5.1139,5.0332,4.9557,4.8615,4.7403,4.7348,4.7363,4.7493,4.7657,4.778,4.7902,4.8006,4.8128,4.8247,4.8267,4.7699,4.6526,4.6067,4.5314,4.4085,4.3681,4.3479,4.3479,4.3479,4.3479,4.3479,4.3479,4.3463,4.3428,4.3393,4.3392,4.3375,4.3356,4.2936,4.1932,4.124,4.0474,3.9384,3.8763,3.8399,3.8399,3.8399,3.8399,3.8399,3.8399,3.8234,3.7979,3.7562,3.707,3.676,3.6322,3.5705,3.4859,3.4739,3.4473,3.3873,3.3462,3.3433,3.3419,3.3342,3.3298,3.3241,3.3229,3.3152,3.3028,3.2934,3.277,3.2688,3.2522,3.2421,3.2421,3.2091,3.1875,5.9961,5.9081,5.9012,5.9115,5.9319,5.9504,5.9685,5.9829,6.0008,6.0089,6.0089,6.0089,5.9808,5.9229,5.8294,5.7587,5.6985,5.6141,5.5706,5.5764,5.5861,5.5975,5.6032,5.606,5.6116,5.6154,5.6126,5.6144,5.6116,5.6106,5.606,5.606,5.606,5.5918,5.551,5.4356,5.3655,5.322,5.2145,5.1531,5.1564,5.1758,5.1439,5.0652,4.9895,4.8892,4.7608,4.7525,4.7551,4.7636,4.7819,4.7941,4.8004,4.8148,4.8247,4.8287,4.8324,4.759,4.6177,4.5902,4.5204,4.3681,4.3479,4.3479,4.3479,4.3479,4.3479,4.3479,4.3479,4.3479,4.3479,4.3479,4.3479,4.3479,4.3479,4.3167,4.2328,4.1505,4.0538,3.9447,3.8807,3.8533,3.8496,3.8515,3.8496,3.8496,3.8496,3.8442,3.8094,3.7692,3.7147,3.6964,3.6723,3.6029,3.5374,3.5155,3.4626,3.3992,3.3595,3.3605,3.3605,3.3563,3.352,3.3481,3.3408,3.3334,3.3244,3.3152,3.3057,3.2979,3.2834,3.2705,3.2606,3.2455,3.2232,5.9047,5.9012,5.9012,5.9132,5.9352,5.9537,5.9668,5.9829,6.0025,6.0089,6.0089,6.0089,6.0054,5.977,5.8594,5.795,5.7663,5.6423,5.585,5.5918,5.5947,5.6116,5.6383,5.6383,5.6501,5.6689,5.6653,5.66,5.6528,5.6437,5.6401,5.6401,5.6383,5.6026,5.5259,5.4438,5.3677,5.3031,5.2269,5.1932,5.206,5.206,5.1718,5.0987,5.0271,4.9487,4.8698,4.7944,4.7636,4.784,4.7881,4.7986,4.8166,4.8267,4.8305,4.8287,4.8324,4.7517,4.6159,4.5883,4.5204,4.3809,4.3479,4.3479,4.3479,4.3479,4.3479,4.3479,4.3479,4.3479,4.3479,4.3479,4.3479,4.3479,4.3479,4.3149,4.2451,4.159,4.0471,3.9153,3.8676,3.8692,3.8692,3.8658,3.8658,3.8676,3.8658,3.8475,3.7943,3.7631,3.7147,3.6835,3.6732,3.6369,3.5962,3.5555,3.481,3.4136,3.3812,3.3647,3.3661,3.3633,3.3601,3.3577,3.3534,3.3462,3.3404,3.3316,3.3271,3.3196,3.3073,3.2977,3.2882,3.2753,3.2522,5.9012,5.9012,5.9166,5.9319,5.9537,5.9668,5.9846,6.0025,6.0089,6.0089,6.0089,6.0089,6.0089,5.977,5.8629,5.8094,5.8089,5.6841,5.6235,5.6245,5.6338,5.6474,5.6635,5.668,5.6733,5.6768,5.6786,5.6742,5.6715,5.6689,5.668,5.668,5.668,5.6249,5.5442,5.4671,5.3943,5.3196,5.2424,5.2078,5.2084,5.2198,5.2096,5.1777,5.0701,4.9905,4.9662,4.8384,4.7774,4.792,4.7927,4.805,4.8247,4.8305,4.8324,4.8324,4.8324,4.7609,4.6177,4.5847,4.5222,4.3883,4.3479,4.3479,4.3479,4.3479,4.3479,4.3479,4.3479,4.3479,4.3479,4.3479,4.3479,4.3479,4.3479,4.3386,4.2855,4.1864,4.0451,3.9074,3.8707,3.8707,3.8707,3.8707,3.8707,3.8707,3.8707,3.8524,3.8322,3.786,3.7804,3.7881,3.7422,3.6721,3.6211,3.5569,3.4779,3.4188,3.3858,3.3716,3.3716,3.3698,3.3684,3.3671,3.3629,3.3587,3.3549,3.3506,3.3448,3.3433,3.3342,3.3283,3.3226,3.3039,3.2818,5.9012,5.9012,5.9217,5.9419,5.9603,5.9748,5.9911,6.0089,6.0089,6.0089,6.0089,6.0089,5.9931,5.9506,5.8567,5.8012,5.7771,5.687,5.6492,5.6546,5.6609,5.6742,5.6873,5.6925,5.6951,5.6951,5.6933,5.6951,5.6951,5.6951,5.6933,5.6951,5.6951,5.6374,5.5437,5.4842,5.412,5.3093,5.2498,5.2246,5.2269,5.2364,5.2415,5.2198,5.099,5.0297,5.0162,4.868,4.7866,4.7986,4.807,4.817,4.8287,4.8324,4.8324,4.8324,4.8214,4.7609,4.6159,4.5883,4.5204,4.3864,4.3479,4.3479,4.3479,4.3479,4.3479,4.3479,4.3479,4.3479,4.3479,4.3479,4.3479,4.3479,4.3479,4.3222,4.2671,4.1754,4.0453,3.9203,3.8707,3.8707,3.8707,3.8707,3.8707,3.8707,3.8707,3.8707,3.8615,3.8267,3.8432,3.834,3.7676,3.6997,3.6358,3.5605,3.4747,3.4252,3.383,3.378,3.378,3.3766,3.3748,3.3753,3.3712,3.3684,3.3629,3.3615,3.3587,3.3587,3.3559,3.3473,3.3357,3.3301,3.3104,5.9012,5.9047,5.9251,5.9453,5.9636,5.9781,5.9943,6.0089,6.0089,6.0089,6.0089,6.0089,5.9703,5.9028,5.8499,5.7919,5.7156,5.683,5.668,5.6742,5.6821,5.6899,5.7028,5.713,5.7138,5.7181,5.7163,5.7163,5.7138,5.7138,5.7188,5.7163,5.7127,5.6428,5.5269,5.4907,5.4134,5.2811,5.2539,5.2521,5.2503,5.2563,5.259,5.2518,5.1188,5.0378,5.0198,4.8887,4.807,4.8169,4.8247,4.8305,4.8324,4.8324,4.8324,4.8324,4.8324,4.7535,4.6397,4.5938,4.5259,4.3901,4.3571,4.3479,4.3479,4.3479,4.3479,4.3479,4.3479,4.3479,4.3479,4.3479,4.3479,4.3479,4.3479,4.2892,4.1499,4.1205,4.0416,3.9276,3.8781,3.8707,3.8707,3.8707,3.8707,3.8707,3.8707,3.8707,3.8689,3.8579,3.8652,3.8285,3.7713,3.6997,3.6285,3.5165,3.438,3.4137,3.382,3.3834,3.382,3.3788,3.3788,3.3793,3.3793,3.3753,3.3739,3.3712,3.3684,3.3657,3.3615,3.3559,3.3502,3.3448,3.336,5.9098,5.9234,5.9437,5.9602,5.9748,5.9961,6.0057,6.0089,6.0089,6.0089,6.0089,6.0089,5.965,5.8979,5.8494,5.7865,5.716,5.6859,5.6742,5.6821,5.7028,5.7087,5.7138,5.7181,5.7188,5.7188,5.7188,5.7188,5.7188,5.7188,5.7188,5.7188,5.727,5.6558,5.5214,5.5067,5.4259,5.2971,5.2694,5.2712,5.2712,5.2717,5.2761,5.2597,5.1234,5.0495,5.0396,4.905,4.8208,4.8207,4.8267,4.8324,4.8324,4.8324,4.8324,4.8324,4.8288,4.7883,4.6929,4.625,4.5424,4.4488,4.3846,4.3497,4.3479,4.3479,4.3479,4.3479,4.3479,4.3479,4.3479,4.3479,4.3479,4.3479,4.3479,4.3094,4.2139,4.1425,4.0673,3.9735,3.9074,3.8762,3.8707,3.8707,3.8707,3.8707,3.8707,3.8707,3.8707,3.8707,3.8689,3.823,3.7643,3.6905,3.6009,3.4853,3.4119,3.3967,3.3834,3.3873,3.3847,3.3802,3.382,3.3807,3.382,3.3807,3.3793,3.378,3.3753,3.3712,3.3712,3.3684,3.3657,3.3601,3.3549,5.92,5.9301,5.9586,5.9733,5.9829,6.0025,6.0089,6.0089,6.0089,6.0089,6.0036,5.9756,5.9211,5.8488,5.8,5.7352,5.6677,5.6743,5.6812,5.6847,5.7079,5.7181,5.7188,5.7188,5.7188,5.7188,5.7188,5.7188,5.7213,5.7239,5.7282,5.7313,5.7431,5.6643,5.5205,5.5111,5.4392,5.3075,5.2806,5.2806,5.2806,5.285,5.2872,5.2601,5.138,5.0383,4.962,4.8744,4.8286,4.8285,4.8286,4.8324,4.8324,4.8324,4.8324,4.8324,4.8324,4.7957,4.7223,4.6617,4.5883,4.4929,4.4213,4.3864,4.3589,4.3479,4.3479,4.3479,4.3479,4.3479,4.3479,4.3479,4.3479,4.3479,4.3479,4.3149,4.2396,4.1572,4.0799,3.9992,3.9239,3.8707,3.8707,3.8707,3.8707,3.8707,3.8707,3.8707,3.8707,3.8707,3.8652,3.8285,3.7569,3.674,3.5973,3.4908,3.4114,3.3889,3.3855,3.3881,3.3908,3.3868,3.3873,3.3873,3.386,3.3847,3.3847,3.382,3.3793,3.378,3.3807,3.3807,3.3766,3.3726,3.3657,5.9319,5.9352,5.9683,5.9829,5.9861,6.0008,6.0089,6.0089,6.0089,6.0089,5.9949,5.9317,5.8667,5.7772,5.7453,5.6715,5.5982,5.6564,5.6812,5.6907,5.7087,5.7188,5.7188,5.7188,5.7188,5.7188,5.7188,5.7213,5.7239,5.7356,5.7406,5.7455,5.7553,5.6731,5.5527,5.524,5.4383,5.316,5.289,5.289,5.2912,5.2977,5.2999,5.2801,5.1545,5.012,4.9076,4.8398,4.8305,4.8305,4.8324,4.8324,4.8324,4.8324,4.8324,4.8324,4.8288,4.7994,4.7369,4.7131,4.6526,4.537,4.4893,4.4433,4.3846,4.3626,4.3479,4.3479,4.3479,4.3479,4.3479,4.3479,4.3479,4.3479,4.3479,4.3147,4.2506,4.1717,4.0912,4.012,3.9331,3.8891,3.8707,3.8707,3.8707,3.8707,3.8707,3.8707,3.8707,3.8707,3.8707,3.8615,3.7679,3.6574,3.5807,3.5018,3.4366,3.3915,3.3913,3.3934,3.3992,3.3998,3.3959,3.3952,3.3921,3.3895,3.3855,3.386,3.3847,3.386,3.3887,3.386,3.3834,3.3807,3.3753,5.9386,5.9537,5.9716,5.9893,6.0008,6.0089,6.0089,6.0089,6.0089,6.0089,5.9931,5.9334,5.8562,5.7754,5.7294,5.6662,5.6074,5.651,5.6899,5.713,5.7138,5.7188,5.7188,5.7188,5.7188,5.7188,5.7188,5.7239,5.7356,5.7406,5.748,5.7559,5.7582,5.694,5.561,5.5385,5.4737,5.3396,5.3121,5.3082,5.3082,5.3103,5.3106,5.2962,5.1589,5.038,4.9407,4.8655,4.8324,4.8324,4.8324,4.8324,4.8324,4.8324,4.8324,4.8324,4.8324,4.8214,4.7975,4.7461,4.6984,4.647,4.5461,4.4654,4.447,4.3846,4.3552,4.3479,4.3479,4.3479,4.3496,4.3496,4.3496,4.3513,4.3513,4.3458,4.3147,4.2488,4.1662,4.0875,4.0084,3.9405,3.8799,3.8707,3.8707,3.8707,3.8707,3.8707,3.8707,3.8707,3.8707,3.8689,3.79,3.6868,3.6299,3.5436,3.4591,3.406,3.3965,3.3998,3.4055,3.4055,3.4036,3.3998,3.3985,3.3947,3.3921,3.3934,3.3934,3.3934,3.3934,3.3921,3.3908,3.3868,3.3842,5.9504,5.9603,5.9864,6.0008,6.0089,6.0089,6.0089,6.0089,6.0089,6.0089,5.9931,5.9334,5.8562,5.7803,5.7294,5.6644,5.6184,5.651,5.6881,5.7061,5.7138,5.7188,5.7188,5.7188,5.7188,5.7188,5.7188,5.7264,5.7363,5.748,5.7577,5.7679,5.7797,5.7024,5.5723,5.5533,5.4711,5.3497,5.3185,5.3185,5.3185,5.3185,5.2949,5.2546,5.1444,5.0417,4.9592,4.8746,4.8379,4.8324,4.8324,4.8324,4.8324,4.8324,4.8324,4.8324,4.8324,4.8324,4.8159,4.7901,4.7498,4.7149,4.6232,4.5498,4.4911,4.4268,4.3883,4.3589,4.3515,4.3515,4.3549,4.3566,4.3566,4.3617,4.3634,4.3634,4.3507,4.2851,4.1992,4.1187,4.0359,3.9551,3.9038,3.8833,3.8707,3.8723,3.8723,3.8707,3.8707,3.8707,3.8707,3.8542,3.7933,3.7272,3.6776,3.5923,3.4833,3.4315,3.4029,3.4074,3.413,3.4124,3.4086,3.4074,3.4049,3.4011,3.3985,3.4011,3.4011,3.3985,3.3985,3.3998,3.3998,3.3947,3.3934,5.9621,5.9636,5.9978,6.0089,6.0089,6.0089,6.0089,6.0089,6.0089,6.0089,5.9949,5.9334,5.865,5.8027,5.7511,5.6828,5.6453,5.6474,5.6847,5.701,5.7112,5.7163,5.7188,5.7188,5.7188,5.7188,5.7257,5.7313,5.7437,5.7559,5.7697,5.7815,5.7909,5.7093,5.5941,5.5541,5.4803,5.3427,5.3185,5.3185,5.3185,5.3185,5.2876,5.238,5.1573,5.071,4.9921,4.9114,4.8489,4.8343,4.8324,4.8324,4.8324,4.8324,4.8324,4.8324,4.8324,4.8324,4.8324,4.8214,4.7957,4.7296,4.7076,4.647,4.5461,4.4819,4.4342,4.392,4.368,4.3549,4.36,4.3634,4.3703,4.3771,4.3788,4.3788,4.3642,4.3008,4.2334,4.1509,4.0843,4.0086,3.9372,3.8949,3.8827,3.8738,3.8738,3.8738,3.8738,3.8719,3.8735,3.8765,3.8298,3.7415,3.6844,3.6104,3.5016,3.446,3.4129,3.4124,3.4185,3.4173,3.4136,3.4124,3.4111,3.4074,3.4061,3.4068,3.4055,3.4018,3.403,3.4074,3.4061,3.4036,3.4023,5.9621,5.9654,5.9978,6.0089,6.0089,6.0089,6.0089,6.0089,6.0089,6.0089,6.0001,5.9334,5.8983,5.8611,5.8131,5.7588,5.7125,5.694,5.684,5.6951,5.7036,5.7087,5.7188,5.7188,5.7188,5.7213,5.7307,5.7455,5.7553,5.7697,5.7834,5.7932,5.7978,5.7152,5.6014,5.55,5.4803,5.3445,5.3185,5.3185,5.3185,5.3167,5.3151,5.2803,5.2068,5.1298,5.0563,4.9794,4.9058,4.8398,4.8324,4.8324,4.8324,4.8324,4.8324,4.8324,4.8324,4.8324,4.8324,4.8306,4.8251,4.7975,4.7553,4.7149,4.6415,4.5553,4.4892,4.4359,4.3915,4.3582,4.3617,4.3719,4.3753,4.3804,4.382,4.382,4.3767,4.3548,4.3162,4.2405,4.1575,4.0655,3.9869,3.9172,3.8914,3.8825,3.8825,3.8825,3.884,3.884,3.8851,3.8866,3.8807,3.7792,3.6819,3.6016,3.5138,3.4567,3.4228,3.4155,3.4185,3.4216,3.4204,3.4191,3.4179,3.4161,3.4148,3.413,3.4148,3.4124,3.4136,3.4161,3.4136,3.4099,3.4086,5.9621,5.9636,5.9978,6.0089,6.0089,6.0089,6.0089,6.0089,6.0089,6.0089,5.9984,5.9703,5.9334,5.9015,5.8787,5.8225,5.7516,5.7359,5.7101,5.6999,5.6959,5.7061,5.7188,5.7188,5.7239,5.7313,5.7437,5.7528,5.7601,5.7721,5.7881,5.7955,5.7978,5.7171,5.5959,5.5578,5.4693,5.3573,5.3185,5.3185,5.3185,5.3185,5.3185,5.2983,5.2435,5.161,5.082,5.0033,4.9188,4.8489,4.8324,4.8324,4.8324,4.8324,4.8324,4.8324,4.8324,4.8324,4.8324,4.8324,4.8306,4.8251,4.7902,4.7516,4.7094,4.636,4.5589,4.4779,4.4149,4.3736,4.3767,4.38,4.3849,4.3881,4.3897,4.3897,4.3897,4.3897,4.3619,4.314,4.2041,4.0997,4.0095,3.9505,3.9058,3.891,3.891,3.8925,3.8925,3.8939,3.8939,3.8921,3.8865,3.8237,3.7258,3.6509,3.5555,3.4858,3.4433,3.4328,3.4204,3.4216,3.4216,3.4204,3.4216,3.4216,3.4216,3.4173,3.4185,3.4216,3.4185,3.4185,3.4185,3.4173,3.4148,5.9621,5.9603,5.9946,6.0089,6.0089,6.0089,6.0089,6.0089,6.0089,6.0089,6.0089,6.0054,5.9756,5.9331,5.9095,5.8602,5.7572,5.7713,5.7325,5.6876,5.6881,5.7028,5.713,5.7206,5.7282,5.7388,5.751,5.7625,5.7673,5.7792,5.7886,5.7955,5.7978,5.7189,5.5904,5.5614,5.4564,5.3702,5.3185,5.3185,5.3185,5.3185,5.3185,5.3167,5.2582,5.1903,5.1151,5.0362,4.9555,4.8857,4.8453,4.8324,4.8324,4.8324,4.8324,4.8324,4.8324,4.8324,4.8306,4.8363,4.8363,4.8344,4.8363,4.7996,4.7591,4.7114,4.6452,4.5124,4.4472,4.4003,4.3939,4.3897,4.3926,4.3958,4.3989,4.3989,4.3974,4.3974,4.3974,4.3296,4.2289,4.148,4.0737,3.996,3.953,3.9011,3.8993,3.8993,3.8993,3.8979,3.8993,3.8979,3.8835,3.8502,3.7868,3.7285,3.6292,3.5317,3.4884,3.4649,3.442,3.4216,3.4216,3.4228,3.4216,3.4216,3.4216,3.4216,3.4216,3.4216,3.4216,3.4216,3.4197,3.4197,3.4185,5.9621,5.9654,5.9946,6.0089,6.0089,6.0089,6.0089,6.0089,6.0089,6.0089,6.0089,6.0089,6.0036,5.9886,5.9571,5.8951,5.8266,5.784,5.7359,5.6761,5.6794,5.6925,5.7036,5.7156,5.7307,5.7437,5.7553,5.7673,5.7768,5.7904,5.7973,5.7978,5.7868,5.7207,5.5757,5.5592,5.4766,5.3479,5.3185,5.3185,5.3185,5.3185,5.3185,5.3148,5.3023,5.2582,5.1738,5.0912,5.0141,4.9408,4.8655,4.8343,4.8324,4.8324,4.8324,4.8324,4.8324,4.8324,4.8306,4.8382,4.8457,4.8457,4.8495,4.8495,4.8181,4.761,4.6742,4.5172,4.4887,4.4621,4.4172,4.3979,4.3989,4.3989,4.4005,4.4005,4.4005,4.4005,4.4005,4.3856,4.2962,4.2273,4.1546,4.0744,3.9997,3.9463,3.9073,3.9059,3.9059,3.9031,3.9031,3.9017,3.8998,3.8683,3.8331,3.7784,3.7106,3.5968,3.538,3.5021,3.4747,3.4499,3.4221,3.4221,3.4221,3.424,3.4264,3.4252,3.4228,3.4221,3.4245,3.4233,3.4216,3.4216,3.4221,5.9621,5.9654,5.9963,6.0089,6.0089,6.0089,6.0089,6.0089,6.0089,6.0089,6.0089,6.0089,6.0171,6.0192,6.011,5.9436,5.858,5.8232,5.759,5.6779,5.676,5.6891,5.7028,5.7213,5.7388,5.7486,5.7649,5.781,5.7904,5.795,5.7978,5.7978,5.7905,5.7189,5.5757,5.5592,5.4638,5.3665,5.3185,5.3185,5.3185,5.3185,5.3185,5.3185,5.3185,5.2766,5.2068,5.1224,5.0417,4.9629,4.8765,4.8343,4.8324,4.8324,4.8324,4.8324,4.8324,4.8324,4.8324,4.8438,4.8494,4.8513,4.855,4.8569,4.8457,4.7957,4.7364,4.6587,4.5671,4.5074,4.4644,4.4268,4.4063,4.4005,4.4005,4.4005,4.4005,4.4005,4.3986,4.3856,4.3652,4.2943,4.2181,4.1289,4.036,3.9547,3.9175,3.9101,3.9087,3.9087,3.9087,3.9087,3.905,3.8957,3.8609,3.8196,3.7883,3.6892,3.5857,3.551,3.5155,3.4875,3.4572,3.4349,3.4316,3.4316,3.4323,3.43,3.4269,3.4293,3.4298,3.4305,3.4311,3.4305,3.4328,5.9603,5.9685,5.9961,6.0089,6.0089,6.0089,6.0121,6.0171,6.0171,6.0202,6.0216,6.0216,6.0346,6.0441,6.0437,5.9827,5.8543,5.8634,5.7795,5.7065,5.6742,5.6873,5.7036,5.7239,5.748,5.7583,5.7721,5.7839,5.7932,5.7978,5.7978,5.7978,5.7978,5.7079,5.6014,5.5482,5.4821,5.335,5.3185,5.3185,5.3185,5.3185,5.3185,5.3185,5.313,5.2892,5.2289,5.1555,5.0765,4.9976,4.9169,4.8673,4.8398,4.8324,4.8324,4.8324,4.8324,4.8324,4.8343,4.8401,4.8513,4.8569,4.8624,4.8695,4.8658,4.8157,4.771,4.7451,4.6723,4.5937,4.5268,4.4674,4.4358,4.4153,4.4005,4.4005,4.4005,4.4005,4.4005,4.3949,4.3763,4.3478,4.266,4.1764,4.0797,3.9761,3.9333,3.9198,3.9142,3.9156,3.9188,3.9202,3.9183,3.9165,3.8979,3.8643,3.8322,3.7851,3.6795,3.6,3.5663,3.5233,3.4836,3.4654,3.4502,3.442,3.4409,3.4374,3.434,3.4351,3.4363,3.4416,3.4427,3.442,3.4409,5.9685,5.9796,6.0025,6.0089,6.0089,6.0089,6.0202,6.0346,6.0364,6.0441,6.0516,6.0565,6.0516,6.0609,6.0572,5.9935,5.8554,5.8634,5.7805,5.7074,5.6742,5.6881,5.7061,5.7289,5.7504,5.7625,5.7768,5.7886,5.7973,5.7978,5.7978,5.7978,5.7978,5.6987,5.6051,5.5464,5.4675,5.35,5.3185,5.3185,5.3185,5.3185,5.3206,5.3188,5.3206,5.313,5.3059,5.2254,5.143,5.0622,4.9777,4.8949,4.8472,4.8343,4.8324,4.8324,4.8324,4.8324,4.8343,4.842,4.8513,4.8624,4.8732,4.8838,4.8802,4.8837,4.8464,4.7889,4.7348,4.6624,4.5862,4.5138,4.4711,4.4228,4.4005,4.4005,4.4005,4.4005,4.4005,4.4005,4.3872,4.3627,4.3338,4.2445,4.158,4.0589,3.9737,3.9564,3.9344,3.9301,3.9333,3.9346,3.936,3.936,3.936,3.9098,3.8811,3.845,3.771,3.6845,3.6177,3.571,3.5172,3.4896,3.4723,3.4622,3.4539,3.4517,3.4484,3.4439,3.445,3.4536,3.4558,3.4539,3.4506,5.9751,5.9993,6.0057,6.0089,6.0089,6.0252,6.0333,6.0409,6.0472,6.0565,6.0627,6.0627,6.064,6.0745,6.0699,6.0101,5.8945,5.8859,5.7943,5.7182,5.6855,5.7003,5.7163,5.7363,5.7583,5.7721,5.7839,5.7932,5.7978,5.7978,5.7978,5.7978,5.7978,5.7354,5.6492,5.5354,5.4252,5.3573,5.3185,5.3185,5.3185,5.3206,5.3209,5.3254,5.3254,5.3316,5.3228,5.2585,5.1811,5.1018,5.0187,4.9339,4.8602,4.8436,4.8324,4.8324,4.8324,4.8324,4.8324,4.8438,4.855,4.8733,4.8821,4.889,4.889,4.889,4.8797,4.8407,4.798,4.72,4.6345,4.5565,4.4952,4.4321,4.4005,4.4005,4.4005,4.4005,4.4005,4.4005,4.402,4.3906,4.358,4.3178,4.2327,4.146,4.0639,3.9944,3.9735,3.9457,3.9451,3.9451,3.9464,3.9438,3.9438,3.9369,3.93,3.8933,3.8527,3.7803,3.6977,3.6092,3.5608,3.5281,3.4972,3.4854,3.4752,3.4685,3.4645,3.4594,3.4634,3.4706,3.4706,3.4666,3.4634,5.9831,6.0089,6.0089,6.0139,6.0202,6.0315,6.0441,6.0516,6.064,6.0732,6.0823,6.0854,6.0926,6.1028,6.1022,6.0288,5.935,5.894,5.8071,5.7413,5.7003,5.713,5.7307,5.7486,5.7697,5.7815,5.7909,5.7978,5.7978,5.7978,5.7978,5.7978,5.7923,5.7483,5.6583,5.5262,5.4014,5.3369,5.3185,5.3185,5.3185,5.3209,5.3233,5.3297,5.3339,5.338,5.3367,5.2962,5.2353,5.1521,5.0671,4.9766,4.9083,4.8584,4.838,4.8324,4.8324,4.8324,4.8343,4.8438,4.8569,4.8697,4.8822,4.8856,4.8891,4.889,4.8834,4.8816,4.8333,4.772,4.6903,4.6215,4.5454,4.4822,4.4135,4.4005,4.4005,4.4005,4.4005,4.4005,4.402,4.4033,4.4024,4.3673,4.2917,4.202,4.1031,4.0426,4.0208,3.9877,3.9533,3.9546,3.9514,3.9508,3.9483,3.9483,3.9483,3.942,3.9031,3.8686,3.7913,3.6994,3.6139,3.5706,3.5407,3.5119,3.4931,3.4816,3.4778,3.4759,3.4798,3.4827,3.4798,3.4778,3.4768,5.9911,6.0089,6.0089,6.0202,6.0396,6.0378,6.0547,6.0757,6.0848,6.0998,6.127,6.1415,6.1473,6.1501,6.1444,6.0675,5.9617,5.9249,5.8502,5.7516,5.7235,5.7325,5.7437,5.7649,5.7792,5.7815,5.7909,5.7978,5.7978,5.7978,5.7978,5.7978,5.7923,5.7519,5.6693,5.5225,5.4051,5.3335,5.3203,5.3185,5.3206,5.3272,5.3297,5.3339,5.342,5.3519,5.3485,5.343,5.2876,5.2117,5.1302,5.0433,4.9619,4.8826,4.8456,4.8306,4.8324,4.8324,4.8324,4.842,4.8513,4.8624,4.8769,4.884,4.8891,4.889,4.889,4.8872,4.8742,4.8351,4.7664,4.694,4.6141,4.5379,4.4692,4.4265,4.4302,4.4005,4.4005,4.4005,4.402,4.4067,4.4252,4.4144,4.3442,4.2541,4.148,4.0923,4.0697,4.0353,3.997,3.9613,3.9601,3.9601,3.9601,3.9649,3.9665,3.9658,3.9526,3.9168,3.8822,3.8135,3.7279,3.6413,3.5849,3.5577,3.5247,3.4935,3.4907,3.4879,3.4888,3.4917,3.4897,3.4897,3.4868,5.9911,6.0089,6.0089,6.0266,6.0503,6.0534,6.0701,6.1016,6.1223,6.1386,6.1491,6.1577,6.1605,6.1605,6.1544,6.105,6.0214,5.9528,5.8794,5.8116,5.7678,5.7589,5.7655,5.7745,5.7839,5.7909,5.7978,5.7978,5.7978,5.7978,5.7978,5.7978,5.7886,5.7226,5.6271,5.5225,5.462,5.3442,5.3185,5.3185,5.3225,5.3274,5.3339,5.342,5.3539,5.3619,5.3678,5.3678,5.3288,5.2584,5.1768,5.0842,4.9934,4.9104,4.8511,4.8343,4.8306,4.8324,4.8306,4.8344,4.8439,4.8569,4.8715,4.8804,4.8891,4.889,4.889,4.889,4.889,4.8463,4.7738,4.7516,4.6884,4.616,4.5528,4.5082,4.4841,4.4283,4.4005,4.4005,4.402,4.4116,4.4252,4.4354,4.383,4.3586,4.2714,4.1682,4.1249,4.0885,4.0495,3.991,3.9684,3.9696,3.972,3.9743,3.9724,3.9724,3.9693,3.958,3.9245,3.8938,3.8431,3.7593,3.6771,3.6024,3.5665,3.5325,3.5078,3.4983,3.5002,3.5002,3.4993,3.4983,3.4955,5.9975,6.0089,6.0171,6.036,6.0596,6.0627,6.0823,6.1182,6.1519,6.1662,6.1662,6.1718,6.1756,6.1784,6.174,6.1416,6.0756,6.0064,5.9317,5.8644,5.7966,5.7788,5.7786,5.7857,5.7909,5.7978,5.7978,5.7978,5.7978,5.7978,5.7978,5.7978,5.796,5.7299,5.6363,5.5666,5.495,5.3904,5.3518,5.3185,5.323,5.3295,5.3439,5.3519,5.3619,5.3736,5.3793,5.372,5.3571,5.2884,5.2141,5.125,5.038,4.9565,4.8844,4.8529,4.8306,4.8324,4.8324,4.8306,4.842,4.8587,4.8697,4.8786,4.8874,4.889,4.889,4.889,4.889,4.863,4.8203,4.8036,4.7478,4.6735,4.6308,4.5862,4.5249,4.4711,4.4265,4.4246,4.4039,4.4131,4.4222,4.4325,4.4224,4.4144,4.3992,4.2942,4.1889,4.1461,4.1038,4.0427,3.9898,3.9826,3.9808,3.98,3.98,3.9758,3.9758,3.977,3.9717,3.9391,3.9064,3.8736,3.7873,3.702,3.6207,3.5742,3.5276,3.5065,3.5119,3.511,3.5101,3.5075,3.5029,6.0089,6.0139,6.0315,6.0472,6.0596,6.0671,6.0944,6.1339,6.1672,6.1802,6.183,6.1969,6.2033,6.2177,6.2177,6.1848,6.1171,6.0402,5.9661,5.8866,5.8202,5.7993,5.7881,5.7927,5.7955,5.7978,5.7978,5.7978,5.7978,5.7978,5.7978,5.7978,5.7978,5.7483,5.684,5.6124,5.5262,5.4326,5.3757,5.3405,5.3282,5.3378,5.3459,5.3559,5.3659,5.3774,5.3813,5.3775,5.3757,5.3423,5.2921,5.2103,5.1269,5.038,4.9473,4.8752,4.8381,4.8324,4.8324,4.8324,4.842,4.8569,4.8605,4.8713,4.8838,4.889,4.889,4.889,4.889,4.889,4.8779,4.8333,4.7887,4.7386,4.6958,4.6401,4.5769,4.5249,4.4785,4.4488,4.4135,4.4104,4.4195,4.43,4.4354,4.4365,4.4252,4.4019,4.3,4.2133,4.1652,4.0992,4.0492,4.003,3.9954,3.9875,3.9845,3.9815,3.9826,3.9837,3.9832,3.9794,3.9483,3.9134,3.8746,3.7933,3.6606,3.576,3.5235,3.5145,3.516,3.517,3.5145,3.5119,3.5092,6.0089,6.0121,6.0333,6.0472,6.064,6.1093,6.1444,6.169,6.1886,6.1978,6.2087,6.2123,6.223,6.2336,6.2336,6.218,6.162,6.085,6.0206,5.942,5.8461,5.811,5.795,5.7973,5.7978,5.7978,5.7978,5.7978,5.7978,5.7978,5.7978,5.7978,5.7978,5.7758,5.7409,5.684,5.5739,5.4766,5.4216,5.3757,5.3414,5.3433,5.3477,5.3541,5.3678,5.3793,5.3813,5.3813,5.3813,5.3664,5.3032,5.2364,5.2103,5.0787,4.9547,4.8642,4.84,4.8324,4.8324,4.8324,4.8401,4.8587,4.8605,4.8714,4.882,4.889,4.889,4.889,4.889,4.889,4.889,4.8593,4.8351,4.811,4.7683,4.72,4.6531,4.5807,4.5324,4.4618,4.4265,4.4073,4.4165,4.4229,4.4285,4.4368,4.4379,4.4317,4.3998,4.3052,4.2401,4.1741,4.098,4.0506,4.0089,3.9935,3.9908,3.9889,3.99,3.99,3.987,3.9813,3.9748,3.9388,3.885,3.782,3.6549,3.5873,3.5396,3.5189,3.5193,3.5185,3.5187,3.5162,3.5145,6.0089,6.0121,6.0378,6.0688,6.1052,6.1433,6.1718,6.1969,6.2078,6.2141,6.2185,6.2238,6.2362,6.2449,6.2475,6.2446,6.2395,6.1,6.0225,5.9865,5.8684,5.8194,5.7978,5.7978,5.7978,5.7978,5.7978,5.7978,5.7978,5.7978,5.7978,5.7978,5.7978,5.7978,5.7813,5.7428,5.6657,5.5611,5.4785,5.4216,5.386,5.3562,5.3498,5.3539,5.3678,5.3793,5.3813,5.3813,5.3813,5.3813,5.3218,5.2884,5.2344,5.0917,4.9899,4.9085,4.8642,4.8513,4.8458,4.8439,4.8514,4.8624,4.8678,4.8768,4.8839,4.889,4.889,4.889,4.889,4.889,4.889,4.889,4.8872,4.8834,4.8444,4.8036,4.7274,4.6457,4.5658,4.4841,4.4429,4.4166,4.4104,4.415,4.4195,4.4285,4.4368,4.443,4.4175,4.3623,4.312,4.2645,4.1734,4.0942,4.0525,4.0108,3.9976,3.9938,3.99,3.99,3.99,3.9881,3.9805,3.9388,3.885,3.782,3.6891,3.6187,3.5681,3.5437,3.5201,3.5193,3.5193,3.5185,3.5168,6.0089,6.0121,6.0454,6.0944,6.1548,6.1605,6.183,6.2177,6.2203,6.223,6.2265,6.2362,6.2475,6.2585,6.261,6.2698,6.2247,6.1141,6.0353,6.0291,5.8731,5.8015,5.7978,5.7978,5.7978,5.7978,5.7978,5.7978,5.7978,5.7978,5.7978,5.7978,5.7978,5.7978,5.7941,5.7886,5.7336,5.6712,5.5592,5.4748,5.4298,5.391,5.3536,5.3521,5.3659,5.3813,5.3813,5.3813,5.3813,5.3813,5.3701,5.3329,5.2308,5.1362,5.0509,4.9714,4.9159,4.8772,4.8624,4.855,4.8624,4.8715,4.8804,4.884,4.8874,4.889,4.889,4.889,4.889,4.889,4.889,4.889,4.889,4.889,4.8686,4.8407,4.7961,4.6977,4.5881,4.5064,4.4358,4.4132,4.4055,4.4085,4.4169,4.4211,4.427,4.4387,4.4313,4.3952,4.3648,4.3341,4.2664,4.1722,4.0957,4.0541,4.0127,3.9995,3.9919,3.99,3.99,3.99,3.99,3.9464,3.902,3.8312,3.747,3.6654,3.5872,3.5363,3.5196,3.5182,3.5182,3.5182,3.5193,6.0089,6.0121,6.0454,6.0974,6.1548,6.1605,6.184,6.2203,6.231,6.2397,6.25,6.2552,6.2603,6.2705,6.273,6.2755,6.234,6.119,6.0548,5.9869,5.8694,5.8015,5.7978,5.7978,5.7978,5.7978,5.7978,5.7978,5.7978,5.7978,5.7978,5.7978,5.7978,5.7978,5.7978,5.7978,5.7776,5.7464,5.6734,5.5522,5.4699,5.4462,5.4219,5.3855,5.3753,5.3831,5.3831,5.3813,5.3813,5.3813,5.3813,5.3367,5.2605,5.2048,5.1195,5.0232,4.9751,4.927,4.8864,4.8697,4.8696,4.875,4.8804,4.8839,4.8874,4.8873,4.889,4.889,4.889,4.889,4.889,4.889,4.889,4.889,4.8872,4.8723,4.8537,4.7348,4.6104,4.5249,4.4451,4.4135,4.4042,4.4055,4.4104,4.415,4.418,4.427,4.4383,4.4214,4.3958,4.3686,4.3511,4.2728,4.1756,4.0889,4.0446,4.0041,3.99,3.99,3.99,3.99,3.9862,3.9635,3.921,3.8597,3.7849,3.6863,3.6129,3.5583,3.5187,3.5182,3.5182,3.5182,3.5182,6.0089,6.0153,6.053,6.1046,6.1548,6.168,6.1923,6.2257,6.2362,6.25,6.2679,6.2679,6.273,6.2798,6.2823,6.253,6.2163,6.1006,6.0217,5.952,5.8804,5.818,5.7978,5.7978,5.7978,5.7978,5.7978,5.7978,5.8001,5.7978,5.7978,5.7997,5.7997,5.7978,5.7978,5.7978,5.8001,5.7941,5.7528,5.6687,5.5496,5.5315,5.4886,5.4394,5.4216,5.4165,5.3831,5.3813,5.3813,5.3813,5.3813,5.3701,5.3162,5.2661,5.2048,5.1232,5.0527,4.9769,4.9306,4.8991,4.8824,4.8822,4.8839,4.8873,4.8873,4.889,4.889,4.889,4.889,4.889,4.889,4.889,4.889,4.889,4.8816,4.8686,4.811,4.7163,4.6141,4.5342,4.4618,4.4079,4.4005,4.4005,4.4055,4.407,4.4119,4.4199,4.43,4.4383,4.4163,4.3995,4.3805,4.3227,4.2148,4.1321,4.0689,4.0333,3.9965,3.99,3.99,3.99,3.9824,3.9692,3.9475,3.905,3.8238,3.7348,3.6577,3.6024,3.5571,3.5182,3.5182,3.5182,3.5182,6.0121,6.0216,6.0618,6.1117,6.1577,6.1746,6.2033,6.2362,6.2415,6.2526,6.2755,6.2798,6.2823,6.2823,6.2787,6.2218,6.1594,6.0823,6.0052,5.9245,5.8419,5.807,5.7978,5.7978,5.8001,5.8042,5.8088,5.8065,5.8061,5.8042,5.8042,5.802,5.802,5.8001,5.802,5.8042,5.8088,5.8129,5.7935,5.7777,5.7121,5.6467,5.5759,5.5306,5.4941,5.4611,5.4184,5.385,5.385,5.3813,5.3813,5.3738,5.359,5.3162,5.2772,5.2104,5.1306,5.06,4.9988,4.9449,4.917,4.8947,4.8927,4.889,4.889,4.889,4.889,4.889,4.889,4.889,4.889,4.889,4.889,4.889,4.8797,4.8723,4.7961,4.7216,4.6417,4.56,4.4952,4.4358,4.4042,4.4042,4.4023,4.4039,4.407,4.4135,4.4214,4.4285,4.4237,4.4135,4.4044,4.3308,4.2529,4.1872,4.1233,4.0537,4.02,4.0022,3.99,3.99,3.99,3.9881,3.9597,3.9286,3.8816,3.8079,3.7329,3.6501,3.6058,3.5621,3.5182,3.5182,3.5182,6.0266,6.0516,6.0727,6.1117,6.1577,6.1746,6.2033,6.2362,6.2415,6.2545,6.2773,6.2823,6.2823,6.2823,6.2823,6.231,6.1374,6.0621,5.9942,5.9166,5.8345,5.807,5.8001,5.8001,5.8065,5.8152,5.8238,5.8242,5.8174,5.8152,5.8106,5.8042,5.8133,5.8156,5.8174,5.8219,5.8282,5.8305,5.8308,5.8208,5.8052,5.7373,5.6636,5.5995,5.5295,5.5019,5.4648,5.4128,5.3905,5.3813,5.3813,5.3813,5.372,5.3553,5.3237,5.2791,5.2029,5.1379,5.0729,5.0042,4.9633,4.9113,4.9039,4.889,4.889,4.889,4.889,4.889,4.889,4.889,4.889,4.889,4.889,4.8909,4.8852,4.8852,4.8516,4.7828,4.7103,4.6359,4.5653,4.4928,4.4206,4.4169,4.4098,4.4095,4.4005,4.4104,4.415,4.4211,4.4285,4.4242,4.4196,4.3871,4.3288,4.2579,4.1891,4.1101,4.0416,4.0192,4.0014,3.99,3.99,3.99,3.9786,3.9532,3.9043,3.8649,3.7861,3.709,3.662,3.6137,3.5641,3.5335,3.5469]}]]